GFSSGP_con_mucape_000.txt.gz
CAPE
0 0 0 0 0 0 0 4 41 22 10 0 0 6 37 126 368 201 201 382 717 715 766 1013 1401 1540 1517 1601 1951 2047 2092 2036 1843 1791 1707 1751 1706 1540 1426 1426 1509 1471 1500 1661 1747 1878 1963 1819 1968
0 0 0 0 0 0 0 11 5 0 0 0 0 27 68 62 166 111 182 559 770 1009 1103 1233 1500 1652 1758 1877 1899 1962 1961 1893 1889 1913 1905 1736 1662 1481 1311 1196 1466 1311 1296 1334 1379 1259 1869 1748 1514
0 0 0 0 0 0 0 11 16 0 2 10 0 82 109 97 69 85 221 584 1113 1496 1398 1642 1796 1755 1937 2169 2110 1994 2193 2121 2109 2078 1917 1651 1340 1069 967 1036 1155 944 927 1005 1064 949 825 880 1169
0 0 0 0 0 2 0 37 0 0 17 26 38 106 102 119 74 72 200 453 585 1186 1451 1485 1621 1817 2137 2155 2117 2097 1963 1948 1967 1938 1721 1419 1165 918 805 773 528 391 351 479 580 683 895 1053 1161
0 0 0 1 9 21 23 0 0 0 10 1 17 144 272 268 179 39 96 191 280 969 1340 1495 1484 1668 1837 1897 1843 1873 1816 1750 1651 1464 1309 1195 982 637 464 354 264 166 125 109 106 104 192 335 475
0 0 0 0 8 11 2 0 4 47 14 0 28 97 277 217 108 53 11 33 95 591 1014 1062 1457 1497 1523 1540 1505 1452 1404 1434 1466 1361 989 967 705 464 349 247 158 75 58 38 13 2 6 38 92
3 4 0 0 3 17 0 0 0 0 0 1 4 127 185 234 203 20 0 0 81 206 231 535 737 913 1042 1016 1116 1132 1218 1228 1028 935 852 752 621 392 189 117 52 7 0 0 0 0 0 0 3
0 0 0 0 0 0 0 0 0 0 0 0 0 38 101 266 186 5 0 0 5 272 372 555 643 600 546 618 843 1044 1051 983 877 746 657 711 554 374 142 136 7 0 0 0 0 0 0 0 0
0 0 1 0 0 0 0 0 0 0 0 0 0 0 177 252 179 31 0 0 0 160 601 627 621 762 1022 559 568 833 972 931 798 795 588 434 692 426 213 38 47 9 0 0 0 0 0 0 0
0 0 0 0 0 0 0 0 0 0 0 0 0 47 461 357 285 93 0 0 1 388 475 1119 936 933 442 88 484 980 626 818 911 832 889 951 731 559 219 283 192 181 125 65 0 0 0 0 0
0 0 0 0 0 0 0 0 0 0 0 0 0 0 415 473 363 141 0 0 39 430 562 1260 1502 1215 842 434 479 544 570 614 1203 1169 900 921 765 1075 775 717 365 294 160 231 2 0 0 0 0
0 0 0 0 0 0 0 0 0 0 0 0 0 0 310 255 182 146 69 1 83 365 436 1424 1402 1438 908 886 389 661 570 536 607 723 887 990 797 760 372 204 12 4 9 18 29 0 0 0 0
0 0 0 0 0 0 0 0 0 0 0 0 0 0 180 296 304 268 235 190 131 446 503 1068 1372 1297 1512 798 1222 1157 894 866 602 696 693 606 483 589 377 144 53 34 12 6 12 0 0 0 0
0 0 0 0 0 0 0 0 0 0 0 0 0 0 21 293 404 350 324 266 283 349 786 1414 1506 1338 790 687 799 1239 944 670 771 291 86 212 278 352 264 113 109 57 36 33 7 0 2 0 0
0 0 0 0 0 0 0 0 0 0 0 0 0 0 0 68 141 196 207 324 415 146 282 1365 1547 746 402 527 733 753 88 21 102 92 84 81 133 168 261 173 151 164 179 112 70 93 51 58 3
0 0 0 0 0 0 0 0 0 0 0 0 0 0 0 12 42 153 254 213 131 390 214 419 1094 829 313 547 172 219 250 182 124 203 178 119 117 149 202 184 196 225 304 176 167 127 88 73 64
0 0 4 0 0 0 0 0 0 0 0 0 0 0 0 0 29 56 96 185 248 115 379 807 633 482 61 196 176 193 166 146 87 29 85 38 31 157 127 110 182 235 186 157 207 171 159 171 156
0 0 0 0 0 0 0 0 0 0 0 0 0 0 1 0 8 110 35 127 284 319 208 664 555 73 62 146 179 44 34 60 57 26 0 0 12 16 63 49 121 259 172 113 164 262 148 154 151
0 0 0 5 0 0 0 0 0 0 0 0 0 0 0 143 262 240 287 226 255 396 200 488 345 271 145 165 22 0 0 0 0 0 0 0 2 0 0 0 0 0 0 33 54 38 36 40 127
0 0 0 0 0 0 0 0 0 0 0 0 0 0 78 45 40 108 134 322 565 417 197 244 72 43 47 47 5 0 0 0 0 0 0 0 0 0 0 0 0 0 0 0 21 72 15 0 0
0 0 2 0 0 0 1 8 0 0 0 0 0 0 0 0 0 0 17 56 104 138 123 77 66 68 63 35 2 0 0 0 0 0 0 0 0 0 0 0 0 0 0 0 0 2 2 3 0
0 0 0 0 0 4 4 35 2 0 0 0 0 0 0 0 0 0 0 4 3 5 5 20 9 7 12 8 0 0 0 0 0 0 0 0 0 0 0 0 0 0 0 0 0 0 3 0 0
0 0 0 0 0 0 22 89 141 8 1 0 0 0 0 0 0 0 0 0 0 0 4 0 0 0 0 0 0 0 0 0 0 0 0 0 0 0 0 0 0 0 0 0 1 5 22 13 4
0 0 2 6 28 395 34 122 54 7 0 0 0 0 0 0 0 0 0 0 0 0 0 0 0 0 0 0 0 1 0 0 0 0 0 0 0 0 0 0 0 0 0 6 21 15 21 19 18
0 29 352 462 692 441 94 29 141 10 11 1 0 0 0 0 14 16 5 0 0 0 0 0 0 0 0 7 3 0 0 0 0 0 0 0 0 0 0 0 0 1 8 26 25 22 29 15 3
0 0 342 101 334 157 2 3 4 0 1 0 0 0 0 5 3 1 0 0 3 0 0 0 0 0 0 0 0 0 0 0 0 0 0 0 0 0 0 5 1 8 0 2 1 0 23 30 26
4 0 0 0 10 14 2 85 11 1 0 0 0 0 3 17 11 0 14 31 13 16 26 13 13 8 5 15 0 0 0 1 9 0 0 0 0 0 0 0 0 2 3 9 4 14 28 29 14
0 0 5 120 39 0 3 28 38 12 6 0 0 1 2 36 20 34 26 27 35 23 32 73 33 10 23 9 3 12 4 11 1 0 3 10 0 0 0 8 2 6 4 10 7 3 5 11 11
0 9 0 0 7 1 0 2 0 11 0 0 0 3 19 8 28 35 14 2 3 2 2 16 12 24 23 15 22 13 0 0 0 4 0 0 0 0 0 0 0 3 12 16 10 0 0 0 0
0 0 0 25 0 85 46 0 0 9 0 2 4 3 12 6 0 0 0 4 12 27 24 11 19 16 18 26 21 0 0 2 0 0 0 0 0 2 6 26 24 31 33 43 38 31 42 25 23

GFSSGP_con_mucape_003.txt.gz
CAPE
0 0 0 0 0 14 30 10 33 38 58 18 25 48 64 109 52 106 562 623 550 717 868 974 1007 1212 1510 1750 1739 1788 1707 1701 1654 1613 1697 1659 1436 1249 1101 1218 1504 1377 1235 1378 1326 1534 1788 1627 1511
0 0 0 0 0 3 30 0 6 0 0 35 20 3 27 80 132 354 523 594 759 857 1022 1070 1087 1285 1559 1608 1658 1735 1826 1842 1841 1876 1747 1466 1220 999 908 1044 1310 1019 930 1020 932 858 801 875 1097
0 0 0 0 0 0 9 18 5 0 6 3 42 0 5 46 137 394 786 1152 1219 1366 1450 1345 1237 1442 1631 1667 1719 1802 1839 1885 1855 1849 1300 1072 973 851 889 800 832 441 443 587 672 736 840 1002 1170
0 0 0 0 2 47 1 9 7 13 4 31 2 32 0 42 184 483 1279 1323 1356 1415 1596 1699 1649 1674 1654 1732 1741 1648 1609 1540 1638 1490 1040 1039 834 725 543 355 202 127 128 157 147 130 218 504 734
0 0 0 23 31 20 32 19 3 7 9 13 106 105 39 91 205 427 1048 1158 1288 1380 1537 1647 1697 1659 1715 1838 1744 1557 1467 1399 1379 1371 1316 911 605 427 324 221 104 49 45 32 17 0 5 49 242
0 0 5 0 0 4 14 1 15 7 0 105 131 114 110 117 90 176 532 831 1169 1326 1355 1434 1357 1270 1284 1353 1292 1188 1229 1285 1227 1166 1082 768 548 452 226 131 41 11 2 0 0 0 0 0 4
1 0 0 0 2 0 0 13 0 1 0 93 113 132 103 74 14 23 215 748 815 996 944 966 984 933 807 846 869 908 963 940 913 914 916 791 576 387 281 145 17 0 0 0 0 0 0 0 0
10 5 0 0 0 0 0 0 0 0 0 0 55 148 187 163 0 0 41 176 350 484 574 559 455 409 418 588 655 698 749 678 575 615 659 555 444 209 225 119 46 0 0 0 0 0 0 0 0
0 0 4 0 0 0 0 0 0 0 0 10 1 190 242 144 0 0 3 23 157 292 482 433 578 678 252 325 619 666 733 642 503 550 480 413 416 214 105 84 63 75 23 7 0 0 0 0 0
0 5 0 0 1 0 0 0 0 0 0 36 151 238 218 88 0 0 0 0 100 207 418 512 627 829 370 241 309 308 500 517 519 568 448 448 490 479 149 142 159 172 124 170 108 63 0 0 0
0 0 0 0 0 0 0 0 0 0 0 0 237 234 196 152 7 0 0 0 38 125 404 415 292 163 294 240 395 459 513 630 701 630 474 542 256 416 210 346 265 198 160 137 107 33 0 0 0
0 0 0 0 0 0 0 0 0 0 0 0 145 337 291 228 92 0 0 0 75 167 691 613 638 403 185 1 160 510 486 699 670 766 587 505 252 37 38 0 0 15 71 137 129 37 7 0 0
0 0 0 0 0 0 0 0 0 0 0 0 2 330 309 215 190 30 1 5 48 256 853 806 676 552 411 346 288 213 238 214 242 495 327 165 144 37 36 42 2 0 2 0 2 0 0 0 0
0 0 0 0 0 0 0 0 0 0 0 0 0 224 219 191 196 142 40 78 61 164 1003 905 735 868 577 198 477 478 296 178 325 99 50 88 30 104 68 45 41 19 44 49 10 0 0 4 0
0 0 0 0 0 0 0 0 0 0 0 0 0 30 125 262 299 276 145 102 66 157 897 688 689 729 412 260 310 672 172 1 10 5 0 11 33 48 38 48 45 36 82 126 65 51 43 24 17
0 0 0 0 0 0 0 0 0 0 0 0 0 0 0 287 281 287 189 109 92 456 1079 902 263 586 193 208 166 87 68 28 35 35 25 14 17 0 0 0 0 19 38 39 20 25 78 91 71
0 0 0 0 0 0 0 0 0 0 0 0 0 0 0 0 43 90 133 99 70 47 821 988 476 301 142 54 86 101 102 39 17 14 10 16 0 0 0 0 0 0 0 0 0 7 9 5 5
0 1 0 6 0 0 0 0 0 0 0 0 0 0 0 3 23 57 40 34 54 89 377 574 384 176 30 79 116 51 70 3 1 0 0 0 0 0 0 0 0 0 0 0 0 0 0 0 8
0 0 0 0 0 0 0 0 0 0 0 0 42 16 31 31 0 0 3 20 63 203 222 165 83 19 54 102 142 54 18 3 0 0 0 0 0 0 0 0 0 0 0 0 0 0 0 0 0
0 0 0 0 0 0 0 0 0 0 0 2 15 23 4 48 79 98 134 135 81 156 193 137 115 82 39 48 50 39 10 1 0 0 0 0 0 0 0 0 0 0 0 0 0 0 0 0 0
0 0 2 0 0 0 2 0 0 0 0 0 0 0 0 0 0 56 125 133 121 88 141 165 147 109 83 57 42 29 8 4 0 0 0 0 0 0 0 0 0 0 0 0 0 0 0 0 0
0 0 0 0 0 0 0 0 0 0 0 0 0 0 0 0 0 0 5 2 0 2 0 2 11 24 8 3 0 0 0 0 0 0 2 0 0 0 0 0 0 0 0 0 0 0 0 0 0
0 0 0 0 0 0 0 8 36 0 0 0 0 0 0 0 0 0 0 0 0 0 0 0 0 0 0 0 0 0 0 0 0 0 0 0 0 0 0 0 0 0 0 0 0 0 0 0 8
0 0 0 6 0 11 42 47 12 8 1 0 0 0 0 0 0 0 0 0 0 0 0 0 0 0 0 0 0 0 0 0 0 0 0 0 0 0 0 0 0 0 0 0 0 0 2 6 16
0 2 73 36 55 53 115 42 52 23 1 0 5 2 0 0 0 0 0 0 0 0 0 0 0 0 0 0 0 0 0 0 0 0 2 0 1 4 0 0 0 0 0 0 0 4 4 18 35
0 0 14 7 7 21 22 2 1 17 19 24 2 0 0 0 0 0 0 0 1 0 0 0 0 0 0 0 0 0 0 1 10 0 0 0 0 0 0 0 0 0 0 1 5 8 9 28 26
0 0 0 0 0 0 2 6 24 28 21 19 0 0 2 4 0 0 0 0 1 2 1 0 0 2 11 18 15 16 26 29 20 6 0 0 0 0 1 12 0 4 10 1 0 0 0 0 0
0 0 0 0 0 0 1 45 28 6 2 2 0 0 0 3 1 0 1 5 0 0 0 0 12 30 30 35 40 36 55 43 39 0 0 0 0 12 28 0 0 0 0 0 0 0 0 0 0
0 1 0 0 0 0 0 1 43 17 0 0 0 0 0 0 0 0 0 1 0 2 10 4 12 2 4 22 18 25 24 8 0 0 0 0 0 1 0 0 0 0 7 22 37 33 12 13 21
0 0 0 0 0 0 0 0 5 2 5 0 0 0 0 0 0 0 0 0 0 0 0 0 0 0 0 0 0 0 0 6 2 0 2 0 0 0 0 0 0 0 0 0 0 5 14 1 3

GFSSGP_con_mucape_006.txt.gz
CAPE
0 0 0 0 0 1 11 43 54 33 29 69 78 78 103 94 102 148 401 358 587 690 674 744 963 1322 1456 1454 1433 1421 1462 1419 1303 1229 1170 1025 861 684 728 842 968 833 750 649 695 721 677 804 951
0 0 0 0 0 0 13 75 36 22 2 15 38 67 143 319 472 527 405 484 639 696 711 750 1095 1349 1483 1534 1606 1548 1543 1459 1458 1249 1104 932 712 670 649 610 829 504 422 437 552 657 668 705 797
0 0 0 0 0 0 42 62 27 0 0 8 60 44 87 407 467 518 461 631 752 782 813 938 1111 1255 1380 1458 1583 1613 1644 1615 1455 1219 964 781 666 570 387 322 313 173 180 168 171 202 275 425 538
0 0 0 0 0 2 0 23 42 8 2 12 30 54 166 349 634 797 1012 1097 972 1085 1003 1115 1258 1314 1434 1505 1470 1463 1421 1362 1178 1038 890 678 540 354 220 122 54 36 26 39 26 17 18 61 147
0 0 0 36 36 31 37 44 31 0 60 13 0 38 102 541 1191 1181 1146 1004 1191 1249 1200 1419 1329 1398 1480 1529 1409 1298 1250 1190 1219 1206 944 533 384 243 126 66 18 3 0 3 0 0 0 0 2
0 0 0 54 9 6 6 2 0 90 61 16 46 146 238 973 1128 1152 1125 1145 1440 2009 1951 1531 1501 1452 1434 1373 1183 1031 991 1051 1104 1073 889 489 332 275 112 35 3 0 0 0 0 0 0 0 0
0 0 0 7 1 0 0 1 0 76 128 99 98 130 86 637 1064 751 1035 1210 1331 1460 1392 1257 1130 1067 975 868 771 816 939 882 924 934 769 570 333 303 160 58 0 0 0 0 0 0 0 0 0
0 1 1 12 1 0 0 0 9 68 128 111 155 95 59 109 500 597 832 887 967 935 924 833 723 603 597 620 659 637 572 518 581 617 461 277 161 130 153 77 35 4 0 0 0 0 0 0 0
0 1 0 2 9 12 3 7 1 4 136 105 61 116 71 58 242 449 409 494 477 483 451 384 289 240 343 413 487 613 575 424 371 428 401 235 154 8 15 72 20 99 21 24 35 50 8 0 0
0 0 0 0 0 0 0 2 0 0 31 137 202 182 143 10 13 99 250 296 372 386 315 443 308 96 158 308 420 250 339 236 247 284 370 348 320 299 134 118 182 165 106 137 185 165 125 49 0
0 0 0 0 0 0 0 0 0 0 35 194 235 219 156 29 0 44 133 283 355 492 520 579 540 273 44 135 59 165 267 356 400 556 517 498 530 319 386 210 180 155 80 83 85 68 34 9 0
0 0 0 0 0 0 0 0 0 0 0 175 234 209 135 82 0 0 0 96 296 527 557 621 722 480 284 151 146 198 418 549 632 628 442 324 201 6 9 0 8 0 0 4 48 55 35 0 0
0 0 0 0 0 0 0 0 0 0 0 194 213 208 167 57 0 0 0 0 182 485 433 380 288 310 220 101 359 461 498 710 768 754 498 145 72 7 9 6 1 0 0 5 8 9 1 0 0
0 0 0 0 0 0 0 0 0 0 0 213 235 266 228 172 91 20 22 9 113 588 598 573 333 378 252 293 254 304 261 217 492 476 183 35 15 74 46 15 4 0 11 13 6 1 0 0 0
0 0 0 0 0 0 0 0 0 0 0 277 341 368 287 206 191 162 79 64 63 662 785 664 787 678 179 418 458 274 137 58 167 130 42 33 24 56 40 1 0 0 0 0 0 0 0 0 0
0 0 0 3 0 0 0 0 0 0 0 0 321 385 315 263 308 357 231 126 93 823 992 760 563 407 216 194 353 579 56 24 31 45 36 47 36 54 18 10 0 0 0 0 0 0 0 0 0
2 1 1 0 0 0 0 0 0 0 0 0 0 4 156 273 371 443 360 183 614 992 1070 777 521 360 208 132 111 101 107 88 62 31 16 23 45 18 10 8 6 0 0 0 0 0 0 0 0
0 0 0 0 0 0 0 0 0 0 0 0 0 0 0 0 297 400 326 252 794 1033 998 828 561 311 152 149 101 111 126 41 15 6 0 1 2 6 0 0 0 0 0 0 0 0 0 0 0
0 0 0 0 0 0 0 0 0 0 0 0 0 0 0 46 131 192 154 138 353 978 856 332 299 209 87 46 86 101 34 26 16 9 9 3 3 1 0 0 0 0 0 0 0 0 0 0 0
2 3 0 0 1 0 0 0 0 1 0 0 0 7 27 43 134 141 105 113 263 232 149 76 28 18 19 43 44 42 40 34 31 8 7 0 0 0 0 0 0 0 0 0 0 0 0 0 0
0 0 0 0 5 0 0 0 0 0 0 0 0 5 64 100 96 116 75 83 123 130 63 23 18 38 54 49 49 46 44 22 6 0 0 0 0 0 0 0 0 0 0 0 0 0 0 0 0
0 2 0 0 5 0 0 0 0 0 0 0 0 0 12 22 21 14 13 9 0 0 0 0 0 0 0 0 0 0 0 0 0 0 0 0 0 0 0 0 0 0 0 0 0 0 0 0 0
0 0 0 0 0 0 0 0 0 0 0 0 0 0 0 0 0 0 0 0 0 0 0 0 0 0 0 0 0 0 0 0 0 0 0 0 0 0 0 2 6 4 0 0 0 0 0 0 1
0 0 3 2 1 3 4 7 0 0 2 3 1 0 0 0 0 0 0 0 0 0 0 0 0 0 0 0 0 0 0 0 0 0 0 0 2 1 0 0 0 0 0 0 0 0 0 0 4
0 10 11 20 48 28 32 20 8 4 5 7 10 0 0 0 0 0 0 0 0 0 0 0 0 0 0 0 0 0 0 0 0 7 20 0 1 4 0 0 0 0 0 0 0 0 0 4 3
0 0 12 27 29 25 1 0 1 6 10 8 0 0 0 0 0 0 0 0 0 0 0 0 0 3 4 0 4 3 11 26 15 18 29 0 8 0 0 0 3 4 0 0 0 0 0 0 0
0 0 0 0 0 0 0 0 0 0 0 0 2 2 0 0 0 0 0 0 0 0 0 1 14 10 0 0 2 8 11 18 21 6 0 0 0 0 1 6 18 0 0 0 0 0 0 0 0
0 0 0 0 0 0 0 0 0 0 4 1 0 0 0 0 0 0 0 3 0 0 12 32 26 18 2 0 0 0 0 0 0 0 0 0 1 5 21 14 0 0 0 0 0 0 0 0 0
0 0 0 0 0 0 0 0 0 0 0 0 0 0 0 0 0 1 8 1 1 8 5 0 0 0 1 0 0 0 0 7 7 0 2 11 6 0 33 17 7 0 0 0 0 0 0 10 0
0 0 0 0 0 0 0 0 0 20 11 8 1 2 3 0 6 5 6 2 5 6 0 0 0 0 0 0 0 0 13 35 16 13 16 20 28 24 8 0 0 0 0 0 0 0 0 0 0

GFSSGP_con_mucape_009.txt.gz
CAPE
0 0 0 0 0 0 0 12 6 13 17 22 41 90 134 177 98 104 375 357 585 555 597 731 996 1135 1126 1229 1234 1216 1231 1014 1004 971 897 756 617 615 622 556 452 268 255 266 335 383 384 364 438
0 0 0 0 0 0 21 25 51 75 30 27 34 137 281 423 494 454 381 651 557 553 597 853 1105 1281 1331 1319 1368 1384 1202 1137 1097 1005 898 688 610 487 415 347 454 218 181 137 106 115 136 177 269
0 0 0 0 0 0 0 75 60 64 49 20 22 26 186 533 617 447 442 664 640 569 688 1064 1132 1276 1436 1473 1517 1456 1461 1411 1241 1054 812 651 520 330 198 157 170 84 56 30 18 5 5 12 23
0 0 0 0 0 0 30 55 42 34 32 26 15 120 336 451 529 486 602 713 646 717 895 974 1036 1199 1432 1508 1504 1467 1394 1101 1024 1007 686 588 414 236 103 58 21 8 3 0 0 0 0 0 0
0 0 0 0 30 21 3 9 31 46 71 60 45 204 362 988 581 779 973 807 848 819 941 981 1045 1176 1311 1403 1331 1316 1129 981 1027 915 701 517 368 192 68 20 4 0 0 0 0 0 0 0 0
0 0 0 0 0 35 46 45 64 126 83 90 178 339 505 945 1076 1084 929 788 904 1089 1243 1132 1133 1132 1191 1246 1092 1006 939 989 1027 937 679 459 342 239 81 8 0 0 0 0 0 0 0 0 0
0 0 24 64 23 50 28 36 138 122 123 172 227 308 880 1053 1098 1130 901 1458 1821 2019 1917 1294 1262 1214 1120 944 763 653 705 800 843 806 699 528 359 203 141 27 0 0 0 0 0 0 0 0 0
0 0 10 12 37 32 2 0 171 158 230 133 175 214 905 1167 1095 1184 1448 1610 1612 1582 1586 1370 1218 1125 862 661 570 562 546 533 642 621 420 184 95 87 97 32 18 14 0 0 1 0 0 0 0
0 1 20 13 18 0 0 0 141 195 150 155 122 161 743 1206 849 871 1126 1187 1208 1129 1002 889 750 587 448 397 424 513 502 411 408 396 281 117 24 11 18 73 57 90 70 40 83 110 111 52 22
0 0 5 16 2 2 0 0 109 208 184 102 72 178 911 356 519 556 542 577 652 609 612 463 349 268 228 320 367 208 229 159 155 205 204 185 205 196 123 97 154 246 228 255 242 280 230 202 27
0 0 0 0 2 0 0 0 0 59 89 119 72 145 367 398 369 124 91 131 116 142 195 139 80 75 120 182 176 88 158 143 198 330 336 355 361 318 226 269 110 82 80 37 54 72 68 47 14
0 0 0 25 13 0 0 0 0 0 78 159 134 135 264 308 176 129 97 146 176 183 272 260 167 39 7 98 48 87 142 292 316 459 525 425 300 53 11 0 0 0 0 0 0 0 0 0 0
0 0 0 3 13 0 0 0 0 0 5 205 140 165 96 48 18 69 228 273 374 390 427 469 419 169 115 101 182 254 296 479 535 530 491 367 107 6 0 0 0 0 0 0 0 0 0 0 0
0 0 0 0 0 0 0 0 0 0 188 180 166 168 110 32 7 7 173 357 440 482 564 560 627 473 335 263 247 307 406 548 707 657 544 347 38 33 0 0 0 0 0 0 0 0 0 0 0
0 0 0 0 0 0 0 0 0 0 221 213 180 185 155 40 73 68 54 128 457 500 648 506 552 329 303 338 341 344 475 367 675 696 529 51 4 14 9 9 0 0 0 0 0 0 0 0 0
0 0 0 0 0 0 0 0 0 0 209 245 255 246 239 151 186 236 210 60 131 545 630 581 335 199 123 382 385 320 143 47 199 226 91 13 14 32 33 25 0 0 0 0 0 0 0 0 0
0 0 4 0 0 0 0 0 0 0 86 193 285 323 355 306 285 280 226 130 162 614 703 413 263 95 47 136 347 390 42 21 14 24 29 29 28 35 16 0 1 0 0 0 0 0 0 0 0
1 6 3 0 0 0 0 0 0 0 0 0 27 185 351 405 400 335 318 360 589 699 794 433 163 151 114 94 115 64 70 57 43 44 48 44 14 22 19 2 7 0 0 0 0 0 0 0 0
0 0 0 0 0 0 0 0 0 0 0 0 0 0 0 9 103 381 451 652 716 776 943 564 252 105 100 102 117 122 115 27 44 37 47 50 46 0 0 0 0 0 0 0 0 0 0 0 0
0 0 4 0 0 0 0 0 0 0 0 0 0 0 16 54 150 311 353 746 932 771 445 171 136 88 74 133 105 72 33 31 23 30 19 5 0 0 0 0 0 0 0 0 0 0 0 0 0
0 0 0 0 0 0 0 0 0 0 0 0 9 31 51 69 110 98 134 167 158 104 26 19 10 78 104 70 12 0 0 0 0 0 0 0 0 0 0 0 0 0 0 0 0 0 0 0 0
0 0 0 0 0 0 0 0 0 0 0 2 14 44 59 28 0 3 1 2 6 0 0 0 0 0 0 0 0 0 0 0 0 0 0 0 0 0 0 0 0 0 0 0 0 0 0 0 0
0 0 0 0 0 0 0 0 0 0 0 0 1 2 0 0 0 0 0 0 0 0 0 0 0 0 0 0 0 0 0 0 0 0 0 0 0 0 0 0 1 0 0 0 0 0 0 0 0
0 0 1 2 2 0 0 0 0 0 0 4 14 1 0 0 0 0 0 0 0 0 0 0 0 0 0 0 0 0 0 0 0 0 0 1 1 0 0 5 7 0 0 0 0 0 0 0 0
0 5 8 14 26 19 19 0 0 0 0 1 4 0 5 23 0 0 5 0 0 0 0 0 0 0 0 0 0 0 0 0 0 0 5 12 7 1 4 0 0 0 0 0 0 0 0 0 0
0 0 10 3 13 0 0 0 0 0 0 0 0 0 3 11 6 1 0 0 0 0 0 0 0 0 0 0 0 0 0 0 1 10 5 0 0 0 0 0 3 2 0 7 0 0 0 0 0
0 0 0 0 0 0 0 0 0 0 0 0 0 1 23 5 0 0 0 0 0 0 0 0 0 0 0 0 0 0 0 0 0 0 0 0 0 0 6 12 9 22 0 0 0 0 0 0 0
0 0 0 0 0 0 0 0 0 0 0 0 0 7 1 0 0 0 0 0 0 1 0 2 10 2 0 0 0 0 0 0 0 0 0 0 2 24 42 40 21 28 0 0 0 0 0 0 0
0 0 0 0 0 0 0 0 0 0 0 0 0 0 0 0 2 2 3 10 2 0 2 2 0 0 0 0 0 0 0 0 0 0 0 0 15 17 39 31 11 2 4 0 0 0 0 0 0
0 0 0 0 0 0 0 0 0 0 0 0 0 0 0 0 8 19 21 12 0 0 0 0 0 0 0 0 0 0 0 0 0 0 0 4 14 21 27 5 4 0 0 0 0 0 0 0 0

GFSSGP_con_mucape_012.txt.gz
CAPE
0 0 0 0 0 0 0 0 30 39 95 99 93 102 136 231 119 90 396 459 553 649 745 718 845 1071 1172 1076 975 1161 1097 905 861 842 688 518 459 392 320 238 433 189 97 102 97 108 126 171 210
0 0 0 0 0 0 0 48 118 103 75 70 64 47 130 205 397 367 472 760 582 633 702 779 919 1101 1191 1114 1173 1259 1157 1005 914 834 625 507 391 258 148 183 334 73 26 15 4 3 0 4 5
0 0 0 0 0 0 0 83 125 57 70 66 60 0 32 320 455 367 624 627 568 606 827 980 1015 1095 1227 1280 1314 1304 1323 1251 1055 840 613 484 279 130 70 64 127 4 0 0 0 0 0 0 0
0 0 0 0 0 0 0 101 35 1 26 26 19 32 44 213 432 511 831 648 571 741 881 1036 1056 1180 1380 1458 1456 1390 1285 1131 1056 853 585 422 242 68 23 6 0 0 0 0 0 0 0 0 0
0 0 0 0 0 0 0 55 72 27 44 10 3 28 46 677 602 744 709 627 612 811 893 1011 1096 1215 1367 1487 1433 1323 1054 914 968 844 701 398 241 69 4 0 0 0 0 0 0 0 0 0 0
0 0 0 9 16 1 23 73 91 119 95 28 62 193 382 875 805 928 844 765 696 883 872 911 978 1036 1120 1263 1221 1020 893 902 892 795 656 402 296 152 0 0 0 0 0 0 0 0 0 0 0
0 0 0 12 37 40 63 125 135 74 71 114 214 349 730 737 895 992 930 947 1065 1054 1076 928 944 946 985 967 881 788 781 816 793 716 629 499 285 127 34 23 10 0 0 17 18 47 33 2 6
0 0 0 34 78 33 33 72 91 37 51 237 223 415 651 936 1028 922 955 1432 1701 1688 1664 1822 1437 961 938 790 632 496 533 598 636 615 455 170 98 13 8 0 11 78 23 32 107 93 126 103 77
0 0 0 32 51 21 0 17 154 135 160 146 126 415 637 1015 1723 994 1517 1488 1434 1609 1551 1800 1459 1164 891 545 436 528 530 487 466 438 323 103 0 0 0 23 71 138 160 191 205 242 235 184 47
0 0 11 53 32 30 4 0 111 201 150 142 124 656 1026 1850 1781 1476 1218 852 1061 1068 1379 1269 1033 803 465 329 356 240 178 178 197 192 218 119 94 86 92 78 67 102 182 231 246 262 235 97 1
0 0 0 0 17 17 12 30 162 217 191 113 388 991 1313 1205 1048 648 524 499 565 675 738 750 542 309 186 247 196 26 94 62 172 249 230 225 245 241 173 154 25 0 0 0 0 0 0 0 0
0 0 0 0 11 5 1 38 126 191 58 132 587 1310 1301 619 400 300 235 236 261 367 419 377 230 95 51 79 74 0 65 83 226 382 365 381 321 142 11 0 0 0 0 0 0 0 0 0 0
0 0 0 2 10 19 3 5 14 18 93 144 538 1210 364 264 232 70 21 22 41 128 186 132 33 0 0 2 30 57 130 268 327 444 491 333 196 17 0 0 0 0 0 0 0 0 0 0 0
0 0 0 17 31 2 0 0 0 0 101 155 362 496 247 278 229 45 20 25 61 141 202 246 75 6 0 35 111 177 303 428 533 584 547 420 164 83 7 9 14 0 0 0 0 0 0 0 0
0 0 0 0 0 0 0 0 0 0 246 189 219 307 247 255 141 108 93 181 236 307 361 427 369 335 161 246 231 238 336 560 664 719 643 402 45 25 34 25 28 15 0 0 0 0 0 0 0
0 0 0 0 0 0 0 0 0 60 269 232 186 210 181 165 126 188 221 164 303 384 504 559 493 449 96 39 256 280 397 282 239 401 167 56 30 24 37 40 38 7 0 0 0 0 0 0 0
0 0 0 0 0 0 0 0 0 41 278 256 231 217 203 213 118 181 282 223 106 367 523 569 330 87 37 13 187 144 151 49 44 96 46 46 28 32 24 13 3 0 0 0 0 0 0 0 0
0 0 0 0 0 0 0 0 0 0 240 270 277 269 290 324 247 208 175 126 130 368 539 522 282 119 126 53 108 109 91 41 37 42 36 20 28 22 3 1 0 0 0 0 0 0 0 0 0
0 0 0 0 0 0 0 0 0 0 0 22 200 359 375 436 444 371 299 236 222 440 606 304 178 169 80 64 69 52 44 37 13 0 0 17 2 5 0 0 0 0 0 0 0 0 0 0 0
0 0 0 0 0 0 0 0 0 0 0 0 0 5 19 47 113 224 557 623 600 430 246 69 64 37 32 36 53 1 0 0 0 0 0 0 0 0 0 0 0 0 0 0 0 0 0 0 0
0 0 0 3 0 0 0 0 0 0 0 2 28 18 40 73 153 362 375 235 118 72 29 9 0 0 5 0 0 0 0 0 0 0 0 0 0 0 0 0 0 0 0 0 0 0 0 0 0
0 0 0 0 1 0 0 0 0 0 0 8 15 26 33 1 1 8 2 0 0 0 0 0 0 0 0 0 0 0 0 0 0 0 0 0 0 0 0 0 0 0 0 0 0 0 0 0 0
0 0 0 0 0 1 0 0 0 0 0 0 0 11 11 0 0 2 0 0 0 0 0 0 0 0 0 0 0 0 0 0 0 0 0 0 0 0 0 0 1 0 0 0 0 0 0 0 0
0 0 0 0 0 0 0 0 0 0 0 0 0 2 0 0 0 0 0 0 0 0 0 0 0 0 0 0 0 0 0 0 0 0 0 0 0 0 0 0 0 0 0 0 0 2 0 0 0
0 0 0 0 0 0 0 0 0 0 0 0 0 0 0 0 0 0 2 13 0 0 0 0 0 0 0 0 0 0 0 0 0 0 0 0 0 0 0 0 0 0 0 8 5 2 0 0 0
0 0 0 0 0 0 0 0 0 0 0 0 0 0 0 0 0 11 5 1 0 0 0 0 0 0 0 0 0 0 0 0 0 0 0 0 0 0 0 0 0 0 0 1 6 6 0 0 0
0 0 0 0 0 0 0 0 0 0 0 0 0 0 0 1 0 5 0 0 0 0 0 0 0 2 0 0 0 0 0 0 0 0 0 0 0 0 0 4 8 5 4 9 9 2 0 0 0
0 0 0 0 0 0 0 0 0 0 0 0 0 0 0 0 0 0 0 0 1 0 2 0 0 0 0 0 0 0 0 0 0 0 0 0 0 0 0 10 17 22 7 0 0 0 0 0 0
0 0 0 0 0 0 0 0 0 0 0 0 0 0 0 1 1 0 1 7 15 15 14 8 8 1 0 0 0 0 0 0 0 0 0 0 0 1 8 18 12 0 2 0 0 0 0 0 0
0 0 0 0 0 0 0 0 0 0 0 0 0 0 0 1 1 1 10 25 29 24 9 2 1 0 0 0 0 0 0 0 0 0 0 0 0 0 8 13 3 5 4 0 0 0 0 0 0

GFSSGP_con_mucape_015.txt.gz
CAPE
0 0 0 0 0 0 0 0 4 122 117 70 146 192 162 140 108 170 443 525 808 965 1006 719 678 1041 912 886 1036 1138 1091 784 706 588 445 404 321 233 179 265 358 214 27 14 0 0 0 0 0
0 0 0 0 0 0 0 4 121 83 88 68 98 122 119 81 242 592 588 802 964 1046 1015 712 722 1043 1024 1003 1221 1251 1068 876 782 575 449 334 215 148 141 120 252 100 0 0 0 0 0 0 0
0 0 0 0 0 0 0 151 68 56 64 41 6 75 97 77 467 506 694 910 873 1071 989 811 830 1027 1112 1237 1353 1337 1272 1160 981 706 456 276 108 59 45 71 114 1 0 0 0 0 0 0 0
0 0 0 0 0 0 16 117 105 66 33 1 16 29 67 109 490 571 1047 982 942 917 952 755 845 1069 1287 1415 1499 1414 1251 1108 946 781 523 274 80 15 2 24 15 0 0 0 0 0 0 0 0
0 0 0 0 0 0 0 154 91 69 9 5 2 37 171 650 848 1117 956 903 993 1030 1065 986 1005 1108 1421 1685 1573 1351 1123 1013 902 830 685 381 110 2 0 0 0 0 0 0 0 0 0 0 2
0 0 0 0 0 8 10 151 108 108 70 0 143 134 310 1055 1167 1075 952 917 962 1029 1333 1324 1107 1254 1442 1494 1297 971 885 915 802 772 654 356 188 75 7 0 0 0 0 0 0 0 0 0 0
0 0 0 0 16 48 82 157 146 178 121 69 174 296 714 1056 1211 1138 1047 1041 1012 1160 1174 1323 1438 1271 1136 1078 989 796 781 772 729 655 595 450 212 77 112 116 47 0 67 114 85 60 68 27 49
0 0 0 22 39 74 120 70 72 69 126 230 254 598 936 944 1311 1206 1240 1243 1306 1169 1237 1212 1215 1132 1198 1209 858 726 646 601 597 533 393 166 50 8 32 0 82 161 170 143 173 211 223 173 79
0 0 0 44 58 73 33 19 10 144 221 275 150 613 821 1219 1302 1102 1020 1084 1185 1502 1699 1057 802 1014 1079 979 744 533 538 492 466 443 215 48 85 125 112 44 70 178 170 260 311 288 258 197 21
0 1 0 79 92 45 13 6 43 222 269 164 665 1143 1257 1160 1088 1211 1413 1321 1086 1154 1211 1392 1543 1520 945 657 617 523 369 336 337 383 478 256 255 272 228 159 51 39 69 71 19 38 35 6 34
0 0 1 91 67 35 10 0 48 254 307 201 795 1455 1357 1795 1662 1388 1284 871 892 918 1208 1056 1152 913 692 547 517 297 259 234 313 463 467 450 461 484 407 395 104 52 0 0 0 7 2 0 0
0 0 0 48 19 69 18 13 108 290 188 187 1008 1252 1192 1649 1111 826 770 689 688 717 830 828 781 531 391 324 340 145 186 263 374 501 509 577 580 318 132 15 3 0 0 0 0 0 0 0 0
0 0 0 4 13 51 33 27 211 285 71 379 1064 1309 1469 1344 1234 805 557 431 491 554 639 641 374 239 177 165 174 154 281 385 474 599 660 511 335 102 26 2 0 0 1 0 0 0 0 0 0
0 0 0 0 45 45 38 38 3 153 205 771 1121 1288 1245 989 614 298 164 120 231 312 439 311 229 70 39 94 158 216 268 261 316 355 386 341 250 69 13 4 4 14 18 2 0 0 0 0 0
0 0 0 1 30 56 7 1 0 0 223 464 988 1002 1088 396 208 175 43 47 118 299 344 332 113 34 53 109 101 133 282 303 344 309 242 298 122 33 45 35 27 27 22 0 0 0 0 0 0
0 0 0 0 18 22 0 0 0 77 221 232 620 808 547 319 322 223 72 19 66 359 508 364 349 287 126 34 8 10 190 92 163 120 77 39 33 30 20 16 4 2 0 8 3 0 0 0 0
0 0 0 0 0 0 0 0 0 45 230 192 346 399 370 330 268 187 189 109 259 447 363 500 391 269 108 44 21 44 136 84 64 42 17 18 17 5 6 0 2 5 0 0 0 0 0 0 0
0 0 0 0 0 0 0 0 0 9 239 221 154 227 247 226 215 161 169 163 181 220 359 523 322 287 124 79 55 48 58 16 13 19 23 23 2 0 0 1 0 0 0 0 0 0 0 0 0
0 0 0 0 0 0 0 0 0 0 145 282 249 236 235 194 244 259 201 168 246 362 444 450 261 142 102 67 35 8 23 22 30 9 0 0 0 0 0 0 0 0 0 0 0 0 0 0 0
0 0 0 0 0 0 0 0 0 0 0 23 128 234 314 356 371 364 298 310 412 459 397 231 102 35 14 7 9 4 0 0 0 0 0 0 0 0 0 0 0 0 0 0 0 0 0 0 0
1 0 0 0 0 0 0 0 0 0 0 0 2 5 4 43 312 508 314 100 6 18 27 0 0 0 0 0 0 0 0 0 0 0 0 0 0 0 0 0 0 0 0 0 0 0 0 0 0
4 1 0 1 2 12 0 1 0 1 19 78 63 90 140 276 176 17 0 0 0 0 0 0 0 0 0 0 0 0 0 0 0 0 0 0 0 0 0 0 0 0 0 0 0 0 0 0 0
0 0 0 0 0 0 0 2 0 12 43 45 37 36 0 0 0 0 0 0 0 0 0 0 0 0 0 0 0 0 0 0 0 0 0 0 0 0 0 0 0 0 0 0 0 0 0 0 4
0 0 0 0 0 0 0 0 0 0 0 3 0 0 0 0 5 5 0 0 0 0 0 0 0 0 0 0 0 0 0 0 0 0 0 0 0 0 0 0 0 0 0 0 8 4 1 0 0
0 0 0 4 10 0 0 0 0 0 0 0 0 0 0 5 4 6 2 3 0 0 0 0 0 0 0 0 0 0 0 0 0 0 0 0 0 0 0 0 0 0 0 6 5 1 0 0 0
0 0 5 0 0 0 0 0 0 0 0 0 0 0 0 0 0 2 4 7 0 0 0 0 0 0 0 0 0 0 0 0 0 0 0 0 0 0 0 0 0 0 9 9 0 0 0 0 0
0 0 0 0 0 0 0 0 0 0 0 0 0 0 0 0 0 1 0 0 0 0 0 0 0 0 0 0 0 0 0 0 0 0 0 0 0 0 0 0 0 11 16 0 0 0 2 1 7
0 0 0 0 0 0 0 0 0 0 0 0 0 0 0 0 0 0 0 0 0 0 1 8 0 3 6 3 0 0 0 0 0 0 0 0 0 0 0 0 12 17 19 0 0 2 3 4 0
0 0 0 0 0 0 0 0 0 0 0 0 0 0 0 0 0 0 0 0 2 5 9 17 2 3 8 0 0 0 0 0 0 0 0 0 0 0 0 7 12 15 16 7 4 2 0 0 0
0 0 0 0 0 0 0 0 0 0 0 0 0 0 0 0 0 1 4 5 11 14 24 22 13 7 0 0 0 0 0 0 0 0 0 0 0 0 0 0 6 10 28 3 0 0 0 0 0

GFSSGP_con_mucape_018.txt.gz
CAPE
0 0 0 0 0 0 0 0 13 543 444 421 477 354 256 205 387 348 628 699 924 852 731 521 818 858 836 925 1052 1110 1010 710 553 420 382 270 201 200 167 299 269 26 0 0 0 0 0 0 0
0 0 0 0 0 0 2 0 54 500 249 156 172 78 130 33 246 686 657 878 898 1011 773 634 755 888 981 1143 1197 1230 1051 794 549 401 317 180 170 131 88 57 121 6 0 0 0 0 0 0 0
0 0 0 0 0 0 6 159 284 335 101 134 170 102 99 79 117 642 864 1177 1082 995 1032 962 808 927 1128 1087 1138 1199 1301 1100 796 603 308 141 103 56 22 10 36 0 0 0 0 0 0 0 0
0 0 0 0 0 0 50 349 319 251 146 22 54 38 36 45 20 293 966 1019 888 1118 1107 659 741 878 1044 1235 1282 1491 1309 1014 839 700 419 113 42 7 0 0 18 0 0 0 0 0 0 0 0
0 0 0 0 0 0 77 599 400 153 92 54 62 74 0 86 358 726 765 441 469 967 1173 949 770 711 923 1025 1663 1410 1147 947 875 781 587 222 4 0 0 0 0 1 0 0 0 0 0 0 0
0 0 0 1 4 2 0 605 464 80 10 65 68 199 650 1132 915 1066 693 536 740 1108 1272 1085 683 730 961 1602 1318 1018 944 898 869 699 522 175 23 25 0 0 0 0 0 0 0 0 0 10 5
0 0 0 3 101 110 89 540 500 101 21 140 273 414 1186 1272 1131 899 873 1054 1194 1369 1357 1129 889 954 1252 1146 886 738 812 772 739 683 592 359 181 210 129 50 0 0 12 15 46 62 111 124 58
0 0 0 37 277 333 314 241 51 39 173 323 543 507 1093 1469 1529 1265 1134 1174 1345 1366 1377 1249 1340 1268 1232 1176 817 647 670 591 572 559 354 163 65 79 55 55 158 136 122 143 147 160 186 182 103
0 0 4 121 262 250 78 45 15 57 244 349 286 826 1185 1626 1392 1317 1197 1395 1298 1199 1229 1248 1015 1076 1054 931 921 539 545 520 424 362 164 63 153 215 142 52 110 165 158 186 133 146 143 97 112
0 0 0 94 280 301 83 19 7 279 410 363 1117 1462 1533 1650 1631 1549 1425 1347 1266 1052 1063 1154 1106 1140 1212 658 619 379 140 71 300 361 438 373 559 509 339 166 19 23 6 0 0 3 5 26 0
0 0 0 75 255 64 21 9 28 216 629 575 1209 1689 1538 1568 1552 1438 1250 1132 1403 1064 1262 1526 1274 1289 832 544 341 74 128 352 652 771 775 852 847 838 427 182 102 114 0 16 1 0 0 0 0
0 0 1 15 236 47 25 51 87 344 333 459 1204 1683 1761 1576 1468 1462 1348 841 669 912 871 1035 1159 1015 739 350 124 186 247 582 764 953 1113 1159 1027 795 378 108 137 135 57 6 0 0 0 0 0
0 0 0 21 11 129 65 68 221 342 269 971 1485 1563 1758 1459 1141 830 630 549 558 511 687 934 801 729 583 371 347 451 704 773 1066 1084 1191 1161 949 782 281 262 109 22 8 13 4 0 0 0 0
0 0 0 31 34 78 52 28 176 197 654 1364 1497 1471 1569 1438 995 592 464 395 430 413 768 864 585 486 364 533 663 814 852 760 834 983 913 394 420 654 434 166 14 24 40 31 12 0 0 0 0
0 0 0 0 57 82 27 2 0 61 483 1121 1081 1235 1413 1297 1022 508 271 170 188 410 774 810 693 522 643 359 73 16 15 185 264 270 219 135 39 51 21 22 26 34 35 11 0 0 0 0 0
0 0 0 1 3 66 19 6 0 26 407 955 1054 1220 1220 782 555 395 293 187 161 527 860 975 715 678 113 19 1 35 1 33 88 60 62 42 28 18 20 22 2 0 0 0 0 0 0 0 0
0 0 0 0 42 46 0 0 0 136 420 769 923 853 824 417 365 460 465 257 424 786 1135 1081 942 604 365 61 24 34 23 36 35 17 38 22 16 11 1 0 0 0 0 0 0 0 0 0 0
0 0 0 0 0 0 0 24 0 213 423 475 545 609 586 547 390 403 497 504 655 962 1212 1181 745 524 199 70 45 43 20 16 13 0 0 0 0 0 0 0 0 0 0 0 0 0 0 0 1
0 0 0 0 0 65 37 51 33 88 379 476 487 527 523 455 330 505 634 735 823 1001 1095 1009 549 393 275 129 41 0 3 8 0 0 0 0 0 0 0 0 0 0 0 0 0 0 0 0 1
0 0 20 0 2 114 133 181 91 31 175 393 531 512 498 401 500 565 802 876 948 1001 966 867 640 355 121 51 46 43 13 0 0 0 0 0 0 0 0 0 0 0 0 0 0 0 0 1 19
28 68 66 48 16 83 151 190 198 54 23 35 156 379 430 541 637 691 864 1127 1059 827 874 654 277 36 12 3 0 0 0 0 0 0 0 0 0 0 0 0 0 0 0 0 1 0 1 2 7
120 12 49 70 88 116 63 183 306 222 180 173 155 238 343 553 793 776 549 410 589 303 16 0 0 0 0 0 0 0 0 0 0 0 0 0 0 0 0 0 0 0 0 1 6 1 0 0 0
99 15 106 59 138 137 112 155 308 244 262 306 316 411 572 679 291 29 8 22 0 0 0 0 0 0 0 0 0 0 0 0 0 0 0 0 0 0 0 0 0 0 3 5 0 0 0 0 10
7 60 51 47 90 143 96 119 130 358 319 334 302 221 243 93 0 0 0 0 0 0 0 0 0 0 0 0 0 0 0 0 0 0 0 0 0 0 0 2 9 12 11 9 0 0 4 6 1
88 117 110 119 139 138 9 32 58 61 120 348 274 54 17 0 0 0 4 0 0 0 0 0 0 0 0 0 0 0 0 0 0 0 0 0 0 0 0 0 0 15 24 6 7 9 34 1 0
74 94 78 0 58 14 0 19 34 0 0 182 192 0 0 0 0 0 0 0 0 0 0 0 0 0 0 0 0 7 17 2 0 0 0 0 0 0 0 0 3 23 20 8 4 60 50 25 16
2 5 10 23 0 10 0 13 3 0 0 16 98 0 0 0 0 0 0 0 0 0 0 0 0 0 0 0 1 0 6 0 0 0 0 0 0 0 0 4 21 42 46 48 43 70 61 49 33
0 0 11 10 0 0 0 0 0 0 0 2 49 0 0 0 0 0 0 0 0 0 0 0 0 5 0 3 0 0 0 0 0 0 0 0 0 0 0 4 30 46 61 80 55 73 70 44 38
0 0 0 0 0 0 0 0 0 0 0 0 17 0 0 0 0 0 0 0 0 2 1 0 1 7 3 7 1 0 0 0 0 0 0 0 0 0 0 0 15 48 56 36 69 82 97 60 22
0 0 0 0 0 0 0 0 0 0 0 0 8 0 0 0 0 0 0 2 3 6 1 0 6 9 7 0 0 0 0 0 0 0 0 0 0 0 2 6 15 34 54 62 68 91 42 13 22

GFSSGP_con_mucape_021.txt.gz
CAPE
0 0 0 0 0 0 0 22 9 626 555 542 565 520 358 453 858 651 584 749 695 508 192 315 773 851 876 935 1051 1079 841 495 390 362 246 212 205 187 141 212 179 3 0 0 0 0 0 0 0
0 0 0 0 0 1 29 42 149 686 348 314 292 346 217 334 840 873 847 910 826 560 190 245 761 929 1062 1162 1253 1163 767 491 394 289 198 187 146 93 47 11 84 0 0 0 0 0 0 0 0
0 0 0 0 0 4 79 176 668 399 424 329 125 70 54 74 767 891 781 773 857 674 408 431 782 986 1182 1064 1165 1128 1046 742 649 421 165 146 41 6 0 0 65 0 0 0 0 0 0 0 0
0 0 0 0 4 18 2 477 410 279 367 166 118 31 51 58 308 800 1001 878 829 561 451 490 764 962 974 995 1286 1321 1005 809 685 543 176 26 0 0 0 3 27 0 0 0 0 0 0 0 0
0 0 0 1 8 13 122 373 178 221 260 103 137 16 0 5 47 622 1134 823 461 390 447 577 640 721 890 1163 1277 1231 932 872 764 567 316 53 0 0 0 13 15 0 0 0 0 0 0 0 0
0 0 0 29 50 11 0 317 351 217 68 54 166 171 256 212 223 497 831 264 68 243 512 627 663 606 686 937 1167 989 861 845 751 597 335 18 6 0 0 0 0 18 18 6 0 13 61 63 42
0 0 0 35 138 113 3 433 136 188 4 74 86 297 919 605 682 1010 189 66 10 88 702 812 620 585 737 877 715 707 742 740 706 621 435 155 136 117 64 43 38 34 48 70 98 122 152 169 97
0 0 0 19 169 284 238 501 314 108 3 276 334 492 629 1045 1243 778 121 332 156 47 880 1124 1076 918 1089 959 605 646 612 599 610 366 287 135 116 50 52 123 170 205 140 273 286 243 226 197 121
0 0 4 34 262 63 297 286 127 0 0 314 607 786 1059 1513 1425 1105 711 915 721 976 1124 1113 913 910 930 928 751 582 627 566 468 190 124 16 99 171 83 86 113 130 118 106 29 77 138 181 204
0 0 20 115 161 45 118 6 0 1 0 232 1001 1232 1581 1503 1361 1165 1280 1038 975 933 846 847 1042 890 843 545 546 207 35 5 261 238 144 323 324 468 242 139 106 63 0 31 0 33 130 110 0
0 14 6 38 183 309 77 11 17 63 42 362 871 1314 1521 1505 1349 1074 926 978 939 804 908 972 1148 1165 591 437 220 36 56 404 631 669 639 708 474 553 478 290 214 290 17 197 83 61 42 8 0
0 0 0 41 50 20 2 21 13 11 0 237 833 1460 1620 1315 1546 1419 1087 512 535 786 1037 990 971 1023 529 238 89 92 329 574 539 703 864 894 1042 718 409 266 258 265 178 113 88 89 22 0 0
0 0 0 50 67 0 3 21 19 14 98 452 1143 1679 1309 1310 966 603 388 412 415 477 691 800 756 593 450 238 419 632 588 1085 1160 1047 1277 1242 987 1056 1003 960 582 300 151 109 75 44 1 0 0
1 0 0 0 23 77 38 6 35 111 297 690 1154 1089 597 576 445 329 294 287 302 386 632 565 461 376 279 602 833 931 747 694 875 1012 861 663 747 284 116 398 534 141 112 50 28 1 0 0 0
0 0 0 0 17 76 54 0 3 168 384 562 608 570 553 416 290 220 167 223 270 411 635 589 566 470 785 827 192 20 24 63 335 562 498 243 215 376 456 213 117 38 7 1 0 0 0 0 0
0 0 2 0 39 41 51 19 21 153 319 361 413 508 596 648 404 209 157 133 244 499 891 820 566 827 639 174 14 2 5 16 115 136 110 49 69 34 24 25 4 1 0 0 0 0 0 0 0
0 0 6 1 29 56 42 14 30 158 240 405 538 772 803 623 495 439 324 223 252 725 1223 1221 983 905 451 237 28 7 15 26 5 5 0 1 0 0 1 0 0 0 0 0 0 0 0 1 1
1 3 16 30 28 55 1 13 8 177 242 470 598 750 834 598 578 650 607 408 404 788 1380 1428 1219 752 622 230 95 110 109 89 10 1 0 0 0 0 0 0 0 0 0 0 0 0 0 0 3
2 8 7 2 2 0 0 18 51 161 269 415 468 631 806 832 798 828 853 840 914 1319 1613 1207 940 792 461 613 598 423 19 5 1 0 0 0 0 0 0 0 0 0 0 0 1 5 3 0 0
1 1 25 0 0 57 8 69 46 120 238 372 421 477 588 753 812 924 1072 1151 1183 1342 1437 1198 940 810 787 670 345 102 144 14 0 0 0 0 0 0 0 0 0 0 0 0 0 0 0 0 1
11 6 35 76 77 84 109 127 187 169 259 401 529 565 588 742 902 1016 1180 1299 1427 1216 1066 953 851 769 437 256 66 27 0 0 0 0 0 0 0 0 0 0 0 0 0 0 0 2 6 1 1
72 75 51 123 129 82 57 99 101 281 227 233 386 594 746 774 930 1139 1297 1444 1356 1256 1190 838 501 212 45 2 0 0 12 40 0 0 0 0 0 0 0 0 0 0 0 0 2 1 8 5 8
112 114 186 157 140 22 151 116 54 372 346 289 317 364 522 699 985 1168 1184 939 766 392 258 100 5 0 0 0 0 0 0 0 0 0 0 0 0 0 0 0 0 2 3 4 12 21 20 20 38
99 192 192 189 111 160 87 87 302 436 364 389 447 551 753 1015 901 378 282 153 41 2 0 0 0 0 0 0 0 0 0 0 0 0 3 6 0 0 0 0 0 0 2 12 23 35 26 43 46
132 201 257 177 244 221 127 146 117 43 252 326 550 651 846 642 196 2 0 0 0 0 0 0 0 0 0 0 0 0 0 0 1 0 8 0 0 0 0 0 0 0 0 12 21 24 29 69 43
168 142 238 41 125 164 169 43 96 193 28 150 513 508 562 283 0 0 0 0 0 0 0 0 0 0 0 0 0 0 0 4 0 0 0 0 0 0 0 0 0 1 9 20 33 22 73 62 54
92 92 122 199 140 117 7 0 99 94 77 150 470 380 378 63 0 0 0 0 0 0 0 0 0 0 0 0 0 0 4 0 0 0 0 0 0 0 0 0 0 6 12 24 51 74 82 59 52
54 57 55 9 0 8 29 17 16 135 23 104 417 347 217 24 0 0 0 0 0 0 0 0 0 0 0 0 0 1 2 1 0 0 0 0 0 0 0 0 0 0 10 71 82 60 65 81 88
75 0 0 36 116 40 0 15 0 0 3 33 195 313 190 53 8 0 0 0 0 0 0 0 0 0 0 0 0 9 16 0 0 0 0 0 0 0 0 0 0 2 8 26 39 45 59 66 91
41 99 79 5 0 0 37 2 0 0 0 6 51 192 169 111 28 1 0 0 0 0 0 0 1 4 0 0 1 8 0 0 0 0 0 0 0 0 0 0 4 14 27 27 49 50 69 75 44

GFSSGP_con_mucape_024.txt.gz
CAPE
0 0 0 0 0 0 0 0 0 626 541 673 520 432 574 718 929 585 593 457 292 62 168 261 596 687 769 973 1014 829 643 498 302 288 386 366 302 241 242 161 73 19 0 0 0 0 0 0 0
0 0 0 0 0 0 0 66 852 484 641 447 544 375 397 522 825 810 703 512 283 83 107 223 656 806 1016 1062 1064 765 555 396 397 357 266 277 179 90 111 176 98 63 0 0 0 0 0 0 0
0 0 0 0 0 0 0 160 683 555 393 390 227 282 256 445 836 846 870 675 414 77 133 422 712 780 1009 1004 930 820 681 542 352 334 198 72 0 0 33 249 190 85 0 0 0 0 0 0 37
0 0 0 0 0 0 0 535 572 320 224 106 134 16 53 92 883 925 891 748 348 418 415 387 360 604 823 988 1007 829 682 518 368 302 237 41 0 55 85 283 230 32 0 0 0 0 0 132 112
0 0 0 0 0 0 0 560 413 38 60 170 96 25 0 63 988 905 895 759 506 192 145 350 385 500 792 1121 980 822 725 575 432 343 216 121 4 65 175 289 243 95 4 0 17 29 67 113 105
0 0 0 0 0 0 1 405 85 32 10 187 156 4 112 121 632 853 724 696 491 187 166 367 431 569 816 1041 825 706 644 554 472 327 203 161 168 223 247 236 219 203 178 150 76 149 189 166 92
0 0 0 0 0 8 318 468 338 70 30 280 151 213 318 271 761 855 312 128 198 99 166 291 373 602 647 624 544 534 530 519 539 390 285 296 299 250 269 303 293 268 278 267 269 258 267 260 177
0 0 0 0 0 141 396 326 123 93 27 172 182 278 288 1087 800 540 39 41 67 157 126 296 478 771 596 480 417 418 432 448 420 306 165 143 152 165 235 310 289 219 172 219 174 160 151 189 139
0 0 0 0 22 237 56 0 146 36 24 55 35 611 1261 1237 605 234 32 3 44 81 266 330 488 761 639 494 423 438 452 401 304 132 67 23 34 59 136 161 140 72 45 70 0 0 55 171 187
0 0 0 125 392 134 24 51 42 7 5 159 451 1422 1400 1281 518 625 363 26 44 70 349 487 653 748 709 417 251 130 71 57 43 0 90 249 596 173 88 164 112 148 42 66 25 66 111 156 0
0 0 0 109 106 23 63 16 22 36 8 2 83 941 1205 932 813 603 432 247 136 328 705 861 798 850 426 309 368 80 20 479 719 709 775 829 674 457 324 387 132 171 72 193 31 106 37 28 3
0 0 0 109 127 79 52 10 32 6 0 0 142 956 1016 947 986 840 591 709 843 733 882 844 846 990 455 224 166 205 416 733 699 859 936 1075 868 570 644 590 422 236 76 135 119 84 77 0 0
0 0 0 68 102 18 149 120 60 14 4 68 467 1000 868 946 924 521 271 592 626 768 863 840 874 680 483 502 678 835 872 1083 1111 1253 1224 1072 970 723 440 453 97 246 90 35 24 11 0 0 0
0 0 0 50 54 1 108 56 8 2 80 480 718 707 721 485 227 132 212 281 376 645 634 653 605 542 562 735 827 552 446 472 745 785 665 465 456 97 58 185 73 52 41 18 1 1 0 0 0
1 0 0 0 44 23 26 23 24 205 333 367 308 168 150 190 147 145 128 227 293 511 479 538 491 408 919 636 415 59 31 91 525 495 562 331 135 175 64 51 48 13 3 0 0 0 0 0 0
0 0 0 0 3 29 5 1 5 131 189 255 291 257 193 148 109 98 157 159 234 415 437 464 384 890 690 398 25 9 7 51 120 65 90 68 65 30 18 19 4 0 0 0 0 0 0 0 0
0 0 0 0 14 51 4 0 1 52 171 235 228 275 332 334 175 118 131 85 218 663 581 638 875 753 443 202 99 35 60 33 23 1 7 6 0 0 0 0 0 0 0 0 0 0 0 0 0
0 0 1 7 0 32 24 0 0 24 247 331 297 357 569 410 273 317 215 142 307 1051 1048 900 989 490 397 154 46 117 203 146 5 8 1 0 0 0 0 0 0 0 0 0 0 0 0 0 0
0 0 12 12 0 0 19 25 0 17 103 303 338 465 525 447 495 542 633 597 551 1311 1373 1187 742 498 485 229 190 267 178 14 3 0 0 0 0 0 0 0 0 0 0 0 0 0 0 0 0
1 11 4 0 0 0 2 7 3 13 85 239 291 480 618 528 627 844 871 1002 1199 1573 1483 931 772 615 498 458 398 187 5 1 0 0 0 0 0 0 0 0 0 0 0 0 0 0 0 0 0
0 23 9 2 0 0 10 0 4 1 34 103 230 288 470 581 846 922 1070 1192 1419 1450 1295 968 776 712 735 547 165 26 9 0 0 0 0 0 0 0 0 0 0 0 0 0 0 0 0 0 0
6 22 3 20 13 12 43 69 23 10 13 32 172 253 360 463 809 896 1088 1245 1245 1096 954 964 764 738 311 138 9 1 0 0 0 0 0 0 0 0 0 0 0 0 0 0 0 0 0 0 0
3 4 51 69 45 118 47 7 59 16 35 149 307 544 603 586 738 977 1136 1162 944 1109 1167 906 491 195 96 0 0 0 0 0 0 0 0 0 0 0 0 0 0 0 0 0 0 0 0 0 0
44 61 132 10 56 81 12 17 19 48 17 35 239 370 530 666 840 926 1212 953 784 659 462 171 79 8 0 0 0 0 0 0 0 0 0 0 0 0 0 0 0 0 0 0 0 6 7 5 3
0 10 138 77 92 335 89 98 105 70 24 32 165 352 435 698 871 919 752 515 237 90 42 6 0 0 0 0 0 0 0 0 0 0 10 4 0 0 0 0 0 0 0 0 2 0 0 5 2
103 8 275 0 0 237 76 108 100 134 118 152 442 526 838 884 663 304 225 72 1 0 0 0 0 0 0 0 0 0 0 0 0 9 22 15 0 0 0 0 0 0 0 0 4 0 4 3 8
22 63 37 124 404 221 6 0 5 58 29 33 558 600 762 553 201 27 0 0 0 0 0 0 0 0 0 0 0 0 0 0 1 14 19 0 0 0 0 0 0 0 0 1 4 14 18 33 27
0 0 140 41 9 0 3 0 76 94 6 21 391 493 573 433 91 0 0 0 0 0 0 0 0 0 0 0 0 0 0 0 11 21 0 0 0 0 0 0 0 0 0 0 3 30 22 16 16
62 9 0 0 373 465 239 16 0 0 0 22 138 507 469 353 44 0 0 0 0 0 0 0 0 0 0 0 0 3 7 5 15 1 0 0 0 0 0 0 0 0 0 7 11 9 17 15 17
1 105 1 675 50 469 349 10 0 0 0 0 8 144 366 294 79 0 0 0 0 0 0 0 0 0 0 0 4 7 11 9 16 0 0 0 0 0 0 0 0 0 2 6 7 6 13 15 9

GFSSGP_con_mucape_027.txt.gz
CAPE
0 0 0 0 0 0 0 0 61 366 707 619 604 771 943 1008 1056 540 679 608 195 435 601 598 614 864 962 942 829 674 446 322 308 326 322 219 160 143 121 73 35 36 0 0 0 0 0 0 0
0 0 0 0 0 0 0 0 623 710 662 557 486 567 813 1032 920 825 773 541 232 253 338 470 757 924 990 874 730 525 350 301 360 337 258 146 73 60 179 193 90 61 0 0 0 0 0 0 0
0 0 0 0 0 0 0 185 623 623 442 385 438 513 292 928 956 910 696 289 163 122 270 568 687 770 801 749 709 530 428 403 298 241 185 79 45 51 81 200 138 100 0 0 0 0 0 0 54
0 0 0 0 0 0 0 299 615 510 277 256 129 45 194 826 1085 808 617 526 458 216 320 339 336 402 622 926 747 561 396 311 248 204 171 106 87 102 125 271 219 29 5 0 0 0 0 64 74
0 0 0 0 0 1 65 582 668 433 244 102 55 26 39 1035 1022 630 402 346 307 269 187 123 196 390 927 918 762 584 400 301 247 214 211 256 127 98 171 314 223 81 26 22 27 44 125 129 117
0 0 0 0 0 31 370 431 371 232 118 175 58 63 154 1023 909 508 362 198 26 45 69 160 408 484 747 802 632 480 395 273 194 219 245 269 277 300 305 306 313 253 183 172 148 155 150 170 151
0 0 0 0 0 297 565 365 117 236 183 97 135 295 410 835 496 363 292 243 106 68 21 102 292 641 474 398 368 345 351 270 235 260 231 223 191 192 287 354 372 329 294 218 135 34 18 78 42
0 0 0 0 0 489 322 206 172 165 197 143 192 236 420 529 237 144 84 94 152 4 118 97 297 398 326 210 227 248 261 211 155 173 144 121 118 175 232 228 217 129 56 22 0 0 0 35 22
0 0 0 0 71 156 144 83 60 70 56 76 397 701 525 265 133 31 10 7 14 13 123 78 218 297 240 147 201 216 246 139 64 86 42 14 10 5 79 47 77 39 0 0 0 0 0 40 29
0 0 0 196 223 100 69 25 0 0 13 178 158 435 245 126 158 31 12 5 2 9 85 234 265 355 193 103 75 66 125 14 0 88 62 128 111 47 43 20 45 22 1 2 0 0 22 57 0
0 0 0 122 192 90 38 76 0 6 13 42 50 308 158 142 71 19 2 5 0 6 113 232 370 426 184 59 14 42 86 31 0 197 188 66 112 2 65 105 4 38 4 11 20 3 0 2 0
0 0 0 259 124 30 34 64 35 25 15 151 14 413 304 301 132 11 16 33 57 129 182 261 440 473 128 144 50 76 244 297 244 418 534 316 267 238 46 29 12 10 1 7 1 0 18 4 0
0 0 0 230 111 29 30 17 0 1 17 274 336 411 402 453 167 50 45 47 155 360 480 382 418 145 170 215 348 364 489 653 715 634 612 523 342 244 33 25 34 0 1 17 4 0 16 0 0
0 0 2 168 100 97 67 28 16 75 209 466 543 573 842 622 378 304 213 322 572 588 438 535 369 126 376 401 327 307 369 519 515 467 327 503 170 37 35 0 2 15 14 17 15 0 0 0 0
32 1 0 21 49 52 7 14 38 30 248 293 702 641 444 329 317 518 570 550 518 439 453 502 228 392 391 292 256 184 100 208 178 243 200 100 51 7 6 0 6 5 0 0 0 0 0 0 0
0 0 0 1 28 2 0 0 136 116 482 528 325 145 155 112 72 296 378 675 446 400 382 381 208 520 385 332 221 34 0 87 85 57 10 0 8 14 2 17 8 0 0 0 0 0 0 0 0
0 0 0 0 4 22 18 0 219 209 297 216 127 98 113 63 90 111 187 467 350 255 401 314 463 590 491 336 51 1 0 0 0 0 0 0 0 0 0 0 0 0 0 0 0 0 0 0 0
0 0 0 0 15 21 20 0 21 143 219 243 174 155 151 102 98 54 51 280 358 343 313 451 582 584 521 253 36 2 13 8 0 0 0 8 5 0 0 0 0 0 0 0 0 0 0 0 0
0 0 0 0 0 14 0 0 0 19 176 161 149 192 252 181 138 84 19 193 385 463 415 543 518 481 400 49 55 71 57 6 0 5 9 0 0 0 0 0 0 0 0 0 0 0 0 0 0
2 3 2 0 0 18 8 0 0 7 177 248 148 402 397 303 264 219 296 218 741 732 701 638 611 516 308 119 54 115 6 0 0 0 0 0 0 0 0 0 0 0 0 0 0 0 0 0 0
3 30 21 0 0 0 0 2 2 7 43 231 263 342 412 403 409 515 505 850 1131 895 917 702 694 583 342 144 154 143 0 0 0 0 0 0 0 0 0 0 0 0 0 0 0 0 0 0 0
0 0 11 1 1 0 9 17 49 13 22 38 246 395 475 457 572 623 666 695 1196 1159 1193 765 603 395 286 301 371 190 0 0 0 0 0 0 0 0 0 0 0 0 0 0 0 0 0 0 0
13 0 0 18 0 5 3 3 13 6 0 0 57 142 452 517 713 732 834 1007 1226 1162 896 722 387 384 508 566 132 2 5 0 0 0 0 0 0 2 2 0 0 0 0 0 0 0 0 0 0
39 0 15 28 1 5 0 0 6 0 2 1 1 139 316 424 763 844 970 1021 974 886 790 641 465 194 90 8 0 0 0 0 0 0 0 7 7 12 8 2 0 0 0 0 0 0 0 0 0
10 2 2 1 3 15 30 1 10 7 9 0 2 25 181 621 748 889 1021 1007 791 767 710 676 382 164 137 78 4 0 0 0 0 0 0 2 8 12 1 0 0 0 0 0 0 0 0 0 0
1 0 18 0 0 0 19 31 9 0 0 13 1 98 61 678 798 1012 972 862 764 634 353 338 232 139 101 2 0 0 0 0 0 0 1 3 14 5 0 0 0 0 0 0 0 0 0 0 0
13 8 30 1 0 4 38 8 29 29 12 25 61 165 533 779 837 846 874 876 850 566 299 207 119 46 0 0 0 0 0 0 4 6 4 18 10 1 0 0 0 0 0 0 0 0 1 12 14
9 9 17 4 0 0 0 2 42 18 23 229 285 403 755 740 681 685 702 569 402 88 1 0 0 0 0 0 0 3 8 12 14 9 14 17 3 0 0 0 0 0 0 0 0 0 0 1 2
3 5 4 0 0 2 28 1 3 0 6 141 393 622 702 685 583 383 155 34 7 0 0 0 0 0 0 0 0 1 3 3 8 4 8 13 1 0 0 0 0 0 0 0 0 0 0 2 0
22 39 40 0 0 0 0 0 0 0 0 0 24 525 613 536 429 250 55 0 0 0 0 0 0 0 0 0 0 4 0 3 23 30 36 1 0 0 0 0 0 0 0 0 0 0 0 0 0

GFSSGP_con_mucape_030.txt.gz
CAPE
0 0 0 0 0 0 0 0 0 44 618 764 882 980 1009 987 858 419 656 473 626 938 588 534 617 791 865 791 599 475 360 175 170 134 174 140 121 121 98 126 74 39 0 0 0 0 0 0 0
0 0 0 0 0 0 0 0 6 430 629 591 514 847 1004 1217 1073 730 719 553 641 734 514 446 631 789 844 701 513 385 217 153 198 122 111 94 134 122 171 160 162 145 7 0 0 0 0 0 0
0 0 0 0 0 0 0 53 789 694 645 476 509 508 859 1113 936 787 708 503 608 628 447 572 650 727 774 625 474 412 365 288 225 190 159 91 124 91 144 208 208 173 14 0 0 0 0 0 36
0 0 0 0 0 0 0 0 579 590 458 349 328 296 719 1117 1049 931 676 343 431 410 381 505 567 672 769 637 528 439 306 209 203 259 294 206 112 108 172 276 232 83 41 12 0 0 6 80 30
0 0 0 0 0 0 257 303 526 388 362 348 195 318 920 1101 881 836 619 406 324 348 285 319 473 639 697 618 529 397 297 230 224 303 291 272 199 138 256 309 281 156 26 15 1 8 138 117 104
0 0 0 0 0 518 357 435 482 188 85 258 43 222 738 828 677 534 462 322 202 122 135 219 416 488 586 525 378 332 274 204 240 296 304 303 284 282 324 357 312 263 180 115 91 70 49 73 148
0 0 0 0 0 104 574 275 210 145 80 164 233 405 714 671 573 451 233 163 106 100 123 126 139 300 377 345 331 266 187 183 225 248 242 253 237 270 315 337 314 248 167 27 2 2 8 7 42
0 0 0 0 0 22 311 243 226 165 187 153 299 431 782 304 608 240 226 16 80 73 61 9 171 202 265 256 263 237 159 163 178 181 162 144 160 225 229 179 194 129 15 0 0 0 0 42 37
0 0 0 0 1 169 262 177 294 17 36 545 780 546 322 449 504 223 126 31 54 27 58 20 80 216 193 164 203 189 140 121 118 150 135 37 0 2 31 0 33 9 0 0 0 0 1 0 18
0 0 0 0 166 82 46 14 50 16 157 235 369 138 55 86 71 66 83 85 35 15 4 28 123 150 122 110 91 62 47 17 10 8 8 9 15 2 8 0 0 0 0 0 0 3 0 0 0
0 0 0 2 179 56 72 49 24 9 102 155 58 76 5 40 67 28 16 10 15 25 2 35 110 126 87 61 31 26 9 21 51 41 95 35 7 19 0 7 2 0 0 3 0 0 0 0 0
0 0 0 17 155 86 59 26 12 24 49 18 29 45 15 46 24 70 17 3 4 42 54 108 165 152 47 5 3 0 0 5 155 156 92 134 62 74 102 34 0 0 0 0 0 0 0 0 0
1 0 7 94 114 83 36 37 31 156 4 60 238 140 20 50 40 12 1 0 10 119 150 169 194 203 44 23 64 94 191 314 455 430 329 207 245 75 22 0 0 0 0 0 0 0 0 0 0
7 0 121 169 136 68 38 35 52 190 19 231 237 288 77 54 27 23 9 0 145 245 251 292 337 183 62 107 196 312 447 539 508 487 439 368 271 214 33 0 0 0 0 0 2 0 0 0 0
27 0 35 217 140 110 18 16 53 366 485 454 354 480 138 114 67 49 26 89 324 477 566 448 477 192 238 221 351 471 544 515 481 400 268 413 112 0 0 0 0 0 0 0 0 0 0 0 0
25 0 0 280 158 150 5 73 36 478 649 675 541 406 409 306 241 190 143 264 563 639 529 241 323 232 301 291 361 412 358 267 75 65 56 46 30 50 16 17 0 0 0 0 0 0 0 0 0
1 0 0 82 62 90 9 84 151 405 450 726 603 538 572 532 541 407 387 534 844 492 540 200 389 280 275 259 252 183 45 0 1 0 0 0 1 0 0 0 0 0 0 0 0 0 0 0 0
0 0 0 0 0 31 13 47 276 500 488 565 326 322 239 546 675 699 714 747 684 382 521 327 382 338 270 220 164 77 0 0 3 4 0 0 0 0 0 0 0 0 0 0 0 0 0 0 0
0 0 0 0 0 9 62 22 335 381 500 433 134 237 136 133 610 591 812 683 345 253 487 346 334 434 339 276 145 31 31 50 41 3 0 0 0 0 0 0 0 0 0 0 0 0 0 0 0
0 0 0 0 0 0 30 37 265 340 348 290 212 153 146 137 242 359 746 717 404 323 401 303 254 501 514 381 143 77 78 137 74 0 0 0 0 0 0 0 0 0 0 0 0 0 0 0 0
0 0 0 0 0 3 4 7 0 104 231 367 246 200 240 187 104 91 401 522 488 428 449 478 392 549 602 537 271 111 90 37 23 0 0 0 0 0 0 0 0 0 0 0 0 0 0 0 0
0 0 0 2 5 0 0 0 0 0 9 251 255 254 319 319 209 149 173 382 494 516 543 722 567 541 543 409 215 136 112 2 0 0 0 0 0 0 0 0 2 0 0 0 0 0 0 0 0
0 7 0 5 9 3 0 0 2 4 0 126 192 199 351 426 384 313 409 598 528 593 752 677 710 738 650 266 139 157 13 0 0 0 0 0 0 0 1 2 0 3 0 0 0 0 0 0 0
0 4 0 1 4 2 2 0 0 0 0 0 0 0 66 480 481 452 656 866 892 845 925 842 799 721 443 313 170 291 126 14 14 20 16 0 0 1 9 1 8 0 0 0 0 0 0 0 0
7 8 0 0 0 0 2 0 2 0 7 0 0 0 12 260 520 593 813 1088 1144 1088 1005 686 558 374 372 454 526 568 391 124 71 73 26 16 6 19 3 5 4 0 0 0 0 0 0 0 0
9 0 0 0 0 0 0 0 6 0 1 13 0 0 14 205 538 726 848 995 1175 1145 769 530 392 501 83 338 100 26 62 71 37 12 21 29 15 0 1 1 0 0 0 0 0 0 0 0 0
0 0 7 6 0 1 1 1 1 54 2 21 8 0 77 388 609 861 991 1061 1043 846 648 592 541 387 236 139 70 72 82 69 44 35 27 6 0 0 0 4 0 0 0 0 0 0 0 0 0
2 0 17 29 1 4 0 0 0 6 8 20 9 36 123 726 786 923 1030 1041 1006 742 683 682 532 419 302 290 119 42 11 13 15 15 0 1 4 1 7 1 0 0 0 0 0 0 0 0 0
2 0 0 0 1 0 1 0 0 0 0 65 98 41 246 675 837 969 1025 986 885 763 603 463 369 335 233 137 13 2 4 11 9 11 13 31 7 3 5 0 0 0 0 0 0 0 0 0 0
16 11 18 48 0 0 0 0 0 0 2 100 41 69 407 664 715 755 742 705 622 507 314 47 11 2 23 51 81 58 34 24 20 28 22 17 21 4 11 0 0 0 0 0 0 0 0 0 0

GFSSGP_con_mucape_033.txt.gz
CAPE
0 0 0 0 0 0 0 0 0 0 371 868 865 921 937 945 799 411 691 505 831 1029 738 603 644 740 685 551 518 441 265 74 39 67 104 127 105 159 93 74 69 87 14 0 0 0 0 0 57
0 0 0 0 0 0 0 0 0 38 676 928 777 1026 1001 1156 1065 966 616 739 845 898 564 433 634 706 642 490 455 347 154 47 106 84 50 113 34 127 179 198 152 136 70 0 0 0 0 0 71
0 0 0 0 0 0 0 0 778 740 708 446 445 650 981 1047 971 622 717 776 903 712 461 586 634 603 612 494 392 302 269 197 191 184 123 92 80 59 113 247 208 169 33 3 0 0 0 3 16
0 0 0 0 0 0 0 0 0 592 510 229 249 459 1130 1318 852 744 806 802 839 654 514 625 553 553 601 557 499 378 254 213 267 276 293 240 142 95 161 278 273 196 24 16 8 0 23 1 0
0 0 0 0 0 0 249 354 357 543 329 201 296 822 938 1128 1166 908 729 794 610 558 463 437 563 557 625 573 469 350 279 321 356 371 337 352 286 213 330 299 287 249 60 25 21 147 158 40 0
0 0 0 0 0 35 431 328 557 461 180 109 160 570 740 878 977 671 627 599 560 418 298 343 350 294 422 416 360 298 304 406 412 386 387 390 362 339 339 341 331 278 220 163 107 96 138 93 20
0 0 0 0 0 26 570 384 324 179 153 142 203 535 701 730 490 566 434 388 272 203 70 136 68 216 274 259 252 248 298 367 384 370 341 316 306 297 303 307 284 245 176 113 55 17 52 93 29
0 0 0 0 0 81 330 429 375 248 181 396 601 705 647 645 636 440 202 112 91 60 60 39 12 171 147 118 214 240 287 328 347 326 277 215 222 263 226 218 203 112 66 41 19 12 62 128 13
0 0 0 4 43 238 427 359 303 310 480 901 763 540 363 535 561 214 224 12 20 57 28 45 110 117 148 153 151 142 215 244 237 209 146 51 5 0 5 22 50 5 0 0 3 29 5 0 21
0 0 0 0 20 210 381 254 236 265 593 720 614 642 500 310 377 343 246 3 5 6 11 13 46 138 145 130 125 38 39 29 17 3 2 0 0 2 0 14 3 0 0 0 0 0 0 0 0
0 0 0 0 104 108 226 74 43 233 379 284 487 413 367 436 183 70 91 21 34 15 3 0 17 151 146 111 75 29 11 6 1 0 10 4 19 13 0 0 0 0 0 0 0 0 0 0 0
0 0 0 0 134 121 190 96 109 68 85 353 105 44 41 51 65 46 69 24 23 21 18 38 78 215 101 68 28 11 0 0 2 20 45 41 28 21 30 1 11 0 0 0 0 0 0 0 0
34 21 0 22 120 137 137 79 46 97 71 77 64 64 33 73 55 27 57 47 14 36 42 69 170 293 130 34 11 0 7 58 119 115 141 126 34 59 81 35 0 0 0 0 0 0 0 0 0
41 5 171 142 161 128 107 192 173 124 316 212 89 24 30 15 35 20 4 37 26 39 108 164 195 320 117 1 0 28 136 217 405 318 201 235 222 76 46 0 5 0 0 0 0 0 0 0 0
36 62 223 223 159 119 56 31 259 120 446 331 99 72 56 29 3 1 12 0 0 36 110 193 238 306 132 4 20 152 271 420 492 429 292 197 238 245 50 4 1 0 0 0 0 0 0 0 0
35 0 3 250 202 169 34 61 362 274 300 373 366 286 153 79 18 11 3 1 72 209 281 379 360 356 69 22 75 256 453 507 461 428 398 409 301 38 0 0 0 0 0 0 0 0 0 0 0
11 0 4 268 242 84 37 35 283 355 440 549 516 424 199 120 47 36 14 15 225 353 486 483 407 393 134 163 343 475 556 524 431 180 7 55 13 0 0 0 0 0 0 0 0 0 0 0 0
11 1 0 2 10 78 69 48 326 489 465 538 494 506 327 153 159 140 105 108 285 512 596 576 517 477 235 276 333 459 473 359 146 1 0 6 0 0 0 0 0 0 0 0 0 0 0 0 0
4 0 0 0 0 0 2 29 299 479 563 658 598 511 567 397 305 349 289 223 413 640 718 534 334 318 267 310 327 378 275 123 12 7 0 0 0 0 0 0 0 0 0 0 0 0 0 0 0
0 0 0 3 3 0 0 9 91 351 437 581 562 606 641 647 541 578 531 489 573 726 744 548 317 291 320 334 306 212 123 36 18 30 37 0 0 0 0 0 0 0 0 0 0 0 0 0 0
0 0 0 0 0 0 0 0 161 293 442 486 470 372 457 439 578 675 697 664 638 740 586 584 369 379 326 281 231 197 73 46 62 62 65 0 0 0 0 0 0 0 0 0 0 0 0 0 0
0 1 0 0 0 0 0 0 0 160 319 422 389 181 268 255 302 586 701 722 737 543 454 496 517 399 414 389 373 268 96 44 105 63 53 1 0 0 0 0 0 0 0 0 0 0 0 0 0
0 0 0 0 0 7 0 0 0 0 0 165 240 286 155 223 237 362 562 640 786 569 253 368 411 285 345 501 542 382 225 73 101 51 7 0 0 0 0 0 0 0 0 11 8 0 0 0 0
0 0 0 0 0 0 0 1 0 0 0 0 26 330 294 205 249 324 261 406 636 711 334 271 340 382 275 495 524 414 151 138 86 18 3 9 13 13 1 0 0 7 7 12 0 1 0 0 0
0 0 0 0 0 0 0 0 0 0 0 0 0 143 279 258 247 322 333 335 402 465 500 457 516 473 405 584 610 409 177 79 83 22 49 58 45 37 4 3 18 15 6 9 0 0 0 0 0
0 0 0 0 0 0 0 0 0 0 0 0 0 0 8 17 68 375 481 559 382 423 493 433 620 697 683 750 542 317 85 217 128 94 80 57 39 19 14 12 4 0 9 8 0 0 0 0 0
0 0 0 0 0 0 0 0 0 18 28 2 4 0 2 48 118 336 590 727 728 751 837 789 691 751 693 395 290 311 310 363 346 203 87 55 33 25 4 7 4 3 7 1 0 0 0 0 0
5 0 0 0 0 0 0 0 0 6 3 0 1 25 20 97 239 419 570 841 983 1062 1029 847 791 580 460 376 165 339 343 68 62 44 20 19 24 15 10 1 6 10 1 0 0 0 0 0 0
0 0 0 0 0 0 0 0 0 0 0 0 0 5 22 254 420 543 629 754 941 1058 1159 823 697 563 462 391 250 95 56 72 41 23 25 18 14 4 14 7 10 17 11 0 0 0 0 0 0
0 0 0 0 0 0 0 0 0 0 0 0 0 0 13 242 516 710 804 924 1036 1112 1031 888 661 604 525 342 280 93 52 30 45 55 26 32 25 13 14 5 6 6 5 0 0 0 0 0 0

GFSSGP_con_mucape_036.txt.gz
CAPE
0 0 0 0 0 0 0 0 0 0 43 1127 1063 1011 873 846 572 360 631 665 845 874 730 709 686 555 490 477 431 334 274 176 77 56 122 173 151 96 99 101 100 102 68 1 9 113 327 406 255
0 0 0 0 0 0 0 0 0 646 694 995 850 857 946 752 787 778 719 871 871 797 609 629 715 548 562 492 400 293 208 185 153 129 127 201 139 178 211 188 131 135 119 0 0 24 101 307 641
0 0 0 0 0 0 0 0 67 403 539 645 486 686 798 1008 894 755 705 893 1106 685 515 641 668 532 600 485 348 250 227 211 202 187 159 167 148 147 203 222 194 198 136 0 0 0 3 76 247
0 0 0 0 0 0 0 0 368 315 415 414 406 578 944 874 1124 899 967 1028 1045 622 511 637 514 503 526 517 393 322 295 278 271 265 280 264 257 143 311 277 264 267 186 3 0 0 24 109 58
0 0 0 0 0 0 1 343 519 527 397 564 399 467 780 778 1073 981 976 870 880 673 495 551 443 545 650 642 480 330 379 387 404 360 331 358 372 313 406 362 343 314 265 191 63 73 26 67 9
0 0 0 0 0 0 343 482 608 612 433 522 586 545 733 782 825 998 863 762 631 528 420 359 516 499 537 458 371 374 439 479 436 446 425 515 459 409 392 354 328 289 225 243 252 146 10 33 8
0 0 0 0 0 35 397 490 472 537 322 276 339 762 704 944 770 794 713 647 477 409 319 160 15 38 292 322 328 364 401 455 472 472 456 439 353 343 328 296 312 292 217 170 236 229 68 32 51
0 0 0 0 25 60 196 600 492 434 479 588 692 735 670 789 571 795 602 420 311 260 173 46 57 30 169 270 280 311 374 392 402 392 293 218 225 237 233 220 282 207 141 142 175 179 95 11 6
0 0 0 20 49 8 330 524 456 683 687 602 663 766 581 601 481 455 297 349 191 20 15 33 3 66 143 162 231 292 361 316 281 225 174 50 37 14 0 36 55 33 24 66 149 0 0 0 0
0 0 0 5 6 60 217 463 466 561 585 533 602 662 538 588 509 321 164 78 40 0 12 20 52 144 145 154 76 41 102 56 33 30 15 0 0 0 0 0 0 1 13 51 0 0 0 0 0
0 0 0 0 0 69 162 411 191 549 495 398 404 553 726 744 406 161 86 69 19 1 0 0 20 127 110 98 7 2 5 2 0 0 0 0 0 0 0 0 0 0 0 0 0 0 0 0 0
1 12 2 0 106 138 274 314 258 206 146 414 268 331 357 269 238 260 28 37 61 0 1 5 26 70 118 95 31 8 5 0 0 0 0 0 1 0 0 0 0 10 0 0 0 0 0 0 0
56 32 47 22 130 247 257 175 107 202 457 368 85 424 307 89 114 76 57 46 66 8 1 0 8 167 155 79 22 0 0 0 0 0 31 35 26 9 17 22 27 11 0 0 0 0 0 0 0
41 35 159 150 232 231 258 223 137 188 353 77 103 121 90 111 113 115 101 33 21 25 26 71 131 212 206 22 0 0 0 0 10 44 128 74 28 35 75 81 32 15 0 0 0 0 0 0 0
52 107 264 257 243 189 172 33 120 279 283 147 146 66 47 107 77 106 130 107 64 24 18 22 105 254 276 16 0 0 0 97 221 176 121 179 174 90 93 52 37 28 0 4 1 0 0 0 0
42 1 0 261 194 145 108 21 121 461 236 164 117 81 81 28 30 41 50 32 18 31 112 135 205 275 360 37 0 0 25 244 405 330 231 179 143 173 211 56 5 0 3 5 0 0 0 0 0
29 0 3 186 205 125 67 31 231 411 381 226 246 207 224 90 14 16 47 0 13 46 153 224 289 282 332 134 0 0 146 329 406 327 260 305 284 212 121 0 4 22 3 0 0 0 0 0 0
24 3 62 29 31 195 85 17 359 300 351 376 350 375 349 230 88 14 28 16 0 65 258 280 322 331 339 78 9 100 323 394 398 342 235 66 39 45 45 33 35 1 0 0 0 0 0 0 0
30 14 0 1 0 0 3 16 140 353 377 484 498 514 452 307 209 107 78 22 35 174 337 390 379 361 389 73 145 279 414 449 431 269 48 0 17 15 18 0 0 0 0 0 0 0 0 0 0
16 6 2 0 0 0 0 2 131 337 400 445 474 430 403 374 222 208 178 115 135 237 371 485 474 460 458 192 177 269 361 332 204 55 16 25 40 0 0 0 0 0 0 0 0 0 0 0 0
0 0 1 0 0 0 0 0 6 288 329 445 415 458 386 389 411 287 294 234 190 288 364 584 630 561 536 463 192 200 222 236 163 47 34 33 33 1 0 0 0 0 0 0 0 0 0 0 0
0 1 0 0 0 0 0 0 0 65 394 370 495 545 517 439 496 480 428 437 297 326 388 598 757 659 319 239 225 241 239 172 58 20 17 19 36 6 0 0 0 0 0 0 0 0 0 0 0
0 0 0 0 0 0 0 0 0 0 146 288 408 502 524 458 461 485 491 519 509 409 405 568 794 817 367 251 321 296 227 149 149 36 32 20 48 7 0 0 0 0 0 0 0 1 2 0 0
0 0 0 0 0 0 0 0 0 0 0 96 289 423 471 496 351 362 352 494 609 638 544 556 711 661 614 343 330 290 272 266 165 100 61 60 51 4 0 2 8 9 6 0 0 3 0 1 0
0 0 0 0 0 0 0 0 0 0 0 0 0 26 332 477 438 281 325 274 458 658 677 692 572 462 496 409 370 380 337 293 166 61 74 79 50 26 49 53 57 50 3 15 5 4 3 0 0
0 0 0 0 0 0 0 0 0 0 0 0 0 0 0 21 215 398 305 290 278 442 638 690 660 192 122 323 353 176 331 342 163 90 81 74 50 63 82 72 58 4 14 12 10 8 9 0 0
0 0 0 0 0 0 0 0 0 0 16 0 0 0 0 0 108 355 350 295 292 303 322 470 663 424 333 286 369 430 413 447 129 82 57 68 71 75 99 80 44 20 44 16 9 8 2 0 0
0 0 0 0 0 0 0 0 0 0 1 0 0 0 0 0 0 16 108 257 244 319 429 418 379 510 525 505 499 484 578 387 246 142 120 128 107 74 87 83 43 23 6 12 5 2 0 0 0
0 0 0 0 0 0 0 0 0 0 4 0 0 0 1 1 12 56 228 412 414 401 419 492 660 707 690 758 690 668 534 375 250 111 85 73 69 74 62 58 23 5 21 18 9 5 0 0 0
0 0 0 0 0 0 0 0 0 0 0 0 0 0 0 0 92 212 298 383 487 596 663 716 862 843 733 698 434 358 426 206 60 58 41 28 36 24 18 10 19 13 13 13 3 0 0 0 0

GFSSGP_con_mucape_039.txt.gz
CAPE
0 0 0 0 0 0 0 0 0 32 164 928 1260 1130 1000 714 756 600 731 706 1007 843 548 687 631 705 685 581 533 456 445 296 173 182 220 184 123 101 139 181 163 213 203 283 408 316 222 134 385
0 0 0 0 0 0 0 0 38 616 582 948 725 871 1022 907 817 979 792 1114 1084 855 566 458 567 578 611 552 510 424 267 186 194 263 243 184 219 268 213 190 196 213 341 349 526 617 392 291 643
0 0 0 0 0 0 0 0 59 548 488 797 641 958 1135 1077 806 962 1047 1210 997 870 686 572 530 528 568 460 374 280 246 201 234 252 237 314 366 338 291 220 182 235 265 181 277 477 507 527 425
0 0 0 0 0 0 0 0 291 430 563 545 610 1170 1202 957 1166 1080 1196 1274 1019 944 723 599 489 515 505 441 381 280 206 193 205 209 301 432 414 401 353 255 231 285 217 63 52 103 214 236 174
0 0 0 0 0 0 0 254 619 696 688 793 738 1108 1039 1065 1240 1115 1085 1186 955 875 719 588 476 508 535 558 431 344 277 256 275 305 370 406 452 439 420 352 299 291 243 117 90 110 155 120 112
0 0 0 0 0 0 90 513 711 771 681 797 890 920 952 1009 1190 1040 1067 813 794 506 531 424 283 467 471 367 382 359 392 344 337 373 435 522 464 380 379 360 322 326 303 185 114 159 100 108 75
0 0 0 0 7 73 302 561 609 781 592 483 771 966 1067 921 915 1172 1089 824 787 442 317 274 184 71 242 266 291 306 375 419 436 480 466 435 305 303 283 281 251 289 313 281 122 114 185 137 50
0 0 0 0 50 69 196 671 579 547 532 787 929 878 924 936 822 685 1057 756 527 351 299 144 184 4 103 292 271 309 337 374 394 391 298 210 232 258 290 222 203 215 255 342 177 54 79 56 0
0 0 1 45 45 12 329 648 610 847 904 813 807 972 839 1028 606 682 595 541 409 307 189 147 49 2 138 253 356 340 368 372 300 231 186 82 59 79 35 82 78 92 164 97 114 10 0 0 0
0 0 0 55 17 25 246 502 571 797 832 666 729 1008 756 717 538 618 346 120 296 182 27 13 22 130 142 154 224 223 249 177 103 38 85 59 105 41 15 9 25 54 38 2 0 0 0 0 0
0 0 3 1 0 15 95 366 410 693 662 567 490 1258 834 569 568 534 195 219 153 57 5 1 21 132 202 124 101 112 86 56 64 67 45 69 73 66 15 15 16 18 0 0 0 0 0 0 0
29 29 2 0 31 84 234 317 596 296 225 467 551 919 502 400 468 346 110 112 31 3 18 18 3 2 45 96 43 22 18 20 36 16 58 105 89 32 16 21 0 0 0 0 0 0 0 0 0
25 14 37 25 96 273 326 260 248 381 561 518 483 471 407 290 219 213 68 16 2 10 9 4 0 7 168 164 20 9 16 14 32 9 67 63 88 15 25 3 31 26 8 2 0 0 0 0 0
42 45 138 104 208 225 346 363 165 411 487 330 218 220 187 216 72 43 64 24 5 0 2 34 30 104 304 95 28 2 2 0 0 11 98 78 104 16 7 34 47 35 25 14 0 0 0 0 0
38 66 163 226 285 332 208 56 222 469 407 335 226 143 187 215 136 113 32 34 27 26 0 0 20 219 314 72 18 0 2 9 54 138 97 116 13 27 92 90 64 35 28 6 2 0 0 0 0
12 17 1 148 229 197 140 34 180 510 383 322 271 109 87 120 139 170 136 73 85 45 17 70 164 201 323 80 1 9 40 173 237 182 108 120 127 91 62 58 55 12 1 1 20 0 0 0 0
13 2 7 214 243 162 117 39 134 570 337 201 183 135 147 40 55 91 176 120 96 126 91 46 108 246 347 213 21 35 91 239 311 368 201 169 78 65 76 97 44 1 6 20 0 0 0 0 0
0 3 63 44 119 223 155 61 239 496 418 243 233 233 254 257 67 81 100 64 85 119 153 161 259 349 325 331 8 57 160 226 342 398 247 115 107 176 139 64 28 4 18 0 0 0 0 0 0
3 16 9 4 1 10 128 78 203 408 429 469 448 419 449 426 342 107 121 122 104 139 233 281 332 313 300 295 44 77 233 179 308 334 272 130 90 24 4 10 14 11 0 0 0 0 0 0 0
0 13 9 3 3 1 0 0 30 272 454 540 597 535 588 594 361 256 169 153 167 139 254 440 393 296 322 303 75 83 103 174 389 297 183 99 1 0 5 7 7 1 0 0 0 0 0 0 0
0 2 7 0 0 0 0 1 5 50 292 250 320 441 396 422 522 268 201 209 206 202 248 396 416 322 328 348 173 69 124 215 307 222 110 27 3 1 2 2 0 0 0 0 0 0 0 0 0
0 0 0 0 0 0 0 0 0 7 147 296 313 352 372 350 396 524 294 275 265 233 278 345 374 476 439 440 433 190 121 217 215 152 91 28 8 8 3 10 0 0 0 0 0 0 0 0 0
0 0 0 0 0 0 0 0 0 0 3 221 321 311 396 400 429 521 596 512 445 418 497 462 413 425 585 624 607 552 343 201 146 100 83 42 28 41 33 31 0 0 0 0 1 1 3 0 0
0 0 0 0 0 0 0 0 0 0 0 26 120 299 339 441 465 470 533 687 664 626 601 566 493 364 595 623 429 433 311 201 165 173 118 76 65 48 57 31 3 8 21 18 19 16 2 1 0
0 0 0 0 0 0 0 0 9 0 0 0 0 12 175 366 461 490 468 450 743 686 627 585 507 437 539 533 438 371 288 256 238 253 233 142 78 55 57 42 31 30 30 36 9 10 6 0 0
0 0 0 0 0 0 0 0 0 0 0 7 0 0 0 9 162 419 494 498 598 710 662 706 714 580 542 308 404 459 408 336 260 277 263 181 61 48 37 40 40 47 64 59 3 3 2 0 0
0 0 0 0 0 0 0 0 0 0 0 0 0 1 0 0 3 25 108 510 541 528 543 617 706 728 592 300 130 196 303 325 142 185 194 301 54 54 42 50 63 64 71 29 9 4 0 0 0
0 0 0 0 0 0 0 0 0 0 0 0 0 0 0 0 0 11 78 151 255 449 476 468 517 668 683 361 272 297 290 350 356 274 265 83 70 35 67 43 49 81 51 4 0 0 0 2 0
0 0 0 0 0 0 0 0 0 0 0 0 0 0 0 0 1 6 41 248 270 294 362 408 499 568 472 532 549 530 531 446 367 296 297 135 87 68 52 38 44 24 1 0 0 0 0 0 0
0 0 0 6 0 0 0 0 0 0 0 0 0 0 0 0 0 32 183 381 488 485 411 353 345 372 362 414 498 600 604 388 352 313 165 110 78 60 75 63 28 1 3 0 0 0 0 0 0

GFSSGP_con_mucape_042.txt.gz
CAPE
0 0 0 0 0 0 0 0 0 0 115 972 1307 1380 1323 1286 1274 1013 1294 1167 1344 804 416 805 847 994 1004 923 751 615 512 378 193 179 188 181 184 260 255 266 306 441 311 232 204 334 295 63 100
0 0 0 0 0 0 0 0 0 312 386 1346 1267 1536 1487 1437 1174 1021 1117 1138 1390 922 418 412 829 869 849 721 633 487 289 221 275 256 218 250 372 356 360 341 455 789 878 447 294 400 355 159 262
0 0 0 0 0 0 9 0 43 309 750 898 1237 1678 1444 1608 1254 1183 1271 1414 1475 1009 549 656 804 758 746 647 535 326 256 284 286 261 366 470 418 446 422 378 454 825 1143 875 475 594 427 296 289
0 0 0 0 0 0 0 0 30 292 778 1002 1130 1399 1591 1374 1710 1413 1628 1669 1561 1065 690 536 578 655 701 591 448 311 281 272 236 330 512 528 514 482 451 442 356 497 741 641 613 382 213 202 145
0 0 0 0 0 0 0 0 254 565 1023 1144 1240 1605 1672 1511 1829 1873 1810 1599 1344 1130 1027 633 498 578 600 563 435 341 342 232 285 412 465 550 564 543 505 412 313 310 430 398 328 139 182 166 124
0 0 0 0 0 0 0 79 445 1141 1196 1272 1429 1578 1497 1201 1438 1421 1859 1564 1034 863 876 490 519 553 485 435 353 301 322 327 391 436 476 582 599 564 527 456 362 276 302 372 287 194 191 142 29
0 0 0 0 0 19 285 895 1075 1222 1145 1038 1378 1392 1424 1109 1344 1515 1340 1287 809 507 397 294 255 154 161 275 291 279 344 398 458 471 450 406 348 306 338 360 364 325 220 266 271 252 162 52 0
0 0 0 0 54 35 162 843 949 984 1093 1178 1382 1235 1361 857 1257 1257 1540 914 704 393 79 268 206 49 0 318 302 340 340 355 396 385 271 261 250 243 262 275 361 401 288 235 287 256 88 0 0
0 1 10 7 25 9 320 199 931 1133 1234 1241 1305 1494 1372 848 913 762 1180 945 705 409 337 209 117 17 2 192 392 390 439 352 283 256 187 64 39 20 26 98 241 316 325 213 147 84 0 0 0
0 3 10 30 11 3 37 211 842 1169 1122 1227 1174 950 796 929 724 810 526 313 218 384 463 203 129 33 36 288 310 352 262 180 156 122 55 35 77 37 13 20 168 116 84 20 0 0 0 0 0
1 17 9 4 0 17 36 594 777 873 875 1009 998 953 1031 905 865 728 334 144 178 366 253 110 12 5 63 142 352 329 279 281 136 143 75 152 105 71 60 21 43 18 3 0 0 0 0 0 0
9 11 2 0 2 37 316 499 717 777 1100 966 1046 763 709 695 492 188 271 208 17 79 5 6 5 19 1 96 173 189 121 99 84 90 112 151 120 92 94 138 210 88 21 2 0 0 0 0 0
8 10 15 33 67 483 451 551 511 958 984 920 857 770 449 364 211 127 81 23 28 31 29 14 4 3 1 25 122 153 185 100 44 94 108 89 49 93 153 136 93 34 10 10 0 0 0 0 0
17 40 394 187 299 422 541 706 656 1094 991 824 679 424 214 87 59 34 17 11 12 19 24 6 2 1 101 116 141 175 173 72 110 76 179 238 102 172 314 177 50 29 20 10 3 0 0 0 0
13 72 345 373 554 669 497 431 979 1063 669 537 360 614 239 115 26 28 49 50 18 0 3 0 44 109 153 274 157 39 56 18 8 68 485 497 443 361 223 96 30 24 5 3 0 0 0 0 0
34 29 43 139 527 483 472 307 941 885 590 543 515 182 463 175 88 112 58 18 12 17 47 92 33 157 337 355 166 0 24 18 29 354 537 577 484 334 164 44 32 31 22 0 0 0 0 0 0
47 63 36 99 490 426 383 186 612 796 475 336 234 153 208 282 222 266 109 59 42 77 88 124 106 145 555 619 189 87 48 107 178 565 567 477 225 90 59 33 37 39 0 0 0 0 0 0 0
51 64 83 97 241 432 403 241 539 741 555 195 268 175 163 312 350 471 458 232 210 192 126 60 132 469 583 616 325 57 9 92 516 831 697 468 202 52 37 29 43 11 0 0 0 0 0 0 0
18 32 60 41 15 45 90 151 181 698 700 483 246 353 354 259 219 419 684 680 470 400 291 280 400 509 602 743 466 117 57 203 677 745 834 411 325 79 54 48 4 0 0 0 0 0 0 0 0
26 45 46 21 2 5 41 29 99 574 802 657 499 477 456 384 406 243 505 515 534 533 553 492 398 498 754 814 694 174 310 196 416 629 731 573 394 54 5 0 0 0 0 10 0 0 0 0 0
45 55 37 17 5 0 1 20 54 277 773 810 808 601 594 572 565 485 278 436 565 466 487 521 573 806 810 768 672 283 473 634 704 588 342 327 134 109 6 6 4 3 0 0 0 0 0 0 0
34 15 8 20 27 64 0 45 36 120 376 660 661 860 528 579 702 649 523 401 409 528 521 498 656 937 909 912 768 476 342 358 507 480 139 59 100 44 20 27 22 24 0 0 0 0 0 11 14
15 4 13 11 55 35 26 51 75 20 46 221 536 706 743 456 607 748 806 646 536 517 585 611 667 1100 986 945 916 853 718 625 685 370 32 61 67 68 42 52 47 43 37 1 0 0 10 5 11
0 9 14 48 89 79 45 59 107 57 22 29 108 339 627 783 727 692 760 984 963 835 800 781 781 893 1096 1095 1025 1110 1200 1111 481 128 96 107 91 61 83 89 56 43 12 5 2 1 19 11 6
0 20 132 74 118 120 31 65 90 29 26 54 47 48 282 599 851 930 907 1056 1261 1309 1264 1202 996 763 901 868 431 700 834 977 267 131 89 150 147 133 70 99 79 48 17 18 31 48 36 2 4
3 38 113 13 50 79 0 32 79 18 13 26 95 110 59 80 552 830 1006 1063 1202 1438 1635 1520 1234 994 925 626 189 319 359 294 166 286 124 211 286 239 237 300 107 102 47 46 49 49 13 6 2
7 11 7 52 13 30 3 0 1 0 0 3 51 111 169 70 85 300 664 1030 1067 1297 1633 1780 1562 1224 1200 758 195 264 289 137 190 195 226 228 217 231 391 161 80 55 60 50 44 10 2 1 0
11 6 34 60 24 5 40 8 8 0 0 0 0 10 169 196 89 146 230 377 618 930 1372 1618 1701 1537 1474 1003 532 223 365 196 281 247 261 215 172 84 68 34 35 18 48 23 10 6 4 0 0
18 32 7 32 44 69 46 26 0 0 0 6 0 0 72 218 322 339 334 455 540 632 968 1215 1317 1318 1404 1312 1032 425 379 402 468 404 237 236 118 53 62 49 39 42 31 14 12 9 0 0 0
1 15 52 56 22 17 70 41 0 0 0 0 0 0 9 145 269 485 683 809 891 911 937 1009 1056 1120 1234 1338 1271 833 427 410 322 182 150 119 68 67 89 85 47 50 17 6 2 11 5 0 0

GFSSGP_con_mucape_045.txt.gz
CAPE
0 0 0 0 0 0 0 20 64 67 64 291 555 598 238 529 665 130 568 1763 1534 970 885 1298 1266 1396 1374 1298 1139 944 810 615 476 392 343 273 272 345 405 433 464 541 622 464 115 0 8 43 25
0 0 0 0 0 8 51 0 18 30 291 87 1047 922 672 1184 1592 1323 1451 1979 1345 885 904 1492 1227 1244 1243 1105 972 810 592 415 446 387 314 356 466 521 592 721 736 715 756 523 200 62 58 44 63
0 0 0 7 8 24 38 36 37 242 225 172 480 1168 1274 1583 1551 1584 1466 1993 945 592 666 1477 1104 1093 1072 911 781 528 438 389 368 357 507 622 604 614 742 994 1049 1011 995 647 276 98 96 87 219
0 0 0 0 0 49 0 25 0 20 174 382 465 1121 1920 1808 1951 1523 1766 1860 1412 479 551 969 1029 977 912 765 560 442 394 308 328 482 646 675 639 614 674 936 1205 1261 1102 790 242 116 39 193 198
0 0 0 45 14 8 0 0 0 60 272 726 855 912 1585 1975 1937 2043 1962 2057 1530 857 905 1072 730 776 748 706 537 465 385 389 534 579 577 602 595 655 528 571 835 1126 1109 566 195 58 114 187 131
0 0 3 41 34 0 0 0 52 149 743 1175 1122 609 1836 1735 1823 2005 2145 1932 1625 1222 843 512 771 658 566 442 435 407 391 519 588 588 623 656 656 557 445 426 550 689 664 386 269 238 161 74 2
0 10 37 14 16 49 212 554 977 880 845 1030 1542 1240 1968 1659 1370 1647 1804 1538 1023 692 494 319 267 547 282 215 235 239 425 546 581 612 664 584 443 400 370 305 356 437 321 281 251 211 143 0 2
0 0 16 13 61 50 159 276 857 976 1014 1206 1380 1391 1458 1516 1426 1455 1270 1228 741 429 368 276 5 190 343 218 224 294 385 451 490 409 312 281 286 338 355 292 278 312 321 333 237 159 47 0 0
0 4 15 31 53 10 51 185 685 1001 928 1244 1488 1836 1732 991 1105 1217 1208 1101 630 384 313 80 0 58 103 208 371 441 480 379 351 337 257 137 87 62 51 219 353 301 304 302 162 22 0 0 0
0 82 40 31 42 49 54 349 780 973 834 1060 1611 1373 1134 1092 799 759 837 730 610 389 311 194 0 22 29 1 157 282 366 292 246 193 190 130 164 136 90 169 254 215 147 144 59 0 0 0 0
11 5 26 48 3 2 29 143 697 868 762 61 1108 1025 957 1189 599 693 552 377 374 320 323 197 139 50 5 2 134 302 335 320 239 242 246 309 283 220 95 85 18 2 0 0 0 0 0 0 0
1 41 25 31 1 21 385 31 395 610 1172 1251 1398 735 579 727 631 371 378 144 206 221 258 127 104 25 0 3 80 244 255 265 243 287 455 388 259 421 280 116 145 67 31 2 0 0 0 0 0
8 23 32 44 38 440 561 663 556 1098 1059 1216 857 668 530 503 310 247 200 154 60 10 85 97 37 22 5 22 109 155 205 152 171 271 297 383 354 481 290 278 298 204 127 57 2 0 0 0 0
13 5 124 74 239 363 405 657 697 1124 887 769 686 401 169 158 140 61 28 6 8 0 22 15 11 4 1 3 76 207 279 160 402 326 407 506 272 398 230 301 262 173 101 35 1 0 0 0 0
0 5 130 39 133 183 427 32 557 948 499 281 542 639 329 129 50 58 18 6 9 12 2 5 4 4 12 3 4 81 335 276 329 311 591 344 452 605 453 398 249 147 73 30 5 1 0 0 0
0 20 10 47 218 342 109 41 670 676 421 361 157 656 371 178 123 165 62 0 0 4 0 0 0 1 119 153 137 140 279 255 133 135 335 614 338 415 512 401 301 145 61 32 3 1 0 0 0
16 38 17 27 75 310 165 20 673 497 382 415 146 371 461 181 163 89 73 29 7 4 0 2 44 71 148 176 251 163 200 105 30 179 249 620 707 694 546 439 305 151 51 25 10 0 0 0 0
28 36 31 67 5 100 101 123 591 626 237 376 131 221 309 94 234 177 74 21 3 21 4 0 86 145 390 547 236 100 8 115 54 107 352 608 685 542 517 411 266 121 41 18 0 0 0 0 0
15 39 56 42 17 0 31 81 7 646 581 161 297 139 237 222 147 306 128 57 60 86 207 155 145 146 426 485 214 50 2 4 59 256 401 620 692 502 459 394 268 138 52 4 0 0 0 0 0
11 29 46 35 4 0 10 18 44 423 528 369 195 302 140 173 416 411 479 312 365 252 217 167 120 167 539 592 505 119 28 0 62 254 658 740 762 617 440 478 221 104 10 1 0 0 0 0 0
21 56 36 27 37 3 7 21 26 143 497 479 280 214 292 219 213 364 515 557 429 334 286 263 307 476 529 506 561 387 61 72 51 292 503 791 760 705 478 405 144 32 10 6 1 0 0 0 0
56 23 1 9 22 55 25 17 8 97 294 579 470 329 287 330 326 218 285 672 702 591 582 605 574 574 552 612 791 466 121 244 478 682 626 640 837 622 360 148 46 5 16 17 18 0 0 0 0
28 0 0 28 76 105 77 17 67 26 97 249 499 443 350 323 371 416 268 178 569 801 672 746 662 635 753 880 746 1042 485 398 545 718 771 825 587 399 156 38 25 36 37 32 24 1 0 2 0
13 1 9 66 110 177 55 79 25 44 3 36 205 398 435 326 370 460 526 392 277 387 943 1318 719 659 774 978 940 1061 1044 892 1059 1063 734 498 371 190 62 58 61 35 33 39 24 0 0 9 8
0 48 128 144 166 163 51 44 52 21 7 7 37 119 372 495 405 438 482 668 652 584 731 1115 756 597 920 1331 1126 1254 1337 1316 617 700 649 346 249 38 34 72 110 131 179 91 25 7 36 34 27
7 56 172 58 190 191 111 36 68 36 18 0 21 103 91 313 558 594 479 604 854 1025 1037 1083 943 994 857 1191 1007 1134 1346 1196 759 372 176 115 91 70 62 169 249 268 105 84 48 19 24 47 50
37 44 109 85 136 100 139 102 31 1 0 1 24 121 256 257 270 565 665 718 881 1209 1749 2070 1623 1253 1101 1382 830 825 1123 902 966 474 312 175 81 105 155 207 179 145 37 56 15 6 41 2 4
13 41 57 95 119 163 134 149 113 14 0 0 0 24 124 289 232 265 486 770 999 1221 1829 2646 2052 1777 1430 1161 1157 976 874 629 521 386 248 216 196 191 293 169 42 25 13 36 14 15 22 6 13
4 49 37 104 107 162 217 178 61 20 1 0 8 0 3 54 414 372 391 440 690 1049 1358 1798 2162 2155 1781 1651 1412 1158 688 612 508 318 261 254 145 111 183 64 33 19 30 32 35 27 15 11 3
25 35 69 106 99 142 176 180 110 40 17 4 20 0 3 48 167 460 662 783 877 923 1088 1544 1833 1925 1864 1677 1447 1333 786 733 472 727 383 251 56 26 20 25 46 46 23 30 58 22 29 0 1

GFSSGP_con_mucape_048.txt.gz
CAPE
0 0 0 0 0 0 0 0 0 0 5 209 349 189 127 10 265 590 166 125 0 126 1656 1762 1602 1668 1550 1412 1277 1152 1014 829 712 553 388 325 529 679 699 679 838 862 252 0 0 0 0 0 0
0 0 0 0 0 0 0 1 0 78 257 109 15 158 39 17 320 1238 701 148 25 786 1569 1865 1608 1612 1501 1360 1217 1082 868 722 656 483 388 516 644 684 704 700 754 783 424 0 0 0 0 0 32
0 0 0 0 0 0 4 0 3 65 153 142 105 42 295 402 22 1523 1552 1147 1082 1183 1593 1397 1415 1277 1300 1229 1082 914 809 656 502 410 611 723 792 911 980 815 785 857 583 82 16 0 0 8 86
0 0 0 0 0 0 1 2 0 0 0 55 137 89 1462 1467 924 1518 1659 1432 895 994 1375 1217 962 896 1017 1186 971 815 666 516 439 584 731 812 951 1191 1205 1002 933 1003 675 116 18 0 0 99 21
0 0 0 3 3 11 3 2 0 0 1 79 27 220 1082 975 1450 1538 1763 1243 857 1065 1198 889 681 514 763 1013 854 698 607 553 662 688 680 734 920 1168 1250 1098 1033 1022 602 211 45 42 79 60 0
0 0 1 3 18 11 206 12 175 7 0 229 111 51 4 272 906 1680 1901 1298 964 1134 1105 764 799 667 691 737 737 557 605 688 673 645 662 765 624 676 906 1099 1025 755 392 303 253 204 125 51 0
0 0 0 14 76 76 89 25 0 334 539 316 101 15 8 463 1233 1436 1404 965 801 718 742 611 406 425 318 414 371 461 630 667 681 640 618 513 345 366 600 777 710 442 320 275 227 183 99 35 0
0 0 0 0 7 4 0 18 86 322 485 187 2 698 487 773 1085 1207 1267 823 968 740 673 293 171 78 53 197 407 470 500 536 557 406 274 231 262 299 344 398 359 337 297 255 214 167 73 0 0
0 0 1 18 11 1 0 15 112 226 391 310 282 400 766 564 1008 948 1095 794 691 560 449 314 110 59 0 95 443 522 542 416 327 274 221 101 35 20 102 260 346 358 295 207 135 29 0 0 0
0 0 0 0 0 0 0 0 283 90 250 84 0 67 608 1283 654 1166 848 763 510 495 311 239 162 110 40 3 199 340 375 284 262 169 134 44 45 115 114 197 231 258 228 137 14 0 0 0 0
0 0 0 0 0 0 0 0 0 277 417 52 7 384 668 586 597 722 617 609 421 344 307 272 140 32 7 0 13 108 196 237 277 243 240 251 156 140 153 106 5 7 11 0 0 0 0 0 0
0 0 0 0 0 0 1 66 250 787 1197 757 737 880 862 519 690 514 392 214 248 238 247 153 85 19 3 1 0 98 194 240 214 227 328 333 218 210 154 75 74 0 0 0 0 0 0 0 0
0 1 0 18 2 0 32 75 128 726 927 860 461 387 334 303 275 243 141 72 89 132 164 118 111 10 7 2 6 75 217 205 160 166 339 316 285 282 178 169 115 40 21 0 23 0 0 0 0
0 0 0 43 3 44 53 0 2 578 452 596 506 359 140 350 69 44 43 17 95 34 71 22 59 38 7 3 24 28 112 180 97 115 363 310 355 289 356 460 416 325 150 106 6 0 0 0 0
0 0 0 28 24 61 75 0 0 207 198 495 445 192 86 2 0 5 0 0 0 1 4 1 12 5 0 2 23 49 143 252 328 300 330 381 475 364 552 369 434 178 156 112 41 0 0 0 0
0 0 0 6 58 20 13 2 27 127 106 59 523 363 81 3 35 5 2 4 17 8 6 3 0 3 1 12 13 63 93 243 268 225 347 396 478 393 408 520 366 262 108 51 5 0 0 0 0
0 0 1 20 15 39 116 12 0 80 305 76 393 148 126 82 89 18 3 0 0 2 0 0 1 2 3 26 1 0 18 146 159 147 240 425 436 518 559 500 418 205 80 38 11 0 3 0 0
1 2 5 7 12 0 52 96 76 170 251 98 111 125 84 7 48 35 7 0 0 0 0 0 0 0 0 62 0 7 28 88 71 61 110 397 531 572 522 417 258 87 100 39 8 1 0 0 0
0 0 6 24 0 45 0 46 33 0 157 111 73 139 53 79 72 60 1 0 0 0 0 0 0 0 15 35 9 33 5 37 60 43 75 465 462 551 507 374 271 108 104 25 19 0 0 0 0
0 0 6 14 37 0 0 0 79 88 329 102 76 126 37 84 165 77 23 3 0 0 0 0 0 0 22 30 48 81 2 0 16 60 197 615 457 459 394 375 232 95 124 46 0 0 0 0 0
0 0 22 21 0 1 0 0 57 252 157 94 141 88 87 85 136 137 96 8 3 7 0 0 0 0 5 162 282 246 31 2 0 34 537 695 675 547 457 354 398 154 120 11 5 4 1 1 0
0 0 3 1 1 1 0 1 6 0 74 158 131 171 148 97 275 234 262 176 118 104 85 145 85 49 9 363 344 397 104 31 0 6 384 567 613 547 534 496 416 178 63 23 14 14 23 11 0
0 1 10 1 0 17 4 24 10 0 44 191 285 232 276 230 170 448 383 434 269 320 319 256 175 186 285 349 470 320 490 34 135 118 372 452 559 600 567 409 472 132 39 31 23 36 31 23 1
1 2 2 0 0 35 32 46 12 3 5 48 302 393 278 281 234 243 294 453 477 481 574 428 403 348 476 408 290 593 479 399 429 633 490 575 477 533 463 717 227 69 43 61 40 46 62 48 3
0 1 24 31 56 138 62 33 104 3 12 44 277 333 396 307 253 353 271 186 430 630 613 696 736 573 596 789 558 634 685 778 662 726 443 350 167 200 181 143 55 29 56 95 95 96 80 56 20
0 0 73 58 53 114 100 89 68 2 13 2 1 42 316 424 349 351 407 289 263 324 821 839 837 682 673 745 1071 706 621 854 874 632 515 292 122 23 126 87 35 40 96 130 77 92 43 25 3
4 0 9 45 12 104 103 68 119 40 0 0 0 24 145 141 528 454 399 553 525 418 468 756 841 788 641 813 985 749 425 826 1022 892 588 320 68 43 90 108 87 119 171 135 123 31 41 1 0
0 2 28 67 46 67 28 29 50 12 5 0 0 30 187 242 247 368 519 531 536 699 650 729 747 659 792 797 1098 805 349 222 877 756 500 270 177 109 149 95 148 274 123 45 18 27 3 3 10
0 4 5 94 79 143 146 118 6 2 14 0 9 5 13 111 314 283 364 492 619 659 779 1052 1213 1125 1121 1247 1184 956 729 448 720 653 498 287 159 95 276 125 224 162 10 18 39 38 17 2 28
4 5 39 82 51 185 377 117 112 33 42 63 15 37 15 16 94 445 462 564 578 691 1236 1849 1842 1766 1544 1345 1238 1090 926 779 589 318 319 336 217 326 209 110 98 128 40 43 66 30 11 22 11

GFSSGP_con_mucape_051.txt.gz
CAPE
0 0 0 0 0 0 0 0 0 0 0 266 291 287 160 69 140 705 423 747 340 33 560 631 1256 1599 1599 1520 1374 1180 1054 923 714 598 704 880 978 1044 1022 446 230 236 131 0 0 0 0 0 0
0 0 0 0 0 0 0 0 0 107 206 242 261 224 140 211 1019 1192 513 315 113 26 118 130 703 1437 1643 1551 1343 1145 1028 896 685 668 916 990 980 1035 1039 362 248 299 195 0 0 0 0 0 12
0 0 0 0 0 0 0 0 0 219 171 261 224 285 763 385 196 953 1477 274 238 390 465 762 859 1213 1534 1432 1210 1022 937 708 621 780 951 1002 1019 1029 1072 470 369 386 203 0 0 0 0 0 6
0 0 0 0 0 0 0 9 134 39 10 163 49 1153 995 772 242 99 1314 247 661 875 1008 940 821 1010 1367 1290 1121 978 689 503 619 784 1007 1162 1185 1130 1072 744 486 476 183 0 0 0 0 0 0
0 0 0 0 0 0 32 5 209 293 224 353 204 216 650 320 611 1167 1027 787 921 1286 1112 1094 876 639 539 719 1080 790 533 607 763 878 1082 1277 1324 1221 1106 950 537 415 192 19 0 0 0 0 0
0 0 0 0 0 37 65 7 5 28 537 396 262 133 20 202 628 788 807 967 870 1056 948 556 743 429 310 418 643 653 650 758 749 909 1212 1448 1423 1236 1204 1027 529 382 220 188 85 43 0 0 0
0 0 0 0 0 5 22 6 1 49 158 131 101 230 102 63 468 663 866 811 769 679 566 516 553 396 249 165 358 578 547 603 672 638 702 793 961 1072 1121 822 530 368 251 165 101 34 0 0 0
0 0 0 0 0 3 0 0 46 96 215 202 44 91 385 103 439 628 614 722 738 625 540 394 350 257 205 46 224 408 439 437 377 316 272 594 702 775 680 512 351 277 198 153 85 22 0 0 0
0 0 0 0 3 0 0 70 76 54 134 107 38 0 227 372 346 361 348 678 619 518 431 518 330 239 81 72 331 440 380 258 212 164 112 169 330 357 207 269 314 255 172 133 73 0 0 0 0
0 0 0 0 3 0 0 0 100 58 109 7 0 6 459 331 609 353 314 346 741 422 325 362 281 123 24 72 193 237 161 82 50 17 1 16 55 117 222 284 270 209 126 75 14 0 0 0 0
0 0 0 0 2 1 0 110 556 283 247 65 64 133 430 300 289 534 474 576 496 425 272 181 170 59 31 41 93 73 56 73 25 3 13 67 82 116 142 179 130 101 11 0 0 0 0 0 0
0 0 0 0 12 0 6 24 113 197 410 438 674 495 442 381 370 592 347 478 495 389 268 176 72 69 48 9 1 0 16 48 22 90 100 129 80 79 74 40 53 16 0 0 0 0 0 0 0
1 0 1 0 4 13 0 0 36 29 481 344 481 589 335 214 237 189 432 502 401 331 239 201 54 62 30 10 0 0 21 55 70 127 152 131 116 76 65 65 9 0 0 0 0 0 0 0 0
0 0 0 0 0 28 10 14 0 19 158 384 383 234 150 113 70 103 146 225 284 398 199 27 21 20 10 4 4 5 4 52 71 99 164 238 155 151 107 128 136 58 28 28 0 0 0 0 0
0 0 0 0 0 8 14 4 8 4 177 489 305 147 125 31 27 40 136 88 169 65 39 60 10 20 35 22 8 3 3 35 48 54 147 249 249 185 245 241 192 179 83 56 0 0 0 0 0
0 0 0 0 3 51 43 19 0 2 68 419 207 98 30 1 1 3 9 9 20 11 12 32 49 13 5 4 3 0 0 81 115 166 182 147 266 332 264 192 238 108 84 41 19 0 0 0 0
0 0 0 0 61 64 20 0 6 7 52 230 316 128 0 18 0 0 3 0 12 21 19 14 8 4 2 7 1 3 1 56 126 111 103 134 163 214 156 312 244 143 92 37 3 0 0 0 0
0 0 0 21 14 40 43 8 7 0 35 38 194 133 32 40 7 0 0 0 0 1 6 0 0 2 4 3 0 2 10 30 34 14 27 178 107 128 341 326 265 192 97 22 0 0 0 0 0
0 2 0 5 12 6 2 26 0 0 54 70 176 132 52 37 4 0 0 0 0 0 0 0 0 0 0 1 0 0 0 6 3 11 25 53 162 229 350 330 255 230 97 52 19 1 0 0 0
0 0 0 21 17 0 24 39 0 0 76 112 170 85 0 0 0 0 0 0 0 0 0 0 0 0 0 0 0 0 0 9 32 6 38 15 171 248 355 360 362 216 125 55 33 35 5 0 0
0 0 0 9 16 8 0 13 23 33 91 78 136 105 12 21 12 0 0 0 0 0 0 0 0 0 0 0 0 0 13 45 0 7 0 21 317 302 331 438 333 236 167 56 53 44 25 7 1
0 0 1 1 0 1 5 0 43 77 96 107 56 84 56 66 38 0 0 0 0 0 0 0 0 0 0 0 0 0 0 33 1 0 1 256 319 285 360 385 284 260 237 79 84 28 23 18 28
0 0 1 0 0 0 0 1 17 128 119 14 38 63 75 125 50 19 0 0 0 0 0 0 0 0 0 0 0 0 8 31 0 0 0 284 383 371 303 312 278 274 238 163 73 45 68 56 32
0 3 0 0 0 0 0 0 4 1 0 13 5 91 75 80 88 17 41 1 35 18 0 0 0 0 0 0 0 37 129 146 53 0 0 217 262 296 258 179 217 251 240 198 48 47 65 125 83
0 0 0 0 0 0 12 12 0 1 0 17 25 46 83 105 133 94 113 53 79 99 79 7 0 0 0 0 0 60 190 168 149 40 31 110 218 277 118 68 139 181 138 79 87 47 43 80 17
0 0 0 0 0 0 0 6 0 0 0 0 3 58 93 107 145 173 195 197 205 203 117 126 96 93 78 135 146 183 291 291 249 45 293 225 154 270 96 143 152 163 149 103 50 46 64 55 98
0 0 0 36 8 0 1 18 3 0 0 0 3 11 147 145 166 137 217 217 175 274 256 245 238 184 214 240 282 262 167 209 313 274 407 345 354 309 178 46 54 146 153 190 80 97 54 26 26
0 0 8 17 0 0 6 55 20 5 0 0 0 0 36 175 180 126 107 125 147 259 308 349 293 310 288 401 503 492 429 330 513 703 535 576 495 349 287 92 55 117 223 89 67 159 20 61 54
0 0 0 28 37 0 0 1 2 0 0 0 0 0 37 66 97 111 122 139 177 162 235 413 344 225 403 369 381 586 774 796 640 605 673 567 441 300 233 157 145 170 168 130 127 46 61 60 23
0 0 0 3 29 51 18 2 4 4 0 0 0 0 0 129 159 149 198 155 210 265 185 242 307 342 398 558 443 559 541 430 734 395 676 615 395 292 244 140 138 85 88 139 120 78 17 36 50

GFSSGP_con_mucape_057.txt.gz
CAPE
0 0 0 0 0 0 0 0 0 0 0 3 72 86 120 298 611 329 922 924 1398 1328 1204 863 884 898 754 997 1283 1319 1235 1400 1462 1294 927 843 773 690 432 263 300 470 427 87 70 45 17 16 27
0 0 0 0 0 0 0 0 0 0 18 102 115 181 274 547 851 850 1127 1263 1421 1114 571 619 485 562 440 367 1125 1356 1307 1517 1572 1349 1037 969 816 592 366 260 310 513 452 47 12 4 2 2 59
0 0 0 0 0 0 0 0 0 2 55 89 365 697 580 445 689 968 1153 1269 1257 1126 1107 765 349 209 335 161 1037 1236 1150 1416 1606 1303 1048 980 807 604 323 200 350 494 439 7 0 0 0 65 8
0 0 0 0 0 0 0 0 0 37 58 174 615 682 846 689 725 529 1182 1272 929 584 1287 976 473 109 432 634 1030 957 1136 1249 1433 1259 1021 974 848 625 292 164 327 577 335 0 0 0 1 0 0
0 0 0 0 0 0 0 0 0 110 159 150 186 313 624 621 590 989 1250 1030 1083 859 1089 926 733 706 901 1024 544 657 1177 1217 1326 1297 867 873 819 577 319 157 256 349 180 0 0 0 70 0 0
0 0 0 0 0 0 0 0 15 70 53 60 98 95 104 171 279 697 1002 928 583 479 972 797 803 764 596 450 382 306 714 1055 1196 1198 823 916 731 493 356 216 152 86 8 0 0 6 51 0 0
0 0 0 0 0 0 0 0 9 69 58 73 109 247 77 66 264 891 1166 1197 1140 857 662 461 463 259 141 85 2 32 302 796 846 875 840 743 601 407 336 232 87 0 0 0 0 0 0 1 0
0 0 0 0 0 0 0 0 20 23 37 66 76 41 356 168 252 1030 1061 905 817 563 372 467 264 243 153 4 13 8 317 671 560 677 951 566 509 357 236 61 0 0 0 0 0 0 11 0 0
0 0 0 0 0 0 10 21 3 0 18 20 0 5 136 128 406 957 442 303 517 439 282 202 115 118 52 56 0 45 322 669 730 823 843 360 163 21 0 0 0 0 0 0 0 0 5 5 0
0 0 0 0 0 0 13 9 2 8 0 0 0 36 173 107 373 396 63 169 267 180 158 151 153 143 106 47 1 35 224 350 559 649 547 231 54 0 0 0 0 5 5 8 1 0 0 0 0
0 0 0 0 0 0 6 65 40 1 0 0 31 0 202 53 29 252 66 26 29 25 178 100 68 58 16 3 7 49 202 192 300 416 358 174 24 5 0 0 0 0 1 0 0 0 0 0 0
0 0 0 0 0 0 0 0 8 23 82 345 175 20 57 29 52 55 187 42 80 112 168 131 99 34 0 0 0 2 134 95 199 256 259 138 1 0 6 4 0 0 0 0 0 0 0 0 0
0 0 0 0 0 0 0 0 15 363 300 244 156 107 17 0 28 54 124 127 120 120 152 117 99 75 9 7 7 23 3 1 135 206 215 87 1 0 12 3 0 0 4 0 0 0 0 0 0
0 0 0 0 0 0 0 0 0 18 129 179 51 2 1 0 36 22 80 44 33 65 43 52 106 85 69 54 4 4 14 69 156 165 155 20 0 13 10 2 2 6 9 14 4 0 0 0 0
0 0 0 0 0 0 0 0 0 0 91 80 22 9 0 2 0 1 15 51 82 109 20 32 75 38 64 46 5 5 47 100 119 117 83 9 0 2 1 5 19 18 20 6 0 0 0 0 0
0 0 0 0 0 0 0 0 0 32 109 117 47 17 1 2 0 0 2 13 70 47 42 81 53 26 46 34 28 7 8 27 33 26 34 15 1 1 2 11 6 18 48 16 35 19 0 0 0
0 0 0 0 0 0 0 0 0 99 176 82 81 30 1 0 0 0 0 6 36 11 13 60 31 33 4 19 15 8 39 67 76 89 71 51 23 22 35 44 88 65 73 64 78 41 16 0 0
0 0 0 0 0 0 0 0 0 3 15 25 66 29 1 0 0 0 0 1 29 22 23 9 24 11 15 17 4 16 99 83 72 82 113 119 136 204 162 162 177 140 67 41 97 63 37 0 0
0 0 0 0 0 0 0 0 0 0 35 26 43 18 0 0 0 0 0 0 2 4 3 0 8 6 6 35 30 2 74 82 41 63 72 114 142 140 186 177 159 195 164 153 112 89 51 12 5
0 0 0 0 0 0 0 0 0 0 2 61 75 44 6 0 0 0 0 0 0 0 5 2 0 4 4 23 11 5 5 20 6 27 15 50 64 71 78 119 180 160 103 91 83 69 56 30 26
0 0 0 0 0 0 0 0 0 0 0 0 27 69 42 7 0 0 0 0 0 0 0 0 2 1 5 3 2 4 1 8 14 9 0 14 4 5 0 37 29 134 146 93 76 59 48 58 58
0 0 0 0 0 0 0 0 0 0 0 0 0 1 78 45 0 0 0 0 0 0 0 0 0 0 0 0 6 0 1 0 5 6 3 9 3 0 0 1 25 81 151 151 125 101 89 70 57
0 0 0 0 0 2 1 0 0 0 0 0 0 9 15 88 36 0 0 0 0 0 0 0 0 0 0 0 0 0 0 0 0 0 0 0 0 0 0 7 41 53 121 146 148 103 103 86 61
0 0 0 0 0 0 0 0 0 0 0 0 0 0 21 22 105 23 2 0 0 0 0 0 0 0 0 0 0 0 0 0 0 0 0 0 0 0 0 9 29 20 49 151 113 93 89 54 55
0 0 0 0 0 0 0 0 0 0 0 0 0 4 24 46 112 68 47 0 0 0 0 0 0 0 0 0 0 0 0 0 0 0 0 0 0 7 23 15 53 57 57 106 58 42 96 73 70
0 0 0 0 0 0 0 0 0 0 0 0 10 10 16 75 42 99 77 44 0 0 0 0 0 0 0 0 0 0 0 0 0 0 0 0 0 4 28 12 33 66 155 138 51 1 87 76 85
0 0 0 0 0 0 0 0 0 0 0 0 0 41 56 110 67 58 106 95 35 35 1 0 0 0 0 0 0 0 0 0 0 0 3 3 23 33 51 112 33 57 142 107 56 24 90 94 100
0 0 0 0 0 0 0 0 0 0 0 0 0 6 53 87 93 79 104 139 99 47 22 0 0 0 0 0 0 0 0 0 0 0 32 23 30 26 58 140 99 46 105 138 58 85 122 131 158
0 0 0 0 0 0 0 0 0 0 0 0 0 0 1 22 53 97 102 135 175 134 125 63 16 11 0 0 0 0 0 0 0 0 0 19 84 99 144 130 107 48 69 106 142 128 87 101 111
0 0 0 0 0 0 0 0 0 0 0 0 0 0 0 15 27 79 91 87 140 173 189 167 112 92 74 18 0 0 3 19 14 15 9 28 29 73 105 142 149 0 110 114 79 56 69 82 90

GFSSGP_con_mucape_060.txt.gz
CAPE
0 0 0 0 0 0 0 0 0 0 0 0 0 16 37 97 254 144 681 1211 1403 1258 1295 1368 1364 1424 1481 1562 1375 1419 1513 1554 1481 1277 1122 1050 925 600 533 577 552 583 543 118 79 47 10 9 10
0 0 0 0 0 0 0 0 0 0 0 0 47 113 151 317 589 639 964 1156 1519 1351 1170 1016 1334 1376 1512 1443 1434 1515 1597 1600 1395 1234 1107 1055 886 679 759 608 520 597 635 302 104 188 72 7 8
0 0 0 0 0 0 0 0 0 0 0 4 75 412 448 322 747 1079 1043 1407 1847 1304 841 883 1144 1150 1251 1331 1355 1521 1557 1448 1229 1201 1170 1034 810 807 798 566 520 649 598 209 209 169 77 3 8
0 0 0 0 0 0 0 0 0 0 0 5 278 377 637 498 526 956 1202 2021 1578 1309 784 527 537 837 877 765 1307 1492 1445 1200 1041 1054 1077 967 756 825 730 497 512 567 379 85 28 189 2 0 0
0 0 0 0 0 0 0 0 0 0 13 14 11 80 618 736 578 841 1217 1655 1444 1060 1118 947 398 770 812 846 1133 1128 1324 1095 966 916 845 788 634 721 596 515 395 188 29 18 111 1 0 0 0
0 0 0 0 0 0 0 0 0 3 0 3 11 4 7 117 332 470 845 1279 1229 1011 968 1138 784 768 784 841 540 471 612 616 814 699 718 643 454 452 586 410 199 36 84 175 231 15 0 0 0
0 0 0 0 0 0 0 0 0 0 4 0 0 40 18 13 166 506 768 1043 810 946 648 1044 706 638 401 215 60 67 153 522 680 585 648 546 414 343 362 217 28 7 96 258 76 0 0 0 0
0 0 0 0 0 0 0 0 0 0 0 12 17 7 95 201 150 775 1111 1263 1098 665 693 827 306 287 128 61 29 64 18 396 623 684 580 438 364 256 112 0 0 0 0 49 42 0 0 0 0
0 0 0 0 0 0 0 0 0 0 16 21 0 0 27 46 231 627 801 875 982 537 422 384 250 230 94 31 24 4 5 137 409 560 408 293 151 53 0 0 0 0 0 2 12 33 1 0 0
0 0 0 0 0 0 0 0 0 0 12 5 0 11 96 42 219 341 645 153 420 356 331 229 119 43 17 50 6 0 0 7 111 425 316 174 70 0 0 0 0 0 0 4 27 43 12 0 0
0 0 0 0 0 0 0 0 0 0 1 0 0 6 40 40 49 434 80 256 234 108 82 70 51 40 41 48 21 4 0 49 101 376 277 131 30 2 0 0 0 0 0 0 0 0 0 0 0
0 0 0 0 0 0 0 0 0 0 0 43 117 23 318 40 218 32 260 44 41 31 54 37 78 72 39 39 30 46 3 28 82 213 233 77 0 0 0 0 0 0 0 0 0 0 0 0 0
0 0 0 0 0 0 0 0 0 11 231 231 133 76 47 27 14 65 41 97 52 5 77 54 59 36 3 1 0 1 5 10 60 152 215 80 13 0 0 0 0 0 0 0 0 0 0 0 0
0 0 0 0 0 0 0 0 0 0 132 88 72 40 115 99 0 31 18 16 32 52 55 81 94 52 3 6 3 0 0 9 58 120 165 66 0 0 0 0 9 5 0 0 0 0 0 0 0
0 0 0 0 0 0 0 0 0 0 82 77 40 5 5 35 9 2 2 25 41 33 75 50 78 56 44 37 4 45 2 15 65 105 149 46 0 1 12 4 18 9 5 3 12 6 12 0 0
0 0 0 0 0 0 0 0 0 0 41 54 19 12 0 3 3 2 0 2 94 22 28 82 41 31 20 26 20 42 37 18 64 125 137 88 18 17 21 25 5 19 10 23 21 27 14 8 0
0 0 0 0 0 0 0 0 0 0 14 32 48 17 13 0 1 0 0 0 25 25 39 14 41 41 13 16 20 23 99 72 137 130 139 119 23 14 25 22 22 14 32 23 38 71 71 24 2
0 0 0 0 0 0 0 0 0 3 9 68 35 22 30 3 0 0 0 0 12 8 18 36 21 40 43 35 5 66 90 139 117 126 136 66 29 21 16 15 20 49 61 59 84 106 90 65 18
0 0 0 0 0 0 0 0 0 0 0 27 0 0 24 11 0 0 0 0 0 2 0 0 15 29 19 3 9 3 0 31 42 59 66 64 75 79 56 65 74 77 82 61 67 77 92 72 46
0 0 0 0 0 0 0 0 0 0 0 0 0 0 13 5 0 0 5 4 0 0 0 0 1 6 5 1 9 4 0 39 89 100 101 100 106 134 179 201 161 167 130 147 134 123 102 71 51
0 0 0 0 0 0 0 0 0 0 0 0 0 7 23 29 0 0 1 3 0 0 0 0 1 9 4 34 12 4 60 4 60 84 37 28 39 61 77 118 141 180 148 123 107 86 67 83 50
0 0 0 0 0 0 0 0 0 0 0 0 0 2 23 25 0 0 0 1 1 0 0 0 0 8 2 2 6 5 3 3 0 5 40 41 46 48 16 26 35 53 93 113 115 83 53 44 31
0 0 0 0 0 0 0 0 0 0 0 0 0 0 0 0 37 14 0 0 0 0 0 0 0 0 0 1 0 0 2 5 5 0 0 0 4 10 8 12 7 6 40 90 82 77 65 52 63
0 0 0 0 0 0 0 0 0 0 0 0 0 0 0 0 1 34 5 0 0 0 0 0 0 0 0 0 0 0 0 0 1 0 0 0 0 0 0 5 0 3 43 47 34 73 79 77 75
0 0 0 0 0 0 0 0 0 0 0 0 0 0 0 0 8 23 51 6 0 0 0 0 0 0 0 0 0 0 0 0 0 0 0 0 0 0 0 0 0 4 14 12 18 27 47 47 45
0 0 0 0 0 0 0 0 0 0 0 0 0 0 0 1 3 15 82 45 23 0 0 0 0 0 0 0 0 0 0 0 0 0 0 0 0 0 0 0 0 18 26 15 21 20 28 54 45
0 0 0 0 0 0 0 0 0 0 0 0 0 0 0 0 6 27 47 89 73 30 0 0 0 0 0 0 0 0 0 0 0 0 0 0 0 0 0 0 0 0 1 42 9 29 72 52 39
0 0 0 0 0 0 0 0 0 0 0 0 0 0 0 0 10 15 76 67 81 83 55 3 0 0 0 0 0 0 0 0 0 0 0 0 0 0 0 0 0 2 25 56 57 42 80 66 26
0 0 0 0 0 0 0 0 0 0 0 0 0 0 0 0 8 11 41 76 75 93 105 99 14 0 0 0 0 0 0 0 0 0 0 5 6 21 11 15 23 31 123 66 91 71 71 92 45
0 0 0 0 0 0 0 0 0 0 0 0 0 0 0 0 0 0 11 31 61 81 108 131 108 92 47 13 0 0 0 0 0 0 0 0 0 0 0 0 6 32 112 99 99 26 69 97 88

GFSSGP_con_mucape_063.txt.gz
CAPE
0 0 0 0 0 0 0 0 0 0 0 0 2 2 11 87 171 207 455 1189 1426 1323 1237 1232 1378 1576 1670 1754 1825 1783 1763 1709 1563 1459 1358 1193 993 818 716 587 490 460 340 21 25 33 42 31 24
0 0 0 0 0 0 0 0 0 0 0 0 12 119 97 201 361 495 910 1308 1584 1467 1370 1404 1462 1565 1664 1703 1764 1800 1934 1797 1594 1468 1331 1087 870 827 784 641 473 452 390 20 17 18 26 40 19
0 0 0 0 0 0 0 0 0 0 0 0 6 453 211 250 299 857 918 1221 1616 1606 1605 1617 1407 1499 1660 1697 1816 1857 1736 1574 1430 1329 1284 948 1003 974 891 656 549 588 574 195 32 11 9 10 17
0 0 0 0 0 0 0 0 0 0 0 0 10 431 651 373 280 966 879 1183 1582 1325 1363 1190 1198 1164 1724 1808 1890 1760 1492 1285 1238 1144 1068 986 1103 1049 842 605 642 656 621 477 25 4 5 10 2
0 0 0 0 0 0 0 0 0 0 0 0 0 14 431 387 232 591 988 1119 1591 1368 1186 976 869 1049 1378 1866 1903 1694 1345 1183 1149 997 784 942 1054 921 707 593 548 542 531 516 63 0 0 1 0
0 0 0 0 0 0 0 0 0 0 0 0 0 0 1 29 367 342 652 970 1258 1250 1189 899 660 896 1054 1289 1228 1402 1235 1179 1005 846 685 870 773 605 517 397 282 288 474 422 63 0 0 0 0
0 0 0 0 0 0 0 0 0 0 0 0 4 29 39 0 50 420 733 854 844 925 800 1229 838 996 933 860 631 891 1021 1061 870 696 540 486 309 339 383 186 190 271 434 208 2 0 0 0 0
0 0 0 0 0 0 0 0 0 0 0 7 21 72 153 319 138 546 738 1010 1285 567 650 1216 703 986 938 570 577 416 574 742 660 496 341 235 221 298 234 126 261 411 377 140 0 0 0 0 0
0 0 0 0 0 0 0 0 0 0 5 15 8 11 34 80 154 289 423 825 860 846 698 955 452 475 554 268 191 187 203 325 443 408 279 196 401 165 14 17 158 352 148 25 0 0 7 0 0
0 0 0 0 0 0 0 0 0 0 0 10 5 3 66 74 212 241 291 349 706 330 457 433 379 279 167 124 48 23 45 87 168 337 297 223 103 0 0 5 44 121 107 73 13 11 5 0 0
0 0 0 0 0 0 0 0 0 0 3 6 0 9 18 26 50 102 236 235 157 103 169 137 47 150 120 91 15 15 12 96 118 214 204 159 33 0 3 0 3 50 65 37 8 1 0 0 0
0 0 0 0 0 0 0 0 8 5 7 55 37 16 13 163 27 25 71 49 111 115 44 34 73 59 45 40 17 20 6 2 87 143 256 164 1 1 0 0 3 8 0 35 13 0 0 0 0
0 0 0 0 0 0 0 0 0 6 42 255 100 28 18 61 9 5 11 70 33 62 68 22 39 40 2 6 5 29 11 3 20 142 233 71 9 5 11 2 1 0 0 2 0 0 0 0 0
0 0 0 0 0 0 0 0 0 0 206 158 23 0 13 30 4 2 0 5 27 53 47 27 19 38 28 6 0 21 9 4 63 153 231 114 43 19 12 7 0 0 0 0 0 0 0 0 0
0 0 0 0 0 0 0 0 0 0 227 15 233 0 0 1 0 2 1 0 22 28 49 37 28 13 9 2 0 0 4 3 35 167 208 128 70 79 48 14 0 0 0 6 0 0 0 0 0
0 0 0 0 0 0 0 0 0 0 143 22 124 5 0 1 1 1 1 3 7 16 23 6 14 24 29 2 12 1 4 48 12 59 130 121 100 65 33 6 3 6 6 16 6 10 19 1 0
0 0 0 0 0 0 0 0 0 2 76 85 71 0 0 0 0 1 2 0 19 16 6 21 21 50 31 24 8 3 3 69 24 3 45 90 82 69 58 19 26 28 35 32 35 51 53 37 10
0 0 0 0 0 0 0 0 0 0 68 78 87 3 0 0 0 0 2 2 17 41 52 3 21 62 24 5 1 11 3 64 67 46 21 76 56 51 71 63 57 47 38 52 56 72 85 71 62
0 0 0 0 0 0 0 0 0 0 26 65 98 21 0 0 0 0 1 0 0 17 4 2 36 19 2 0 12 4 1 65 106 75 28 79 51 63 121 128 94 90 115 86 57 56 83 82 83
0 0 0 0 0 0 0 0 0 0 0 14 32 7 0 0 0 0 2 0 0 0 0 0 10 10 7 10 4 11 0 5 57 73 46 72 65 86 124 155 178 134 148 114 75 66 77 67 93
0 0 0 0 0 0 0 0 0 0 0 0 0 0 0 0 0 0 0 0 0 0 0 0 0 1 3 16 12 5 5 77 56 72 60 86 107 148 182 189 200 206 256 231 175 83 86 110 52
0 0 0 0 0 0 0 0 0 0 0 0 0 3 19 0 0 0 0 0 0 0 0 0 0 0 4 18 3 0 9 7 5 45 57 56 99 138 118 110 121 175 225 180 141 58 103 111 83
0 0 0 0 0 0 0 0 0 0 0 0 0 0 31 2 5 0 0 0 1 0 0 0 0 3 0 9 8 6 0 0 8 0 53 82 72 53 61 55 95 130 184 208 215 112 121 121 94
0 0 0 0 0 0 0 0 0 0 0 0 0 0 0 14 0 8 0 0 0 1 10 0 0 0 1 0 5 12 12 8 3 7 0 46 47 42 64 50 76 114 120 140 190 187 131 98 91
0 0 0 0 0 0 0 0 0 0 0 0 0 0 0 4 1 0 12 0 0 0 7 0 0 0 0 3 4 2 3 3 5 7 3 9 23 22 34 44 51 57 79 115 170 175 128 96 45
0 0 0 0 0 0 0 0 0 0 0 0 0 0 0 0 6 0 6 41 0 0 0 0 0 0 0 0 0 0 0 0 0 1 1 0 14 25 10 26 34 32 48 91 137 131 124 61 20
0 0 0 0 0 0 0 0 0 0 0 0 0 0 0 0 6 9 22 35 20 1 0 0 0 0 0 0 0 0 0 0 0 0 0 0 0 0 0 4 5 5 21 58 108 135 132 50 18
0 0 0 0 0 0 0 0 0 0 0 0 0 0 0 0 0 5 18 32 52 18 20 0 0 0 0 0 0 0 0 0 0 0 0 0 0 0 0 0 0 0 0 21 43 49 23 62 64
0 0 0 0 0 0 0 0 0 0 0 0 0 0 0 0 0 0 10 25 44 48 49 66 26 0 0 0 0 0 0 0 0 0 0 0 0 0 0 0 0 0 0 1 2 2 75 60 63
0 0 0 0 0 0 0 0 0 0 0 0 0 0 0 0 0 0 0 5 42 63 67 93 96 99 30 0 0 0 0 0 0 0 0 0 0 0 0 3 0 0 0 0 10 22 35 36 52

GFSSGP_con_mucape_066.txt.gz
CAPE
0 0 0 0 0 0 0 0 0 0 0 0 0 1 5 32 21 74 944 1344 1388 1411 1459 1319 1578 1940 2009 1888 1815 1855 1867 1734 1577 1517 1537 1522 1494 1361 1197 912 768 690 696 119 12 18 32 24 10
0 0 0 0 0 0 0 0 0 0 0 0 11 76 115 96 316 685 1143 1414 1621 1524 1504 1272 1538 1817 2044 1972 1945 1917 1952 1775 1646 1669 1628 1532 1387 1200 996 698 484 465 501 84 21 15 18 21 11
0 0 0 0 0 0 0 0 0 0 0 0 11 200 244 106 318 1250 1156 1463 1915 1584 1548 1386 1486 1341 1953 2013 1982 1958 1830 1677 1664 1607 1599 1441 1248 1053 787 463 322 346 318 14 20 43 21 16 21
0 0 0 0 0 0 0 0 0 0 0 0 10 57 774 947 495 1142 1102 1546 1648 1796 1440 1324 1334 1292 1534 2027 2042 1966 1727 1594 1546 1443 1441 1499 1315 1104 754 451 403 410 253 14 18 30 24 16 0
0 0 0 0 0 0 0 0 0 0 0 18 32 12 122 839 574 825 1211 1464 1466 2068 1552 1832 1246 971 627 1097 1594 1901 1610 1507 1401 1266 1345 1350 1301 1098 734 576 532 532 298 22 13 10 5 1 0
0 0 0 0 0 0 0 0 0 0 0 0 27 28 71 300 517 551 948 1389 1571 1663 1737 1646 794 595 460 792 1437 1509 1345 1341 1215 1151 1247 1304 1126 903 784 707 675 520 245 41 11 6 3 0 0
0 0 0 0 0 0 0 0 0 0 0 0 40 54 174 178 290 513 737 1138 1561 1275 1584 1413 993 874 801 663 1030 1042 1157 1156 1046 1089 1094 1007 819 686 656 623 621 531 191 49 6 5 0 0 0
0 0 0 0 0 0 0 0 0 0 0 147 100 0 99 839 441 652 743 913 1340 1110 940 1359 1691 1235 1048 1165 693 605 875 843 853 984 857 582 507 374 250 251 529 420 181 87 19 0 0 0 0
0 0 0 0 0 0 0 0 0 0 0 83 193 213 308 257 352 453 553 894 1051 1308 1150 1352 1084 1089 905 731 749 674 598 515 605 730 490 402 486 266 140 148 390 261 126 88 16 0 0 0 0
0 0 0 0 0 0 0 0 0 0 2 38 167 256 142 244 399 449 331 581 649 655 761 1321 1095 1051 886 588 687 558 288 288 240 334 259 346 403 222 26 195 252 195 103 90 27 0 0 0 0
0 0 0 0 0 0 0 0 0 0 0 1 16 166 180 311 296 319 365 108 214 265 627 697 546 314 373 326 80 113 202 86 109 228 224 381 384 78 110 333 358 181 52 3 0 0 0 0 0
0 0 0 0 0 0 0 0 0 0 8 93 4 158 303 182 174 104 118 76 158 199 85 71 155 119 98 101 124 52 40 4 24 82 202 263 186 183 167 184 187 127 63 34 1 0 0 0 0
0 0 0 0 0 0 0 0 0 0 4 211 288 287 402 201 81 40 62 87 161 127 22 22 0 9 5 59 17 10 7 25 20 4 100 278 201 168 83 192 214 179 207 148 70 25 0 0 0
0 0 0 0 0 0 0 0 0 0 0 307 380 342 245 63 0 5 54 7 86 48 24 0 18 39 36 25 25 24 33 3 70 52 123 249 213 163 81 76 67 66 158 163 81 40 3 0 0
0 0 0 0 0 0 0 0 0 0 84 242 275 307 203 25 0 0 16 61 49 32 21 14 1 25 8 33 35 20 36 10 4 56 170 306 174 145 175 78 62 54 63 59 37 33 8 0 0
0 0 0 0 0 0 0 0 0 0 87 211 199 306 175 71 0 1 0 1 5 6 21 0 0 5 5 21 10 37 12 10 3 55 137 177 164 160 163 108 87 58 50 25 23 24 18 7 1
0 0 0 0 0 0 0 0 0 20 29 55 314 402 279 141 0 0 1 0 12 34 10 11 4 12 1 12 3 8 6 3 64 101 143 103 163 179 131 105 71 128 96 27 18 31 13 2 0
0 0 0 0 0 0 0 0 0 1 25 97 233 458 408 185 0 0 1 0 7 19 24 22 23 29 19 4 3 4 4 7 55 62 136 115 85 107 94 80 110 121 173 133 98 108 74 39 15
0 0 0 0 0 0 0 0 0 0 8 110 188 378 477 290 96 0 0 4 7 13 19 12 11 23 19 9 0 0 2 80 23 37 70 138 103 146 196 103 126 153 167 235 200 200 155 97 76
0 0 0 0 0 0 0 0 0 0 0 24 149 287 412 291 166 0 0 6 13 0 2 7 12 1 10 9 2 0 7 7 18 12 43 75 121 81 119 167 144 150 165 208 266 251 210 219 122
0 0 0 0 0 0 0 0 0 0 0 13 56 95 275 332 267 2 0 3 4 0 0 0 0 4 3 5 7 3 8 2 53 66 68 68 100 33 79 166 162 202 215 220 237 244 278 282 211
0 0 0 0 0 0 0 0 0 0 0 0 6 87 134 242 237 102 0 0 8 0 0 0 0 0 5 1 10 10 0 0 3 38 43 42 108 62 69 200 246 273 330 291 293 286 267 322 303
0 0 0 0 0 0 0 0 0 0 0 0 0 3 138 223 284 210 24 0 0 8 3 20 0 0 2 1 3 4 3 0 3 1 72 31 67 129 139 249 273 311 409 316 490 321 372 373 479
0 0 0 0 0 0 0 0 0 0 0 0 0 0 15 223 296 269 113 2 0 2 12 16 17 0 0 6 4 3 0 8 0 9 28 26 26 93 93 123 249 277 254 301 316 356 503 333 430
0 0 0 0 0 0 0 0 0 0 0 0 0 0 2 124 315 298 182 55 0 0 7 8 15 19 2 1 5 1 2 9 2 3 10 13 5 24 35 124 203 180 166 195 218 323 306 360 365
0 0 0 0 0 0 0 0 0 0 0 0 0 0 0 69 264 296 247 137 7 0 0 10 10 10 13 17 0 0 0 3 2 11 0 0 11 42 27 107 149 137 194 202 239 370 239 332 411
0 0 0 0 0 0 0 0 0 0 0 0 0 0 6 20 149 261 240 205 102 0 0 0 1 3 10 17 18 0 0 0 10 23 8 8 5 32 79 130 83 106 129 142 160 261 215 287 499
0 0 0 0 0 0 0 0 0 0 0 0 0 0 2 57 112 196 258 220 146 36 0 0 0 0 2 5 9 10 8 10 13 27 24 18 38 40 73 88 64 96 76 68 101 196 158 218 541
0 0 0 0 0 0 0 0 0 0 0 0 0 0 0 64 157 196 233 263 194 94 10 2 0 0 0 1 5 5 7 15 18 14 13 11 14 10 11 9 19 29 27 64 122 95 82 139 195
0 0 0 0 0 0 0 0 0 0 0 0 0 0 0 0 13 189 237 212 220 157 53 12 27 32 0 0 0 3 7 4 6 9 11 31 30 17 10 4 0 1 22 69 119 171 23 44 8

GFSSGP_con_mucape_069.txt.gz
CAPE
0 0 0 0 0 0 0 0 0 0 0 0 0 0 0 0 0 60 1224 1413 1536 1544 2074 1500 1647 1951 2075 1930 1730 1759 1841 1777 1584 1498 1498 1588 1422 1436 1383 1205 1082 1020 803 120 258 263 210 193 141
0 0 0 0 0 0 7 0 0 0 0 0 0 0 0 12 40 58 976 1710 1603 1571 1804 1429 1580 1938 2059 1822 1730 1822 1959 1826 1661 1682 1741 1756 1666 1535 1319 1103 967 853 606 68 211 169 95 42 12
0 0 0 0 0 0 0 0 0 0 0 0 0 3 1 37 283 795 1392 1719 1992 1724 1686 1665 1625 1860 1970 1837 1817 1836 1820 1663 1686 1731 1896 1828 1686 1467 1185 830 790 747 447 36 57 79 35 9 12
0 0 0 0 0 0 0 0 0 0 0 0 0 0 83 1064 556 1126 1318 1751 2057 1820 1618 1358 1453 1670 1568 1760 1762 1822 1683 1471 1614 1664 1788 1723 1588 1312 979 723 687 668 527 274 22 31 9 8 0
0 0 0 0 0 0 0 0 0 0 0 0 0 2 45 950 889 909 1298 1565 1937 2233 1822 1533 1197 1314 1334 1499 1002 960 1533 1445 1577 1560 1504 1462 1326 1054 766 576 458 332 344 226 35 13 3 0 0
0 0 0 0 0 0 0 0 0 0 0 0 3 23 26 700 545 894 1069 1405 1698 2203 2019 1727 1281 1224 1052 731 367 9 749 1392 1331 1370 1370 1340 1073 880 758 595 390 190 119 98 38 11 1 0 0
0 0 0 0 0 0 0 0 0 0 0 2 31 5 32 343 533 762 823 1153 1408 1853 2191 1850 1752 1168 521 184 51 0 334 1180 1154 1197 1285 1106 834 754 840 741 377 148 94 51 9 5 0 0 0
0 0 0 0 0 0 0 0 0 0 0 20 0 1 30 1186 726 838 921 1018 1212 1749 1810 1984 1781 1052 500 246 49 125 231 746 972 1147 1053 833 819 835 812 644 276 126 90 25 4 3 0 0 0
0 0 0 0 0 0 0 0 0 0 0 0 3 108 258 577 455 618 723 907 1025 1523 1413 1693 1576 1517 990 680 665 428 450 261 784 961 707 724 901 766 634 339 173 88 27 7 2 0 0 0 0
0 0 0 0 0 0 0 0 0 0 0 2 19 97 302 400 426 465 392 509 658 1068 1300 1305 1341 1390 1189 945 679 652 321 599 651 730 429 415 548 682 557 332 127 46 0 0 0 0 0 0 0
0 0 0 0 0 0 0 0 0 0 0 2 13 6 293 404 459 432 417 356 384 409 677 831 898 1177 1291 1215 1165 681 593 324 222 246 378 373 302 156 511 455 98 0 0 0 0 0 0 0 0
0 0 0 0 0 0 0 0 0 0 0 0 0 12 174 534 396 212 205 250 238 187 374 580 643 640 323 800 415 348 488 143 64 16 79 84 111 145 338 317 37 0 0 0 0 0 18 0 0
0 0 0 0 0 0 0 0 0 0 0 0 4 333 320 455 314 83 132 86 112 187 214 63 1 165 98 63 129 284 64 44 40 23 3 17 75 150 310 247 90 21 73 0 0 21 6 1 0
0 0 0 0 0 0 0 0 0 0 0 0 3 325 444 509 196 13 152 104 102 129 70 13 5 1 16 163 39 20 83 43 13 5 19 44 73 179 259 236 279 167 164 88 39 44 5 0 0
0 0 0 0 0 0 0 0 0 0 0 0 15 310 397 399 146 2 100 86 12 111 43 21 0 4 0 9 6 5 12 15 9 22 49 72 121 236 208 328 285 272 191 287 176 67 3 0 0
0 0 0 0 0 0 0 0 0 0 0 0 84 192 367 403 212 30 22 51 12 17 33 24 0 0 1 1 0 11 23 36 16 18 11 46 187 304 325 262 193 244 283 251 151 55 10 0 0
0 0 0 0 0 0 0 0 1 0 0 3 77 175 395 413 316 66 0 0 12 2 5 3 0 1 3 3 26 43 11 9 20 7 10 74 189 241 282 237 260 391 274 264 189 116 61 29 13
0 0 0 0 2 0 0 0 0 6 0 9 56 207 446 432 306 70 0 1 8 15 29 6 3 5 1 0 1 8 2 4 4 4 55 136 149 201 187 207 302 253 163 125 189 200 122 100 56
0 4 0 7 1 0 0 0 0 2 11 0 51 101 395 503 302 115 0 1 17 0 23 3 3 14 9 2 0 2 4 2 9 8 56 135 169 171 208 166 248 268 259 214 308 280 342 186 145
0 0 0 0 0 0 0 0 0 0 5 7 32 73 159 529 333 172 1 0 7 14 0 0 0 15 10 6 1 0 4 1 1 4 49 134 184 152 143 144 167 208 273 386 389 341 302 246 274
0 0 0 0 1 0 0 0 0 0 0 1 0 1 51 358 370 271 47 0 4 14 0 0 0 3 0 7 0 0 7 1 0 2 0 73 128 120 121 182 218 215 316 410 443 478 436 251 349
0 0 0 0 0 0 0 0 0 1 10 3 4 0 0 141 395 315 127 13 0 10 2 0 0 3 0 0 0 0 0 0 0 0 2 2 121 92 117 173 181 275 338 401 439 437 464 238 218
0 0 0 0 0 0 0 0 0 0 1 1 0 1 5 58 357 358 199 55 17 4 0 0 0 2 0 0 0 0 1 1 2 2 0 0 62 125 78 122 154 144 353 389 498 374 372 351 178
0 0 0 0 0 0 0 0 0 13 5 0 0 1 9 64 236 328 212 112 4 48 17 21 0 0 0 0 0 1 33 0 0 0 3 0 35 155 144 96 102 160 237 366 292 198 191 224 377
0 0 0 0 0 0 1 0 0 2 0 0 0 1 1 53 258 363 204 149 20 35 59 16 14 6 0 0 2 18 0 0 2 3 29 2 4 61 140 81 39 27 64 125 224 117 188 239 364
0 0 0 0 0 8 11 0 7 3 1 0 0 0 0 23 303 403 234 163 54 23 48 51 13 7 2 0 0 13 0 0 0 13 60 6 3 8 61 66 38 102 97 162 167 244 132 286 199
0 0 0 0 12 62 25 2 0 0 0 0 0 0 1 0 188 405 336 206 122 41 39 54 19 20 15 24 4 0 24 17 4 33 33 61 35 0 3 26 87 129 150 157 153 162 201 111 142
0 1 0 0 0 0 53 76 43 0 0 0 2 18 9 19 124 329 446 350 200 71 28 52 38 23 14 16 29 18 17 27 11 31 38 38 16 15 20 30 51 45 28 63 89 86 201 208 272
0 0 0 0 0 0 58 93 22 0 0 7 19 5 1 96 128 296 412 487 350 184 71 47 33 33 42 38 25 21 33 28 44 56 86 48 90 40 35 16 45 45 54 80 113 107 132 186 219
0 0 0 0 0 4 108 69 0 1 5 4 6 1 0 0 178 264 421 476 511 377 155 77 62 34 25 50 47 152 166 114 186 107 157 129 121 158 52 118 88 86 69 103 103 128 95 138 202

GFSSGP_con_mucape_072.txt.gz
CAPE
0 0 0 0 0 0 0 0 0 0 0 0 0 0 0 0 0 192 1314 1505 1410 2315 1807 1604 1902 2181 1954 1857 1760 1801 1855 1779 1613 1622 1456 1380 1354 1271 1269 1222 1239 1148 1101 704 617 567 451 351 494
0 0 0 0 0 0 0 0 0 0 0 0 0 0 0 0 77 508 1267 1616 1601 1810 1890 1714 1712 2008 2016 1871 1772 1842 1968 1864 1678 1711 1570 1535 1511 1549 1426 1205 1031 1004 1038 546 325 388 278 198 406
0 0 0 0 0 0 0 0 0 0 0 0 0 0 0 0 126 481 1362 1739 1834 1693 1807 2010 1637 1785 2078 1876 1715 1587 1804 1683 1660 1709 1777 1718 1804 1642 1429 1081 893 861 994 447 320 156 95 57 55
0 0 0 0 0 0 0 0 0 0 0 0 0 0 4 410 171 608 1265 1593 1822 1877 1818 1671 1507 1812 2025 1904 1714 1483 1633 1506 1571 1637 1829 1941 1800 1634 1336 967 733 758 766 343 160 15 0 7 0
0 0 0 0 0 0 0 0 0 0 0 0 0 0 9 767 913 873 1173 1342 1818 2100 2263 1690 1446 1722 1787 1839 1506 952 1214 1332 1461 1741 1722 1714 1532 1289 1070 863 706 546 514 336 52 8 0 0 0
0 0 0 0 0 0 0 0 0 0 0 0 0 0 47 908 661 1110 1164 1377 1873 2210 2527 2185 1407 1475 1256 1198 834 219 65 222 1296 1490 1563 1502 1207 951 894 790 655 561 358 178 68 2 0 0 0
0 0 0 0 0 0 0 0 0 0 0 0 0 0 1 224 733 900 865 1283 1888 2036 2485 2276 1568 999 868 605 341 162 28 43 356 1147 1239 1028 780 692 751 655 540 364 199 86 9 0 0 0 0
0 0 0 0 0 0 0 0 0 0 0 0 0 0 33 790 717 876 957 1045 1625 2032 2049 1921 1825 1206 762 300 135 16 33 33 166 811 771 622 640 710 618 431 300 224 107 12 2 0 0 0 0
0 0 0 0 0 0 0 0 0 0 0 0 0 0 34 650 472 681 1027 1348 1403 1491 1806 1734 1445 1468 824 370 166 79 22 0 5 742 549 519 580 602 336 165 134 127 29 6 1 0 0 0 0
0 0 0 0 0 0 0 0 0 0 0 0 0 20 288 254 313 550 646 845 932 977 1679 1405 1151 1031 852 611 218 94 81 0 64 526 426 450 474 520 299 113 60 29 4 3 0 0 0 0 0
0 0 0 0 0 0 0 0 0 0 0 0 0 2 29 388 379 552 437 332 465 687 864 784 824 698 704 455 280 295 118 37 14 251 235 296 429 246 126 16 11 0 0 0 0 0 0 0 0
0 0 0 0 0 0 0 0 0 0 0 0 0 0 0 118 431 339 533 120 233 295 442 617 549 670 623 628 315 374 237 223 179 116 216 193 110 146 75 0 0 0 0 0 0 0 0 0 0
0 0 0 0 0 0 0 0 0 0 0 0 0 13 70 139 411 254 26 160 60 219 319 282 132 373 357 347 312 299 218 166 117 85 96 64 45 64 60 0 0 0 0 0 0 0 0 0 0
0 0 0 0 0 0 0 0 0 0 0 0 0 2 151 244 407 197 84 168 162 191 213 1 0 0 55 142 150 114 157 77 65 6 19 12 42 17 32 26 0 5 0 4 0 0 0 0 0
0 0 0 0 0 0 0 0 0 0 0 0 0 0 57 281 325 129 34 283 204 204 44 0 0 1 20 34 41 75 71 66 41 39 20 1 3 1 22 113 29 48 19 21 0 0 0 0 0
0 0 0 0 0 0 0 0 0 0 0 0 0 0 61 220 279 146 52 128 31 127 7 0 0 2 0 41 57 55 28 5 24 34 4 7 0 1 12 117 151 105 79 119 56 3 5 0 0
0 0 0 0 0 0 0 0 0 0 0 0 0 23 47 202 292 183 70 40 0 43 9 0 0 0 0 1 4 39 41 27 10 12 15 2 1 8 51 116 164 204 146 174 33 23 1 3 2
0 0 0 0 0 0 0 0 0 0 1 0 0 6 60 248 254 226 45 2 0 15 3 0 1 8 0 0 1 10 27 23 4 4 13 5 3 15 90 78 92 78 32 153 75 51 60 8 1
0 0 0 0 0 0 0 0 0 0 0 14 0 0 76 324 326 209 55 24 0 16 5 4 0 0 1 0 0 5 0 0 0 9 25 18 11 76 128 132 195 161 130 121 195 178 167 131 100
0 0 0 0 0 0 0 0 0 0 0 4 14 10 28 321 313 181 60 7 0 4 6 0 0 0 3 0 0 0 1 0 0 9 7 7 22 67 78 88 132 164 163 157 173 157 143 118 91
0 0 0 0 0 0 0 0 0 0 0 0 7 3 33 301 301 188 74 0 0 4 5 0 4 0 1 2 0 4 9 3 0 0 1 1 24 33 58 71 102 143 156 169 182 160 144 125 123
0 0 0 4 0 0 3 0 0 0 0 0 0 0 0 57 355 246 94 22 0 4 4 6 5 0 0 0 0 0 0 0 0 3 2 5 42 56 72 83 96 92 126 218 197 201 174 153 73
0 0 7 1 0 0 0 0 0 0 0 0 0 0 0 0 375 242 122 45 0 0 3 2 0 0 0 4 6 0 0 0 0 0 5 4 0 25 56 81 135 127 130 191 188 175 152 115 62
0 0 0 23 0 0 0 0 0 0 1 0 11 0 0 1 309 266 176 41 11 6 2 4 4 1 1 1 0 0 0 0 0 0 0 4 5 43 23 47 112 128 179 183 107 106 79 94 33
0 0 0 0 0 0 0 0 0 0 0 0 0 0 1 4 147 233 162 36 13 12 3 13 3 0 3 0 12 4 0 0 0 0 2 9 7 3 31 18 59 45 70 174 171 107 61 57 24
0 0 0 0 0 0 0 0 0 5 0 0 0 0 12 4 151 251 176 59 10 57 14 4 10 8 14 5 5 8 0 0 0 0 0 10 9 5 4 8 13 24 34 32 25 30 54 48 33
0 0 0 0 2 28 8 0 5 0 0 0 0 0 0 1 91 279 228 91 30 37 64 26 13 4 7 2 4 0 0 0 0 0 0 9 8 10 9 3 24 2 0 3 2 14 21 28 27
0 0 0 0 0 0 125 25 29 1 0 0 0 11 11 17 18 268 297 170 71 33 46 82 20 1 0 3 2 2 4 12 0 0 0 22 0 1 0 13 28 11 11 8 7 9 11 20 29
0 0 0 0 0 30 77 97 6 5 4 2 9 4 8 48 72 265 317 290 161 52 35 38 47 19 23 2 0 1 0 8 14 0 0 0 20 0 0 0 0 5 8 2 14 15 16 20 18
0 0 0 0 0 0 36 52 67 31 6 23 0 5 1 3 136 325 288 423 231 157 36 29 30 21 35 28 4 0 7 3 8 5 2 0 0 0 0 0 0 0 0 5 4 8 7 8 2

GFSSGP_con_mucape_075.txt.gz
CAPE
0 0 0 0 0 0 0 0 0 0 0 0 0 0 0 0 0 207 1288 1179 1724 1813 1684 1989 1776 1781 1800 1850 1818 1815 1748 1819 1775 1640 1402 1297 1312 1251 1111 1281 1325 1344 1342 862 495 313 291 532 781
0 0 0 0 0 0 0 0 0 0 0 0 0 0 0 0 1120 1458 1455 1442 1732 2021 1688 1827 2026 1884 1856 1807 1828 1903 1920 1880 1793 1672 1498 1459 1510 1470 1493 1326 1245 1336 1358 764 416 463 492 671 638
0 0 0 0 0 0 0 0 0 0 0 0 0 0 0 32 425 1178 1533 1662 1648 1898 1810 1649 1972 1975 1897 1811 1801 1850 1829 1697 1672 1634 1637 1623 1691 1697 1467 1242 1216 1312 1172 798 508 391 435 583 507
0 0 0 0 0 0 0 0 0 0 0 0 0 0 75 57 358 1258 1523 1633 1887 1530 1713 1713 1704 2063 1984 1870 1816 1777 1709 1539 1560 1573 1660 1819 1827 1692 1293 1043 1193 1251 1104 885 410 277 222 86 71
0 0 0 0 0 0 0 0 0 0 0 0 0 0 54 692 852 1079 1325 1680 1704 1706 1738 1682 1572 1929 2041 1986 1830 1618 1456 1051 1559 1556 1620 1734 1713 1517 1090 947 1021 988 970 570 460 174 58 2 7
0 0 0 0 0 0 0 0 0 0 0 0 0 0 193 512 732 1013 1100 1332 1564 1803 1841 1667 1518 1825 1906 1822 1451 1025 487 131 178 212 1179 1601 1451 1064 802 735 756 734 493 183 198 73 0 0 0
0 0 0 0 0 0 0 0 0 0 0 0 0 0 431 500 807 687 914 1261 1415 1497 1952 1823 1534 1399 1497 1520 1251 763 189 107 37 3 475 779 900 755 736 635 572 488 317 132 52 14 1 0 0
0 0 0 0 0 0 0 0 0 0 0 0 0 0 101 412 513 466 602 724 1376 1425 1417 1842 1554 1350 1027 873 919 471 161 73 45 29 73 354 559 635 593 456 388 322 218 60 27 3 0 0 0
0 0 0 0 0 0 0 0 0 0 0 0 0 0 125 468 457 531 632 743 835 1389 1319 1136 1416 1180 1051 696 448 332 152 41 6 13 0 313 343 288 206 207 231 117 36 34 5 0 0 0 0
0 0 0 0 0 0 0 0 0 0 0 0 0 276 557 509 278 300 432 679 754 740 813 1179 1142 860 878 686 312 149 71 34 29 1 1 219 201 115 115 70 54 20 7 5 0 0 0 0 0
0 0 0 0 0 0 0 0 0 0 0 0 0 60 134 64 81 123 257 336 393 515 758 693 406 484 447 533 316 143 98 76 22 12 7 135 111 62 6 3 2 3 0 0 0 0 0 0 0
0 0 0 0 0 0 0 0 0 0 0 0 0 0 80 93 129 187 250 218 208 207 223 409 390 348 355 306 224 90 40 44 30 86 59 120 42 13 0 1 1 1 0 0 0 0 0 0 0
0 0 0 0 0 0 0 0 0 0 0 0 0 0 0 26 132 172 151 133 146 246 363 267 306 333 434 341 219 141 69 54 23 110 110 75 33 20 0 0 0 0 0 0 0 0 0 0 0
0 0 0 0 0 0 0 0 0 0 0 0 0 2 0 14 152 205 200 106 122 220 192 80 27 72 228 287 138 162 136 63 49 88 67 73 68 37 0 6 0 0 0 0 0 0 0 0 0
0 0 0 0 0 0 0 0 0 0 0 0 0 0 35 16 155 173 160 109 170 164 126 2 0 0 3 31 76 83 75 79 61 68 14 62 60 13 0 0 0 0 0 0 0 0 0 0 0
0 0 0 0 0 0 0 0 0 0 0 0 0 0 44 43 205 205 190 166 168 171 38 2 0 0 2 2 25 48 55 48 32 12 1 31 15 1 1 6 0 0 0 0 0 4 0 0 0
0 0 1 0 0 0 0 0 0 0 0 0 0 0 28 99 106 138 182 128 78 66 2 0 0 0 0 7 14 39 62 18 31 35 13 0 11 2 2 2 3 22 7 32 22 27 0 0 0
0 0 11 3 0 0 0 0 0 0 0 0 0 0 13 29 75 110 176 163 45 6 14 0 0 0 0 0 11 13 36 13 33 25 10 20 1 2 0 17 37 66 37 104 52 33 0 0 0
1 2 0 0 2 0 0 0 0 0 0 0 0 0 0 28 66 119 181 193 109 0 62 4 0 0 0 0 0 19 16 12 23 37 3 1 1 6 4 5 58 72 89 77 66 36 0 0 0
0 0 0 0 0 0 0 0 0 0 0 0 0 1 1 37 62 120 146 138 95 0 4 2 0 0 0 0 0 16 21 26 4 9 3 7 13 4 8 8 17 49 56 67 46 46 56 14 2
0 0 0 0 4 0 0 0 0 0 0 0 0 0 3 85 91 107 112 106 45 0 3 6 0 0 0 0 0 0 1 12 17 0 9 6 13 9 9 6 1 18 30 38 41 64 54 50 21
0 0 0 0 0 0 0 0 0 0 0 0 0 0 0 82 150 131 101 86 24 0 4 7 4 0 0 0 0 0 0 0 0 0 6 31 24 11 14 15 43 29 0 0 71 72 63 46 15
0 0 0 0 0 0 0 0 0 0 0 0 0 0 0 74 148 128 89 68 2 0 1 2 0 6 0 0 0 0 1 0 1 5 19 27 22 13 18 10 8 47 69 85 123 120 104 74 69
0 0 0 0 0 0 0 0 0 0 0 0 0 0 0 77 125 119 80 54 10 0 1 0 4 1 0 2 0 0 0 0 0 0 6 15 22 12 6 12 22 30 71 103 109 157 131 131 65
0 0 0 0 0 0 0 0 0 0 0 0 0 0 0 89 128 135 60 46 19 0 1 0 2 0 0 3 7 1 0 1 1 0 0 1 13 9 3 0 25 35 39 77 114 142 149 117 60
0 0 0 0 0 0 0 0 0 0 0 0 0 0 0 135 134 104 54 39 28 0 0 1 4 1 0 4 3 8 0 0 0 0 0 0 12 18 20 14 41 59 63 76 108 107 93 63 44
0 0 0 0 13 0 0 0 0 1 1 0 0 0 0 82 113 138 88 87 38 1 0 0 0 2 1 2 2 5 4 0 0 0 0 3 5 14 10 13 13 43 62 56 74 80 82 67 56
0 0 0 0 0 0 0 6 0 0 0 0 0 0 0 3 120 152 132 123 74 7 0 0 0 0 1 3 6 3 2 7 0 0 0 0 1 9 18 31 7 22 16 37 59 65 59 64 46
0 0 0 0 0 0 0 20 6 3 6 1 0 2 0 0 119 156 155 133 128 59 2 0 0 0 0 0 5 2 2 16 2 0 0 0 0 0 1 13 14 7 7 17 19 11 20 24 14
0 0 0 0 0 0 0 18 2 0 0 0 2 0 1 39 125 187 195 158 159 141 56 8 0 0 0 0 0 0 5 4 0 1 0 0 0 0 0 0 0 0 0 0 2 2 5 9 5

GFSSGP_con_mucape_078.txt.gz
CAPE
0 0 0 0 0 0 0 0 0 0 0 0 0 0 0 0 0 1 1040 1317 1603 1545 1670 1584 1645 1829 1850 1846 1829 1866 1946 1911 1788 1600 1461 1343 1291 1173 1074 1074 1163 1197 1308 1031 826 786 783 671 754
0 0 0 0 0 0 0 0 0 0 0 0 0 0 0 587 1049 1137 1112 1501 1630 1556 1784 1619 1677 1833 1912 1908 1888 1911 1982 1891 1768 1613 1519 1470 1380 1458 1496 1287 1118 1189 1291 1102 663 606 663 819 659
0 0 0 0 0 0 0 0 0 0 0 0 0 0 0 440 1279 1250 1081 1573 1871 1808 1832 1829 1729 1797 1940 1911 1910 1870 1905 1844 1676 1555 1660 1563 1629 1789 1616 1435 1413 1304 1226 468 549 679 804 696 473
0 0 0 0 0 0 0 0 0 0 0 0 0 2 27 108 1160 1117 1257 1531 1833 1907 1651 1998 1800 1789 1950 1979 1989 1903 1802 1597 1544 1516 1683 1758 1865 1836 1609 1428 1360 1392 1265 1087 885 950 809 523 365
0 0 0 0 0 0 0 0 0 0 0 0 0 0 120 660 689 1353 1399 1516 1493 1802 1679 1868 2039 1860 1969 2074 2058 1905 1640 1574 1460 1431 1576 1775 1826 1694 1457 1320 1240 1227 1070 970 959 771 392 100 3
0 0 0 0 0 0 0 0 0 0 0 0 0 0 365 874 1180 1335 1483 1394 1595 1504 1718 1704 1987 2073 1991 1949 1810 1071 903 666 376 144 57 584 1215 1344 1340 1224 1105 996 852 768 586 208 31 0 0
0 0 0 0 0 0 0 0 0 0 0 0 0 1 394 589 900 988 1148 1350 1572 1705 1727 1656 1623 2016 2109 1901 1451 768 626 296 78 43 18 27 393 503 1169 1117 922 636 555 517 257 41 6 6 0
0 0 0 0 0 0 0 0 0 0 0 0 0 48 378 377 698 674 1022 1120 1016 1640 1757 1676 1553 1971 1800 1843 1273 773 566 341 64 60 33 1 254 410 676 766 568 433 369 282 122 2 8 0 0
0 0 0 0 0 0 0 0 0 0 0 0 0 6 1 430 551 482 633 983 1196 1022 1298 1604 1224 1220 1333 1239 1110 666 482 193 61 19 0 79 109 211 390 357 355 302 199 149 47 0 0 0 0
0 0 0 0 0 0 0 0 0 0 0 0 27 341 263 525 413 370 432 477 1065 1153 993 921 1379 1216 962 1002 800 625 327 83 49 3 0 87 151 194 231 236 188 115 106 67 3 0 0 0 0
0 0 0 0 0 0 0 0 0 0 0 0 3 399 323 362 338 262 417 521 546 720 673 1042 1128 1145 829 722 552 135 116 99 36 21 12 123 149 137 181 65 26 2 4 1 0 0 0 0 0
0 0 0 0 0 0 0 0 0 0 0 0 3 358 412 353 176 154 182 304 543 494 650 738 497 454 509 489 444 88 68 46 19 30 18 87 105 94 48 4 1 0 0 0 0 0 0 0 0
0 0 0 0 0 0 0 0 0 0 0 0 0 143 285 90 65 78 129 133 190 238 298 374 386 375 402 363 217 89 68 70 50 6 10 5 71 18 25 0 0 0 0 0 0 0 0 0 0
0 0 0 0 0 0 0 0 0 0 0 0 0 38 110 106 108 89 109 112 128 250 258 254 273 324 436 311 270 141 76 59 44 96 16 40 16 1 0 0 0 0 0 0 0 0 0 0 0
0 0 0 0 0 0 0 0 0 0 0 0 0 0 3 66 92 112 83 106 133 257 175 77 26 56 218 350 327 107 78 54 55 118 72 52 27 0 0 0 0 0 0 0 0 0 0 0 0
0 0 0 0 0 0 0 0 0 0 0 0 0 0 0 0 133 127 111 136 150 185 166 46 3 0 1 41 165 180 99 38 38 82 67 51 27 0 0 0 3 0 0 0 0 0 0 0 0
0 0 0 0 0 0 0 0 0 0 0 0 0 0 0 0 92 127 160 156 170 173 130 4 0 0 2 3 50 94 103 62 32 56 50 29 15 0 0 6 1 0 0 0 0 0 0 0 0
0 0 0 0 0 0 0 0 0 0 0 0 0 0 0 27 120 197 173 154 183 149 39 0 0 4 0 3 27 43 76 70 35 35 36 11 29 3 0 2 1 0 0 0 0 0 0 0 0
0 0 0 0 0 0 0 0 0 0 0 0 0 0 0 23 123 187 143 122 138 124 89 0 0 0 0 7 9 27 51 59 6 32 17 12 25 5 6 4 2 12 0 0 5 0 0 0 0
0 0 0 0 0 0 0 0 0 0 0 0 0 0 0 19 155 143 140 140 140 104 85 0 0 0 4 3 3 6 27 38 11 9 2 35 12 2 3 11 4 6 0 6 14 3 11 0 0
0 0 0 0 0 0 0 0 0 0 0 0 0 0 0 3 96 133 149 152 139 102 37 0 0 0 0 0 0 10 32 14 6 10 7 11 15 6 1 0 9 19 14 13 15 12 21 2 0
0 0 0 0 0 0 0 0 0 0 0 0 0 0 0 2 71 136 154 142 144 85 1 0 0 0 0 0 1 0 3 0 10 24 21 9 1 10 8 1 20 11 58 30 34 33 39 10 9
0 0 0 0 0 0 0 0 0 0 0 0 0 0 0 0 51 125 160 146 129 57 0 0 1 0 0 0 0 0 0 0 12 8 8 7 8 11 11 5 13 31 49 64 47 50 41 39 4
0 0 0 0 0 0 0 0 0 0 0 0 0 0 0 0 45 119 159 153 109 12 0 1 5 1 0 0 0 0 0 0 0 0 0 0 6 5 4 17 8 15 7 9 21 25 34 66 59
0 0 0 0 0 0 0 0 0 0 0 0 0 0 0 0 40 134 188 170 88 0 0 1 8 2 2 0 0 0 0 0 0 0 0 2 5 4 19 9 13 46 46 18 1 26 65 68 66
0 0 0 0 0 0 0 0 0 0 0 0 0 0 0 0 36 173 212 153 92 5 0 0 0 3 3 2 2 1 0 0 0 0 0 0 1 17 32 25 19 9 24 10 30 52 91 111 107
0 0 0 0 0 0 0 1 0 0 0 0 0 0 0 18 61 215 198 144 75 21 0 0 0 2 15 1 4 5 0 0 0 0 0 0 2 9 16 24 14 28 34 32 63 77 86 100 112
0 0 0 0 0 0 0 0 0 7 0 0 0 0 5 61 104 195 193 141 77 41 1 0 0 1 4 2 2 5 6 4 0 0 0 0 0 2 12 21 23 13 13 18 48 78 82 66 64
0 0 0 0 0 0 0 29 28 7 1 1 0 0 0 44 105 145 172 146 105 78 3 0 0 0 0 3 5 2 3 5 4 0 0 0 0 0 0 1 10 7 12 20 45 43 42 49 41
0 0 0 0 0 0 0 13 10 0 0 0 42 39 0 68 120 151 164 177 151 126 57 0 0 0 0 0 2 4 3 0 5 4 4 0 0 0 0 0 1 5 3 3 4 6 19 25 35

GFSSGP_con_mucape_084.txt.gz
CAPE
0 0 0 0 0 0 0 0 0 0 0 0 0 0 0 0 0 0 31 782 894 990 1140 1305 1361 1682 1601 1689 1737 1891 2081 2276 2250 2087 1987 1967 1896 1765 1776 1846 1716 1767 1485 1030 1635 1662 1410 1227 1252
0 0 0 0 0 0 0 0 0 0 0 0 0 0 0 0 252 318 474 841 1119 1065 1133 1331 1488 1588 1531 1767 1783 1974 1932 2181 2226 2165 2096 2018 1920 1843 1897 1680 1600 1574 1657 1725 1685 1320 1259 1300 1142
0 0 0 0 0 0 0 0 0 0 0 0 0 0 0 0 653 571 650 1049 1290 1282 1197 1297 1545 1549 1716 1809 1823 1914 1992 1756 2104 2102 2149 2050 1981 1961 2007 1590 1668 1784 1792 1822 1462 1446 1389 1119 871
0 0 0 0 0 0 0 0 0 0 0 0 0 0 0 0 665 831 815 1388 1475 1436 1319 1335 1550 1585 1828 1830 1938 1933 1937 1811 1821 1930 2000 2075 2027 2018 1928 1643 1655 1550 1523 1732 1614 1535 1155 795 599
0 0 0 0 0 0 0 0 0 0 0 0 0 0 0 67 557 897 1292 1394 1509 1543 1289 1381 1549 1653 1902 1737 2021 1976 1797 1676 1741 1774 1400 1609 1434 1181 1533 1107 1138 1273 1309 1481 1370 1198 805 590 344
0 0 0 0 0 0 0 0 0 0 0 0 0 0 0 96 771 1032 1460 1393 1487 1552 1761 2098 1612 1692 1853 1790 1892 1760 1612 1625 1484 1307 1166 1172 1257 1157 973 1001 1070 1066 1108 1368 1084 779 577 358 165
0 0 0 0 0 0 0 0 0 0 0 0 0 0 0 106 770 1082 1416 1570 1695 1649 1605 2224 2000 1729 1573 1812 1568 1532 1182 1192 833 744 775 922 814 753 726 1080 1027 703 950 902 703 493 334 168 71
0 0 0 0 0 0 0 0 0 0 0 0 0 0 0 11 790 1119 1337 1416 1564 1689 1516 1875 2046 2506 1670 1636 1436 1374 996 841 569 339 349 249 238 250 418 652 636 907 708 755 514 209 252 115 28
0 0 0 0 0 0 0 0 0 0 0 0 0 0 0 1 892 1140 1280 1438 1436 1412 1531 1472 1983 2450 1682 1578 1492 1249 982 701 486 261 120 77 39 67 132 271 370 246 343 445 210 237 154 46 12
0 0 0 0 0 0 0 0 0 0 0 0 0 0 4 119 823 1145 1194 1319 1414 1387 1523 1651 1644 2151 1889 1465 1406 1293 992 871 549 290 84 58 51 28 19 147 133 205 194 232 168 132 39 0 0
0 0 0 0 0 0 0 0 0 0 0 0 0 0 7 77 635 854 962 1041 946 1216 1426 1601 1630 1549 1321 1637 1572 1301 1065 619 366 305 71 44 29 53 55 94 92 80 110 193 91 37 26 13 0
0 0 0 0 0 0 0 0 0 0 0 0 0 0 0 64 205 775 738 739 688 916 1346 1499 1503 1209 893 954 1345 1111 892 515 269 320 55 63 55 28 81 86 66 52 66 121 85 8 11 13 0
0 0 0 0 0 0 0 0 0 0 0 0 0 0 0 6 88 411 629 428 535 790 921 1105 1297 1149 941 926 968 918 782 497 302 245 59 57 41 34 27 126 58 59 67 68 11 0 0 0 0
0 0 0 0 0 0 0 0 0 0 0 0 0 0 0 0 39 193 531 529 432 463 891 907 797 817 584 684 548 558 475 390 295 321 82 73 48 72 70 108 69 23 41 25 9 11 1 5 0
0 0 0 0 0 0 0 0 0 0 0 0 0 0 0 0 4 135 372 464 470 344 506 811 713 803 886 689 707 423 419 548 257 156 57 61 39 62 79 82 59 52 46 6 0 3 0 0 0
0 0 0 0 0 0 0 0 0 0 0 0 0 0 0 0 0 48 255 349 396 303 448 581 546 304 498 532 266 167 85 192 32 41 40 54 34 52 74 71 104 66 0 1 0 0 0 0 0
0 0 0 0 0 0 0 0 0 0 0 0 0 0 0 0 0 2 120 324 308 233 424 342 195 255 394 435 179 151 66 122 35 23 38 53 52 72 68 51 66 58 31 2 0 0 0 0 0
0 0 0 0 0 0 0 0 0 0 0 0 0 0 0 0 0 0 0 110 158 187 296 188 139 138 257 175 238 31 139 60 23 11 16 38 23 76 69 34 40 67 5 32 2 0 0 1 10
0 0 0 0 0 0 0 0 0 0 0 0 0 0 0 0 0 0 0 35 92 181 165 146 121 97 5 75 18 25 16 30 72 34 72 30 4 34 37 28 33 71 1 10 0 0 7 4 5
0 0 0 0 0 0 0 0 0 0 0 0 0 0 0 0 0 0 0 31 102 193 137 129 151 91 2 0 2 3 17 18 35 35 28 6 35 34 41 28 55 23 0 7 0 0 0 1 26
0 0 0 0 0 0 0 0 0 0 0 0 0 0 0 0 0 1 19 29 122 162 125 136 153 106 2 3 3 5 24 29 26 25 31 49 27 22 69 55 88 0 0 0 0 0 0 0 11
0 0 0 0 0 0 0 0 0 0 0 0 0 0 0 0 0 6 35 45 113 135 141 155 160 96 2 2 3 1 0 0 6 20 21 22 21 51 76 71 14 10 0 0 0 0 0 8 10
0 0 0 0 0 0 0 0 0 0 0 0 0 0 0 0 0 8 4 48 53 126 143 160 166 37 0 3 0 0 7 9 4 22 5 29 55 59 56 15 0 0 0 0 3 0 29 15 13
0 0 0 0 0 0 0 0 0 0 0 0 0 0 0 0 0 0 12 38 43 108 164 152 170 0 1 0 1 4 5 0 16 10 38 19 22 57 25 6 6 12 10 8 4 34 47 42 27
0 0 0 0 0 0 0 0 0 0 0 0 0 0 0 0 0 0 7 25 44 92 156 143 161 1 2 0 1 3 4 1 1 23 19 37 39 28 14 7 17 12 21 5 0 0 64 58 29
0 0 0 0 0 0 0 0 0 0 0 0 0 0 0 0 0 0 10 31 38 135 133 141 153 7 1 0 0 6 9 0 7 0 3 33 31 35 30 31 23 15 22 17 0 82 75 92 84
0 0 0 0 0 0 0 0 0 0 0 0 0 0 0 0 0 0 2 20 19 70 112 149 108 1 17 0 2 5 1 0 12 0 0 25 24 17 26 16 1 4 16 19 7 0 0 50 43
0 3 0 0 0 0 0 0 7 0 0 0 0 0 0 0 0 0 4 12 3 33 96 147 40 0 4 0 1 5 0 0 0 0 0 5 16 9 9 10 12 27 23 4 5 14 20 5 49
3 0 12 0 0 0 0 0 27 6 0 0 0 0 0 0 0 6 27 7 1 37 96 165 8 0 0 2 1 0 19 2 0 0 0 0 0 0 0 4 7 19 35 6 5 3 31 46 45
21 0 0 0 0 0 0 0 14 3 0 0 0 0 0 3 0 0 0 1 7 42 126 105 0 0 0 2 1 6 3 3 3 0 0 0 0 0 0 0 4 27 15 17 21 15 5 30 24

GFSSGP_con_mucape_087.txt.gz
CAPE
0 0 0 0 0 0 0 0 0 0 0 0 0 0 0 0 0 0 37 1069 1236 1378 1401 1182 1027 1287 1605 1784 1802 2041 2263 2262 2255 2153 2094 2069 2054 1958 1923 1974 1943 1936 1985 1977 1889 2056 1807 1381 1444
0 0 0 0 0 0 0 0 0 0 0 0 0 0 0 0 2 103 396 1095 1261 1382 1508 1428 1062 1138 1595 1771 1890 1764 2438 2483 2353 2306 2243 2192 2087 2037 2080 2072 1955 1955 2054 2105 1892 1824 1617 1491 1319
0 0 0 0 0 0 0 0 0 0 0 0 0 0 0 0 503 328 391 1261 1352 1390 1384 1469 1006 1326 1325 1727 1878 1802 2414 2356 2292 2290 2356 2299 2206 2214 2209 2037 1834 1871 2031 2061 1949 1735 1627 1354 1058
0 0 0 0 0 0 0 0 0 0 0 0 0 0 0 0 744 861 779 1473 1583 1376 1350 1287 1094 1514 1461 1723 1916 1940 1979 2141 2135 2187 2328 2321 2294 2211 1684 1604 1809 2039 2185 2050 1670 1684 1457 1115 911
0 0 0 0 0 0 0 0 0 0 0 0 0 0 0 7 509 894 1415 1545 1769 1539 1477 1249 1280 1293 1528 1735 1922 1943 1676 1824 2000 2133 2129 2175 2208 1683 1525 1268 1283 1355 1738 1738 1602 1330 1164 901 691
0 0 0 0 0 0 0 0 0 0 0 0 0 0 0 156 839 1203 1643 1756 1910 1567 1673 1571 1729 1391 1388 1687 1797 1759 1612 1619 1786 1958 1935 1627 1480 1273 1336 1244 962 1276 1552 1400 1298 1099 898 719 492
0 0 0 0 0 0 0 0 0 0 0 0 0 0 0 33 652 1244 1633 1671 1910 1507 1182 1383 1998 1767 1353 1513 1672 1586 1608 1633 1697 1616 1445 1395 1135 980 1132 1030 1000 939 1284 1125 972 831 612 505 249
0 0 0 0 0 0 0 0 0 0 0 0 0 0 0 0 713 1153 1462 1685 1794 1794 1760 1846 1769 2068 2194 1869 1557 1509 1479 1492 1402 1209 944 785 716 849 891 862 977 1021 1165 1023 777 572 411 239 144
0 0 0 0 0 0 0 0 0 0 0 0 0 0 0 24 862 1133 1170 1380 1731 1639 1562 2127 1644 2159 2006 1905 1724 1417 1399 1194 957 721 424 412 705 664 572 379 409 445 655 610 494 328 252 170 111
0 0 0 0 0 0 0 0 0 0 0 0 0 0 0 147 824 1354 1281 1528 1394 1486 1583 1765 2007 1908 1987 1485 1348 1357 1235 1094 701 689 421 665 581 455 208 247 176 278 375 261 280 197 201 126 88
0 0 0 0 0 0 0 0 0 0 0 0 0 0 0 0 190 1236 1391 1309 1616 1343 1442 1507 1986 2075 2416 1661 1514 1572 1195 1067 737 539 433 244 180 85 67 143 127 149 110 95 255 185 200 109 72
0 0 0 0 0 0 0 0 0 0 0 0 0 0 0 0 0 286 1234 1264 1146 1353 1385 1383 1652 2124 2059 2066 1654 1220 1146 920 1011 624 257 265 83 47 41 310 299 107 76 81 241 223 101 31 6
0 0 0 0 0 0 0 0 0 0 0 0 0 0 0 0 0 0 396 975 923 1160 1441 1197 1532 1693 1810 1961 1617 1332 1108 1056 921 508 165 148 97 34 86 228 233 78 51 60 170 85 15 11 0
0 0 0 0 0 0 0 0 0 0 0 0 0 0 0 0 0 0 129 524 631 978 1155 1358 1344 1543 1467 1267 1261 1026 1020 727 633 577 257 143 49 47 161 391 118 112 26 35 70 85 23 17 0
0 0 0 0 0 0 0 0 0 0 0 0 0 0 0 0 0 0 0 157 593 781 911 1050 1280 1513 1187 955 742 728 701 544 380 536 262 231 94 137 200 153 169 36 32 16 109 101 67 0 0
0 0 0 0 0 0 0 0 0 0 0 0 0 0 0 0 0 0 0 20 286 543 666 757 904 1061 992 595 453 281 689 509 433 395 342 147 105 160 124 108 60 30 36 57 105 63 0 0 2
0 0 0 0 0 0 0 0 0 0 0 0 0 0 0 0 0 0 0 0 187 424 541 610 786 879 695 606 383 428 598 376 274 200 135 217 143 96 114 42 22 23 42 62 87 49 25 4 1
0 0 0 0 0 0 0 0 0 0 0 0 0 0 0 0 0 0 0 0 82 348 475 517 598 694 577 326 200 203 83 94 31 86 82 91 76 137 99 48 41 27 42 40 89 43 7 0 1
0 0 0 0 0 0 0 0 0 0 0 0 0 0 0 0 0 0 0 0 105 264 329 307 475 477 210 257 229 104 17 29 48 81 56 49 68 93 83 56 44 20 41 47 34 0 0 5 0
0 0 0 0 0 0 0 0 0 0 0 0 0 0 0 0 0 0 0 6 71 151 202 275 419 268 174 184 197 134 49 34 20 58 66 30 44 90 69 50 38 19 46 57 34 0 1 1 1
0 0 0 0 0 0 0 0 0 0 0 0 0 0 0 0 0 0 0 26 69 61 105 268 304 254 181 145 3 23 50 25 36 28 44 26 25 42 57 37 22 24 40 8 10 3 0 0 1
0 0 0 0 0 0 0 0 0 0 0 0 0 0 0 0 0 0 0 41 40 28 54 211 275 210 196 118 9 13 14 25 2 41 1 17 40 36 18 56 15 19 20 49 27 5 14 28 22
0 0 0 0 0 0 0 0 0 0 0 0 0 0 0 0 0 0 0 36 30 4 72 216 222 196 197 5 5 15 3 14 1 0 15 25 51 54 13 21 43 24 37 45 0 26 15 43 46
0 0 0 0 0 0 0 0 0 0 0 0 0 0 0 0 0 0 6 54 69 0 88 197 183 199 182 1 7 1 20 15 0 8 5 17 47 26 68 69 52 40 67 1 0 30 17 6 38
0 0 0 0 0 0 0 0 0 0 0 0 0 0 0 0 0 8 59 89 79 7 112 163 181 185 164 5 2 5 2 13 3 12 7 38 22 14 57 50 56 45 7 0 0 3 14 0 36
0 0 0 0 0 0 0 0 0 0 0 0 0 0 0 9 0 0 52 76 27 7 70 155 188 155 53 3 2 4 3 2 3 10 12 20 27 27 38 53 40 1 0 1 0 0 16 30 82
0 0 0 0 0 0 0 0 0 0 6 0 0 0 0 0 0 0 24 58 15 9 91 145 158 137 4 12 2 5 1 0 0 4 3 11 40 32 54 21 20 11 18 13 6 14 1 0 41
1 20 0 0 0 0 0 0 0 13 0 0 0 0 0 4 6 0 6 39 10 22 58 119 113 115 2 34 4 2 3 1 0 4 6 11 23 7 34 12 29 25 26 9 6 3 2 2 2
9 0 0 0 0 0 0 0 69 25 1 0 0 0 0 41 30 11 7 28 4 1 63 102 91 53 1 35 1 5 9 6 0 0 0 14 8 14 45 33 20 17 0 4 1 2 0 6 6
17 6 0 0 0 0 0 0 26 0 0 0 0 0 0 17 22 2 2 10 5 19 57 103 118 1 1 7 10 4 7 4 0 0 0 0 0 0 0 2 4 16 4 18 33 2 0 5 4

GFSSGP_con_mucape_090.txt.gz
CAPE
0 0 0 0 0 0 0 0 0 0 0 0 0 0 0 0 0 0 181 1134 1230 1476 1666 1338 1141 1458 1804 1890 2002 2135 2174 2198 2228 2234 2150 2153 2234 2292 2193 2205 2092 2122 2250 1981 1783 1758 1723 1607 1862
0 0 0 0 0 0 0 0 0 0 0 0 0 0 0 0 0 0 672 1374 1556 1493 1849 1732 1121 1382 1803 1927 2079 2243 2404 2425 2402 2320 2176 2324 2311 2255 2220 2166 2078 2173 2228 2219 1862 1872 1801 1708 1560
0 0 0 0 0 0 0 0 0 0 0 0 0 0 0 0 2 1 376 1372 1666 1569 1652 1858 1088 1122 1734 1924 2054 2216 2378 2367 2359 2350 2476 2453 2384 2361 2378 2173 2074 2188 2376 2325 2024 1909 1838 1599 1309
0 0 0 0 0 0 0 0 0 0 0 0 0 0 0 0 88 99 436 1382 1507 1376 1543 1427 936 1138 1683 1943 2018 1812 2348 2272 2229 2293 2472 2477 2456 2474 2346 2017 2085 2246 1956 2029 1933 1770 1665 1272 1129
0 0 0 0 0 0 0 0 0 0 0 0 0 0 0 0 159 942 647 1251 1156 1566 1653 1771 927 1127 1506 1963 2030 1809 1996 2125 2160 2296 2356 2374 2418 2306 1970 1889 2026 2056 2010 1760 1690 1764 1358 1106 931
0 0 0 0 0 0 0 0 0 0 0 0 0 0 0 17 424 1047 1220 1595 1520 1955 1993 1987 1125 1198 1389 1791 1955 1609 1822 1997 2116 2163 2175 2315 2133 1655 1653 1649 1684 1693 1569 1484 1465 1342 1106 889 690
0 0 0 0 0 0 0 0 0 0 0 0 0 0 0 0 394 1519 1699 1589 2039 2300 2215 1865 1732 1482 1229 1497 1773 1709 1416 1689 2018 1999 1932 1779 1454 1274 1457 1385 1557 1317 1364 1330 1272 1047 829 702 500
0 0 0 0 0 0 0 0 0 0 0 0 0 0 0 0 132 1655 2001 1990 2230 2396 2417 2072 1773 1835 1937 1925 1531 1665 1560 1501 1640 1715 1666 1356 1187 1115 1221 1123 1126 1272 1317 1222 1040 694 633 493 366
0 0 0 0 0 0 0 0 0 0 0 0 0 0 0 0 29 1021 2035 2212 2230 2526 2285 2208 1924 2127 1955 2180 2041 1446 1537 1619 1654 1578 1554 1523 1831 1431 1006 612 464 629 794 890 720 558 455 367 257
0 0 0 0 0 0 0 0 0 0 0 0 0 0 0 0 0 11 982 1895 2084 2342 2657 2088 2316 2177 2225 2078 2319 2082 2011 1981 2012 1857 1611 1895 1492 1308 753 325 165 336 453 588 415 318 291 315 337
0 0 0 0 0 0 0 0 0 0 0 0 0 0 0 0 0 0 2 944 1481 1929 2341 2529 2180 2088 2353 2307 2090 2199 2311 2135 1833 1726 1667 1554 1436 950 765 483 442 499 321 296 219 191 482 366 349
0 0 0 0 0 0 0 0 0 0 0 0 0 0 0 0 0 0 0 0 1063 1510 2141 1879 2246 2256 2271 2323 1790 1700 1756 1976 1726 1657 1252 1231 820 855 642 171 171 240 354 231 140 230 520 308 246
0 0 0 0 0 0 0 0 0 0 0 0 0 0 0 0 0 0 0 0 59 1344 2108 2206 1861 2051 2173 1971 1529 1385 1381 1414 1468 1406 1083 773 510 479 280 117 197 481 184 106 89 183 316 313 237
0 0 0 0 0 0 0 0 0 0 0 0 0 0 0 0 0 0 0 0 0 647 1674 2401 1752 1839 2029 1953 1719 1531 1483 1053 1097 1188 760 890 384 258 180 214 407 544 231 117 98 134 311 280 232
0 0 0 0 0 0 0 0 0 0 0 0 0 0 0 0 0 0 0 0 2 296 1095 2155 2034 1551 2050 2351 1636 1485 1290 1108 842 735 548 515 313 153 200 180 166 392 186 46 74 215 303 250 200
0 0 0 0 0 0 0 0 0 0 0 0 0 0 0 0 0 0 0 0 0 78 671 1811 1909 1461 1626 1865 1885 1295 1216 992 676 513 272 208 185 109 444 150 108 235 94 38 65 202 273 207 172
0 0 0 0 0 0 0 0 0 0 0 0 0 0 0 0 0 0 0 0 0 7 539 1532 2061 1490 1481 1619 1476 1340 884 644 508 386 194 106 107 79 202 260 143 75 34 37 87 162 213 166 148
0 0 0 0 0 0 0 0 0 0 0 0 0 0 0 0 0 0 0 0 0 14 472 1150 1824 1557 1258 1277 1253 1020 728 358 288 160 110 213 53 80 141 98 78 48 35 29 59 165 201 187 140
0 0 0 0 0 0 0 0 0 0 0 0 0 0 0 0 0 0 0 0 0 13 545 953 1634 1215 1127 1126 1046 820 570 281 114 40 88 156 93 88 136 82 40 21 30 26 127 160 214 150 159
0 0 0 0 0 0 0 0 0 0 0 0 0 0 0 0 0 0 0 0 0 64 576 909 1394 953 1183 1404 1239 732 358 282 112 12 7 21 44 91 108 72 40 18 25 19 201 188 176 180 172
0 0 0 0 0 0 0 0 0 0 0 0 0 0 0 0 0 0 0 0 7 176 580 829 1213 949 1288 1056 817 565 444 242 190 30 8 15 32 112 80 50 51 22 16 8 130 201 150 110 162
0 0 0 0 0 0 0 0 0 0 0 0 0 0 0 0 0 0 0 0 8 266 516 743 978 1177 1018 845 716 608 424 182 129 23 10 44 46 42 78 42 44 33 24 42 130 221 212 196 135
0 0 0 1 2 0 0 0 0 0 0 0 0 0 0 0 0 0 0 0 0 278 562 644 941 873 686 582 565 370 186 113 234 188 53 33 5 6 47 45 40 45 11 109 161 187 189 113 154
16 6 4 1 1 0 0 0 0 0 0 0 0 0 0 0 0 0 0 0 15 388 176 382 747 731 558 474 328 276 172 32 103 21 3 0 14 16 22 23 32 23 12 73 89 42 196 194 212
27 0 0 0 0 0 0 0 0 0 5 0 1 0 0 0 22 8 14 102 267 328 7 173 535 505 340 307 217 146 76 81 92 7 0 4 11 12 22 14 18 20 28 34 38 61 143 130 202
8 14 0 0 0 0 0 0 5 0 9 22 5 0 0 0 119 139 57 350 446 105 145 197 169 362 204 232 85 51 132 73 53 6 5 12 3 6 5 10 18 3 4 43 50 60 27 66 140
37 49 18 1 0 0 0 0 1 12 42 11 1 0 0 0 341 320 170 389 593 241 148 284 216 296 214 216 30 53 74 29 20 4 1 11 13 31 23 4 47 65 70 45 34 8 0 63 103
79 53 11 35 0 0 0 0 60 28 6 0 0 0 0 0 364 457 47 351 576 287 116 195 205 205 201 91 10 24 14 20 29 32 4 5 14 26 34 5 43 39 35 24 0 0 1 5 0
72 63 47 43 41 0 0 0 130 1 0 0 0 3 1 9 87 307 285 233 369 177 29 209 177 192 186 30 26 15 5 6 0 2 4 5 13 20 6 4 28 4 0 4 0 0 1 1 3
49 46 52 18 0 0 0 0 0 7 0 0 0 0 0 0 3 106 115 103 44 155 69 104 191 187 109 1 8 11 0 12 0 0 15 1 1 1 29 5 0 2 0 0 2 5 5 3 0

GFSSGP_con_mucape_096.txt.gz
CAPE
0 0 0 0 0 0 0 0 0 0 0 0 0 0 0 0 9 198 328 629 1510 1000 1436 1388 1406 1619 1736 1838 1993 1860 1883 1958 2073 2092 2069 2124 2201 2241 2272 2247 2259 2420 2519 2210 1937 1876 1718 1810 1703
0 0 0 0 0 0 0 0 0 0 0 0 0 0 0 0 1 74 528 752 1510 1197 1179 1334 1279 1508 1738 1822 1906 2077 2129 2130 2151 2189 2198 2239 2309 2095 2212 2327 2315 2395 2354 2292 2007 1962 1878 1838 1654
0 0 0 0 0 0 0 0 0 0 0 0 0 0 0 0 0 45 713 906 1074 1174 1123 1316 1180 1434 1782 1855 1938 2107 2196 2145 2110 2177 2291 2279 2256 2255 2308 2114 2323 2311 2390 2398 2151 2113 2043 1718 1432
0 0 0 0 0 0 0 0 0 0 0 0 0 0 0 0 3 39 673 794 686 1066 1355 898 1083 1364 1752 1896 2000 2086 2167 2090 2083 2124 2232 2414 2278 2325 2112 2009 2326 2413 2035 2238 2225 2232 1850 1427 1272
0 0 0 0 0 0 0 0 0 0 0 0 0 0 0 0 30 459 851 709 805 1297 1911 1190 1089 1321 1703 1986 2100 2055 2092 2066 2053 2120 2185 2340 2290 2214 1827 1713 2071 2137 2076 2171 2025 1922 1519 1303 1201
0 0 0 0 0 0 0 0 0 0 0 0 0 0 0 0 0 303 934 1364 1608 2589 2360 1448 1050 1261 1560 1840 1810 1946 2026 2018 2195 2018 2161 2147 2188 1694 1694 1772 1843 1947 1918 1905 1578 1559 1367 1237 1134
0 0 0 0 0 0 0 0 0 0 0 0 0 0 0 0 247 947 920 1408 2146 2605 2658 1681 1325 1327 1341 1545 1497 1400 1505 1663 2092 2173 2085 2030 1942 1518 1635 1674 1578 1435 1477 1415 1537 1346 1183 1136 990
0 0 0 0 0 0 0 0 0 0 0 0 0 0 0 132 106 972 1479 1691 2527 2933 3062 2205 1872 1572 1418 1423 1429 1213 1425 1751 2253 2196 1997 2039 1779 1400 1493 1423 1332 1163 1255 1205 1199 977 917 926 806
0 0 0 0 0 0 0 0 0 0 0 0 0 0 0 0 4 859 1980 2239 2581 2959 2969 2876 2355 1965 1842 1709 1490 1316 1421 1520 2041 1958 1917 1991 1732 1496 1428 1292 1112 916 794 694 514 434 606 691 610
0 0 0 0 0 0 0 0 0 0 0 0 0 0 0 0 0 15 1414 2061 2400 2781 3068 2781 2702 2323 2221 1801 1704 1595 1659 1596 1705 1817 1885 1731 1786 1579 1339 1113 883 611 614 443 414 310 293 316 297
0 0 0 0 0 0 0 0 0 0 0 0 0 0 0 0 0 0 1 1099 1937 2541 2530 2840 2578 2601 2550 1769 2057 1670 1737 1642 1779 1939 2008 2125 1610 1553 1249 901 690 429 348 269 215 202 167 263 287
0 0 0 0 0 0 0 0 0 0 0 0 0 0 0 0 0 0 0 0 23 2062 2601 2529 2649 2708 2707 2246 2151 1861 1780 1725 1837 1893 2032 1817 1571 1552 1254 818 575 356 222 175 185 131 139 106 235
0 0 0 0 0 0 0 0 0 0 0 0 0 0 0 0 0 0 0 0 0 46 2201 2649 2409 2679 2757 2681 2049 2249 1862 1832 1968 2114 2115 1944 1634 1553 1237 1001 637 452 309 184 134 71 43 91 100
0 0 0 0 0 0 0 0 0 0 0 0 0 0 0 0 0 0 0 0 0 0 246 2716 2443 2630 2524 2467 2452 2132 2413 2323 2151 2079 2015 1916 1747 1613 1201 903 702 461 374 231 120 63 52 32 71
0 0 0 0 0 0 0 0 0 0 0 0 0 0 0 0 0 0 0 0 0 0 0 2767 2551 2496 2566 2493 2484 2302 2040 1942 2038 2008 1945 1798 1626 1444 1054 840 605 465 329 162 99 66 6 66 82
0 0 0 0 0 0 0 0 0 0 0 0 0 0 0 0 0 0 0 0 0 0 0 2270 2807 2539 2528 2457 2287 1893 2050 1855 1683 1677 1941 1839 1689 1318 1056 767 574 410 252 130 105 64 76 53 38
0 0 0 0 0 0 0 0 0 0 0 0 0 0 0 0 0 0 0 0 0 0 0 129 2832 2760 2340 2208 1780 2391 1674 1817 1536 1437 1436 1723 1617 1217 864 569 510 350 189 136 80 56 46 9 39
0 0 0 0 0 0 0 0 0 0 0 0 0 0 0 0 0 0 0 0 0 0 0 35 2978 2669 2255 2048 1598 2315 2268 1823 1638 1521 1294 1423 1293 1068 814 518 373 255 137 102 72 44 34 15 12
0 0 0 0 0 0 0 0 0 0 0 0 0 0 0 0 0 0 0 0 0 0 0 61 1808 2601 2146 1824 1529 2289 2207 1830 1914 1467 1356 1168 1089 684 802 712 236 148 89 83 45 40 35 16 35
0 0 0 0 0 0 0 0 0 0 0 0 0 0 0 0 0 0 0 0 0 0 0 31 1191 2460 1910 1664 1501 1236 1967 1714 1528 1328 904 972 1154 612 749 356 182 99 55 16 50 38 49 9 33
1 2 0 0 0 0 0 0 0 0 0 0 0 0 0 0 0 0 0 0 0 0 9 37 457 2481 2132 1692 1367 1172 1402 1426 1523 1430 759 1023 1075 813 483 264 164 97 35 29 42 29 39 6 24
0 0 6 0 0 0 0 0 0 1 3 0 0 0 0 8 0 0 0 0 0 0 13 0 161 730 2225 1636 1239 1411 1434 1111 860 727 1044 734 301 278 237 136 97 53 22 33 39 25 28 33 0
19 24 13 10 0 0 0 0 0 0 0 0 7 24 27 31 12 1 0 0 0 0 54 67 199 454 1872 1624 1429 1495 1317 1074 801 785 536 494 386 230 158 90 43 54 66 24 48 38 51 8 1
68 14 11 9 0 0 0 0 0 1 6 101 134 97 98 69 48 43 8 0 0 0 34 281 476 948 1705 1565 1524 1740 1311 1064 775 645 555 309 128 49 40 35 26 39 13 42 60 26 18 15 13
108 93 3 0 0 0 0 0 0 0 179 173 157 148 85 60 44 133 57 23 0 0 175 616 637 845 1520 1377 1564 1739 1380 1182 1045 633 464 428 146 28 13 1 26 7 27 46 23 22 10 17 15
128 102 65 0 0 0 0 0 0 49 155 166 129 112 22 4 1 67 175 304 113 75 873 914 834 900 1531 1309 1587 1376 1093 1315 757 420 506 349 123 130 2 3 10 13 30 55 30 0 20 37 22
71 109 57 51 0 0 25 0 105 51 31 96 81 33 5 1 0 47 190 225 416 1065 1042 845 777 901 1411 1196 1204 1310 1076 813 478 386 267 137 56 8 0 1 2 4 27 43 22 26 20 13 21
94 84 98 55 88 0 13 2 9 65 84 11 0 18 1 0 0 0 129 207 455 692 500 390 690 949 1200 995 921 942 986 439 344 438 108 9 4 0 3 7 11 29 17 41 12 35 26 14 44
95 86 17 28 31 0 0 80 30 11 1 2 34 14 0 0 0 1 93 327 583 642 471 91 600 792 1175 737 896 847 420 252 419 190 6 0 0 0 0 3 12 16 27 16 15 12 7 16 43
40 83 84 16 0 33 29 4 0 37 0 20 29 14 0 0 0 0 29 223 550 540 95 0 711 851 640 771 916 586 267 355 396 140 3 0 0 0 2 7 0 2 25 25 18 23 32 46 48

GFSSGP_con_mucape_099.txt.gz
CAPE
0 0 0 0 0 0 0 0 0 0 0 0 0 0 0 0 171 296 886 957 1022 959 1146 1265 1446 1653 1745 1682 1588 1567 1721 1890 1937 1854 1843 1946 2018 2061 2025 2108 2302 2396 2437 2012 1965 1865 1900 1724 1723
0 0 0 0 0 0 0 0 0 0 0 0 0 0 0 0 343 851 1137 867 1078 1220 1189 1248 1369 1535 1717 1785 1678 1697 1908 2006 2034 1976 2005 2110 2151 2174 2137 2103 2182 2444 2501 2183 2018 1925 1725 1681 1645
0 0 0 0 0 0 0 0 0 0 0 0 0 0 0 0 227 355 1282 903 967 999 1249 1329 1392 1504 1623 1708 1818 1784 1916 1922 1981 2001 2155 2237 2251 2281 2257 2071 2145 2398 2341 2193 2073 2031 1813 1596 1415
0 0 0 0 0 0 0 0 0 0 0 0 0 0 0 23 370 711 1268 1050 838 873 1229 1183 1277 1464 1627 1719 1824 1873 1863 1810 1870 1942 2149 2264 2302 2370 2234 1994 2224 2349 2251 2311 2447 2232 1716 1351 1229
0 0 0 0 0 0 0 0 0 0 0 0 0 0 0 742 778 906 889 976 815 1210 1133 1006 1234 1442 1620 1794 1871 1897 1927 1861 1877 1903 1978 2159 2265 2226 2032 1895 2073 2046 2183 2262 1963 1843 1479 1271 1145
0 0 0 0 0 0 0 0 0 0 0 0 0 0 0 582 761 798 629 777 1544 1624 1207 1055 1306 1459 1593 1672 1688 1840 1939 1829 1601 1866 1935 2098 2126 1901 1709 1698 1690 1851 1922 1842 1691 1513 1349 1232 1134
0 0 0 0 0 0 0 0 0 0 0 0 0 0 0 639 323 693 652 1783 1802 1719 1351 1104 1276 1424 1481 1514 1593 1757 1926 1864 1339 1606 1922 2056 1951 1638 1588 1646 1538 1591 1599 1351 1473 1317 1204 1210 1048
0 0 0 0 0 0 0 0 0 0 0 0 0 0 0 525 826 787 833 2003 2165 1919 1557 1089 1146 1285 1320 1332 1455 1669 1780 1477 1414 1965 1685 1918 1886 1572 1497 1441 1290 1204 1400 1445 1075 898 853 913 722
0 0 0 0 0 0 0 0 0 0 0 0 0 0 60 159 654 931 1228 1891 2357 2120 1932 1610 1275 1216 1209 1247 1216 1241 1294 1235 1736 2182 1587 1751 1759 1496 1381 1428 1203 1085 1121 823 692 594 450 514 427
0 0 0 0 0 0 0 0 0 0 0 0 0 0 11 53 217 1040 1283 1663 2081 2437 2163 2013 1616 1441 1262 1345 1273 1143 1389 1293 1452 1972 2416 1814 1742 1586 1360 1308 1115 914 817 494 298 247 246 302 271
0 0 0 0 0 0 0 0 0 0 0 0 0 0 0 0 5 696 1310 1490 2128 2352 2605 2308 2127 1717 1647 1625 1194 1219 1272 1431 1331 1756 1869 1797 1610 1465 1390 1218 992 762 558 337 175 111 111 163 161
0 0 0 0 0 0 0 0 0 0 0 0 0 0 0 0 0 0 210 1532 1606 2366 2642 2491 2372 2132 1927 1743 1596 1133 1306 1305 1381 1477 1686 1699 1550 1107 1098 1035 844 704 442 349 205 90 141 153 253
0 0 0 0 0 0 0 0 0 0 0 0 0 0 0 0 0 0 0 0 830 1917 2548 2638 2468 2294 2237 1981 1775 1394 1496 1379 1401 1533 1667 1824 1450 1093 1066 1117 878 725 497 405 277 130 93 86 107
0 0 0 0 0 0 0 0 0 0 0 0 0 0 0 0 0 0 0 0 0 0 2322 2646 2522 2299 2075 2130 2002 1625 1638 1428 1538 1524 1576 1598 1352 1226 1065 1045 938 819 667 545 383 181 100 60 68
0 0 0 0 0 0 0 0 0 0 0 0 0 0 0 0 0 0 0 0 0 0 6 2381 2559 2400 2226 2063 1975 1977 1712 1695 1721 1737 1710 1653 1382 1364 1220 1123 985 918 758 673 398 199 107 41 55
0 0 0 0 0 0 0 0 0 0 0 0 0 0 0 0 0 0 0 0 0 0 0 2064 2327 2476 2445 2243 2265 1876 1871 1898 1792 1805 1792 1686 1460 1405 1286 1161 1034 824 687 504 327 213 89 46 33
0 0 0 0 0 0 0 0 0 0 0 0 0 0 0 0 0 0 0 0 0 0 0 1392 2372 2339 2598 2379 2160 2101 1918 1666 1912 1862 1762 1657 1478 1359 1226 1066 979 792 653 434 283 134 73 30 28
0 0 0 0 0 0 0 0 0 0 0 0 0 0 0 0 0 0 0 0 0 0 0 221 2391 2368 2503 2443 2298 2208 1767 1889 1566 1704 1664 1540 1544 1348 1202 1067 946 739 573 447 240 84 54 67 45
0 0 0 0 0 0 0 0 0 0 0 0 0 0 0 0 0 0 0 0 0 0 0 32 2400 2330 2340 2466 2331 2216 1645 1519 1639 1291 1247 1345 1721 1470 1231 965 947 782 517 362 122 46 65 69 46
0 0 0 0 0 0 0 0 0 0 0 0 0 0 0 0 0 0 0 0 0 0 0 69 2428 2394 2252 2390 2116 1889 1419 1337 1383 1992 1704 1207 1899 1611 1640 1105 574 531 461 314 77 44 49 61 42
0 0 0 0 0 1 0 0 0 0 0 0 0 0 0 0 0 0 0 0 0 0 0 919 2440 2340 2297 2191 1902 1661 1393 1166 1195 1628 1650 1771 995 1188 1458 976 583 458 218 134 65 54 41 34 29
0 0 0 0 2 0 0 0 0 0 0 0 4 0 0 0 0 0 0 0 0 0 0 813 2436 2385 2304 1944 1627 1458 1226 1053 936 919 1129 1340 1397 1164 996 892 887 430 202 148 70 102 23 40 12
0 21 1 0 16 9 0 0 0 0 0 0 0 0 0 0 52 94 11 0 3 0 0 445 2286 2196 1987 1735 1569 1260 1160 1042 873 1297 1686 1320 1264 1154 858 752 572 423 146 165 60 11 10 17 18
4 15 20 1 4 0 0 0 0 0 0 0 140 173 139 85 106 149 117 43 13 0 0 0 2028 2139 1933 1588 1434 1244 1059 1108 905 1204 989 929 838 723 700 294 151 142 71 82 73 36 9 32 19
20 10 17 4 0 0 0 0 0 0 0 5 140 146 103 83 81 191 234 110 72 67 10 0 116 2013 1844 1553 1391 1279 1029 1162 1028 1023 847 634 418 265 187 249 232 100 84 23 26 77 26 47 13
26 35 40 0 0 0 0 0 0 0 1 16 7 77 54 49 47 23 237 144 172 594 23 30 1042 1667 1634 1497 1482 1381 1357 1380 1206 1155 969 672 466 177 189 74 26 39 23 29 26 24 43 33 25
49 18 0 4 46 0 1 7 66 60 106 44 9 27 44 32 10 12 188 175 797 739 530 421 598 1371 1565 1597 1422 1300 1545 1540 1563 1123 723 542 408 289 121 40 23 14 22 45 39 3 28 36 11
69 68 0 24 0 0 73 32 0 4 0 2 1 13 0 0 0 6 166 232 439 517 514 513 553 626 1079 1243 1175 1376 1448 1179 1073 919 748 467 187 150 112 67 76 0 12 25 3 26 16 33 33
11 0 0 31 10 0 0 1 0 5 8 2 0 0 0 0 0 8 162 195 250 271 284 95 132 398 780 1145 978 1067 1255 1141 797 621 306 163 159 34 17 9 4 5 11 2 17 7 25 35 1
21 0 2 0 0 0 0 0 0 0 0 0 0 0 0 0 0 4 87 117 217 101 75 198 170 515 776 932 1051 1112 852 705 686 269 174 70 13 7 0 0 3 4 8 24 39 11 20 13 32

GFSSGP_con_mucape_102.txt.gz
CAPE
0 0 0 0 0 0 0 0 0 0 0 0 0 0 0 0 62 19 704 716 847 1046 1363 1418 1425 1521 1589 1628 1596 1622 1795 1892 1822 1743 1761 1856 1927 2017 2127 2187 2224 2247 2242 1920 1725 1928 1936 1802 1816
0 0 0 0 0 0 0 0 0 0 0 0 0 0 0 137 463 1042 1033 1022 921 1106 1376 1463 1504 1567 1610 1588 1637 1727 1947 1944 1902 1895 1953 1994 2049 2060 2182 2165 2170 2284 2342 2022 1855 1790 1722 1700 1674
0 0 0 0 0 0 0 0 0 0 0 0 0 0 0 5 883 955 930 1023 1130 1139 1273 1440 1591 1667 1654 1602 1630 1729 1904 1911 1882 1928 2104 2143 2195 2166 2208 2089 2234 2383 2452 2200 1894 1605 1661 1577 1402
0 0 0 0 0 0 0 0 0 0 0 0 0 0 0 34 758 923 1005 1166 1072 1180 1210 1423 1571 1690 1788 1741 1731 1761 1810 1771 1775 1892 2137 2266 2364 2322 2143 2006 2291 2462 2425 2409 2142 1765 1548 1248 1167
0 0 0 0 0 0 0 0 0 0 0 0 0 0 0 500 745 1047 952 809 864 1117 1232 1410 1540 1617 1755 1930 1908 1800 1737 1726 1741 1882 2040 2181 2350 2321 2014 1984 2158 2229 2316 2348 2210 1781 1328 1146 1083
0 0 0 0 0 0 0 0 0 0 0 0 0 0 77 717 1286 1209 994 492 871 957 1080 1355 1510 1642 1779 1847 1837 1773 1708 1725 1723 1816 1942 2118 2182 2080 1874 1846 1892 1953 2055 1924 1729 1405 1223 1119 1079
0 0 0 0 0 0 0 0 0 0 0 0 0 0 249 854 1167 1260 879 968 1177 1031 983 1192 1429 1575 1694 1736 1730 1788 1792 1765 1773 1768 1886 1979 1943 1801 1762 1758 1730 1768 1608 1573 1480 1229 1125 1136 955
0 0 0 0 0 0 0 0 0 0 0 0 0 0 407 806 1042 993 1397 1429 1407 1140 982 1151 1378 1518 1470 1584 1663 1806 1845 1699 1551 1703 1860 1938 1821 1642 1528 1630 1625 1457 1346 1374 1071 915 840 936 698
0 0 0 0 0 0 0 0 0 0 0 0 0 0 0 611 907 1212 1800 1894 1647 1481 1074 1110 1224 1387 1332 1353 1568 1778 1886 1706 1373 1403 1609 1921 1790 1615 1457 1403 1368 1295 1296 908 749 721 599 497 409
0 0 0 0 0 0 0 0 0 0 0 0 0 0 448 911 962 1369 1779 1891 1864 1684 1517 1284 1085 1213 1344 1337 1525 1708 1779 1481 1355 1279 1173 1932 1762 1601 1432 1410 1250 1177 1064 707 417 326 275 232 155
0 0 0 0 0 0 0 0 0 0 0 0 0 0 0 325 904 1184 1770 2011 2072 1938 1811 1639 1270 1108 1291 1390 1288 1411 1416 1105 1192 1919 1462 1519 1775 1584 1391 1366 1250 1059 927 714 416 278 294 168 126
0 0 0 0 0 0 0 0 0 0 0 0 0 0 0 0 0 530 1226 1869 1957 2157 2019 1970 1855 1492 1186 1390 1175 1193 1501 1157 1167 1614 1642 1717 1838 1622 1410 1292 1093 966 882 650 484 186 74 126 89
0 0 0 0 0 0 0 0 0 0 0 0 0 0 0 0 0 0 176 1167 1773 2058 2382 2201 2215 2013 1675 1507 1312 1059 1268 1452 1126 1241 1356 1731 1707 1465 1380 1254 1018 908 815 676 525 354 179 164 160
0 0 0 0 0 0 0 0 0 0 0 0 0 0 0 0 0 0 0 0 1289 2018 2420 2372 2331 2277 2107 1635 1685 1416 1101 1131 1241 1374 1492 1613 1564 1360 1227 1090 984 881 831 716 593 538 503 178 186
0 0 0 0 0 0 0 0 0 0 0 0 0 0 0 0 0 0 0 0 0 574 2299 2550 2453 2453 2340 2137 1782 1813 1482 1172 1165 1222 1452 1731 1517 1278 1020 1048 1011 932 870 803 738 678 654 319 77
0 0 0 0 0 0 0 0 0 0 0 0 0 0 0 0 0 0 0 0 0 0 407 2531 2523 2532 2490 2354 1960 1920 1836 1340 1303 1363 1363 1625 1636 1348 1093 1089 1169 1112 1012 985 880 794 776 409 122
0 0 0 0 0 0 0 0 0 0 0 0 0 0 0 0 0 0 0 0 0 0 0 1969 2473 2485 2570 2420 2159 1993 1966 1577 1569 1461 1414 1549 1624 1429 1286 1217 1206 1109 1043 917 1188 1231 792 277 189
0 0 0 0 0 0 0 0 0 0 0 0 0 0 0 0 0 0 0 0 0 0 0 847 1971 2264 2423 2402 2228 2000 1870 1893 1886 1726 1720 1583 1662 1509 1365 1325 1293 1197 1052 806 1066 1076 743 268 136
0 0 0 0 0 0 0 0 0 0 0 0 0 0 0 0 0 0 0 0 0 0 0 0 1605 2002 2298 2368 2111 1845 1565 1961 1986 2020 1874 1757 1655 1544 1457 1411 1304 1128 1001 583 705 905 629 198 95
0 0 0 0 0 0 0 0 0 0 0 0 0 0 0 0 0 0 0 0 0 0 0 0 1256 1857 2217 2168 2086 1680 1670 1725 1699 1884 1927 1817 1627 1505 1434 1267 1137 995 1055 1254 389 595 205 138 75
0 0 0 0 0 0 0 0 0 0 0 0 0 0 0 0 0 0 0 0 0 0 0 0 607 1810 2103 2113 2012 1876 1710 1458 1587 1439 1418 1546 1712 1628 1402 1283 1452 1182 822 451 573 319 275 29 27
0 0 0 0 0 0 0 0 0 0 0 0 0 0 0 0 0 0 6 10 1 0 0 0 271 1775 2032 2150 1986 1840 1544 1477 1507 1363 1031 955 1051 946 1715 1351 1348 802 631 429 233 208 92 80 33
0 0 0 0 1 3 0 0 0 0 0 0 0 20 52 5 22 89 164 121 60 16 0 429 1180 1916 2023 2107 1980 1960 1608 1322 1377 1285 1073 1119 1138 1154 1208 825 1025 775 471 533 338 126 72 38 55
0 0 3 35 40 0 0 0 0 0 0 0 274 105 105 112 256 209 194 151 197 146 45 201 2200 2136 1993 2003 2090 2026 1589 1468 1248 1097 983 1006 997 1125 1201 1111 1144 807 726 475 255 128 66 38 35
0 14 0 0 0 0 0 0 0 1 0 0 54 43 87 145 254 352 374 362 401 193 92 46 2168 1984 1891 1959 1965 1890 1539 1313 1069 1016 870 679 510 809 802 810 772 667 572 328 230 51 60 35 38
0 9 0 0 0 0 5 0 0 44 48 64 15 0 5 43 50 160 275 428 414 261 151 98 1517 1905 1836 1715 1974 1605 1332 1131 1048 821 574 511 604 581 444 467 314 579 365 140 96 33 29 38 37
18 20 1 1 0 0 19 1 58 24 29 61 26 0 0 32 37 68 232 382 437 284 163 188 595 1855 1564 1522 1447 1298 1248 1203 1039 892 765 916 944 763 511 321 195 182 196 131 37 25 26 25 26
25 55 0 0 0 0 0 58 34 0 5 19 7 0 0 12 4 53 177 416 333 304 248 434 538 561 1015 1198 1114 1152 1277 1080 1105 1235 1119 1330 817 565 365 188 130 159 83 37 37 16 42 36 6
68 13 10 14 2 0 0 0 0 0 0 2 0 0 0 1 0 1 175 224 256 180 317 375 427 503 604 792 913 1060 1182 1255 1377 1525 762 938 625 435 327 323 112 64 55 195 41 49 29 38 22
2 11 13 0 0 0 0 0 0 0 0 0 0 0 0 0 0 0 32 157 137 197 196 129 118 189 182 349 395 643 871 1290 914 617 631 509 334 142 133 45 29 4 4 10 14 15 7 24 37

GFSSGP_con_mucape_105.txt.gz
CAPE
0 0 0 0 0 0 0 0 0 0 0 0 0 0 0 0 0 0 451 804 834 1094 1263 1364 1589 1646 1620 1635 1582 1630 1668 1674 1725 1803 1824 1882 2007 2079 2096 2122 2164 2110 2122 1795 1743 1802 1833 1754 1763
0 0 0 0 0 0 0 0 0 0 0 0 0 0 0 0 294 811 889 862 977 1205 1274 1378 1551 1657 1681 1641 1655 1755 1891 1782 1747 1825 1943 2025 2146 2178 2177 2106 2056 2157 2260 1901 1924 1893 1857 1781 1712
0 0 0 0 0 0 0 0 0 0 0 0 0 0 0 0 504 804 830 918 1103 1299 1333 1377 1517 1636 1671 1666 1713 1791 1844 1717 1711 1817 2073 2144 2251 2335 2296 2070 2095 2272 2329 1937 1625 1713 1741 1643 1413
0 0 0 0 0 0 0 0 0 0 0 0 0 0 0 0 795 904 1136 1078 1208 1399 1422 1479 1513 1604 1699 1787 1799 1826 1737 1606 1623 1787 2092 2238 2318 2395 2247 2054 2218 2377 2353 2036 1721 1536 1559 1272 1178
0 0 0 0 0 0 0 0 0 0 0 0 0 0 0 173 635 1103 1160 1187 1141 1325 1397 1500 1574 1608 1733 1885 1899 1845 1699 1580 1628 1801 1975 2198 2280 2293 2103 2015 2248 2309 2217 2262 1907 1624 1272 1102 1076
0 0 0 0 0 0 0 0 0 0 0 0 0 0 0 305 935 1085 1088 1061 1121 1238 1376 1532 1656 1689 1770 1853 1832 1804 1669 1615 1646 1774 1915 2194 2200 2040 1968 1857 1989 2097 2101 1829 1680 1289 1146 1017 1008
0 0 0 0 0 0 0 0 0 0 0 0 0 0 0 824 1009 942 850 868 1102 1187 1288 1457 1606 1695 1776 1858 1767 1768 1686 1668 1690 1762 1835 2030 2048 1887 1873 1821 1844 1926 1921 1645 1369 1150 1050 1016 894
0 0 0 0 0 0 0 0 0 0 0 0 0 0 0 177 1184 905 549 909 1018 1122 1221 1348 1557 1573 1621 1706 1768 1773 1754 1715 1699 1759 1786 1846 1904 1846 1796 1758 1709 1500 1435 1338 1273 1027 981 902 608
0 0 0 0 0 0 0 0 0 0 0 0 0 0 0 131 1058 1336 1277 1252 1054 913 1101 1249 1439 1628 1574 1545 1685 1796 1849 1769 1765 1774 1827 1811 1721 1742 1747 1734 1685 1246 1386 1114 1030 883 775 728 499
0 0 0 0 0 0 0 0 0 0 0 0 0 0 0 222 991 1319 1350 1146 1250 1121 981 1126 1313 1532 1436 1344 1630 1764 2119 1801 1651 1699 1820 1778 1681 1664 1593 1623 1619 1278 1213 951 911 808 678 684 471
0 0 0 0 0 0 0 0 0 0 0 0 0 0 0 450 822 1129 1528 1610 1405 1358 1043 1106 1210 1225 1234 1356 1475 1578 2064 1795 1507 1582 1627 1613 1741 1663 1534 1537 1440 1291 1100 816 701 594 481 487 463
0 0 0 0 0 0 0 0 0 0 0 0 0 0 0 0 656 674 928 1725 1957 1795 1504 1205 1134 1206 1245 1259 1285 1493 1675 1845 1505 1528 1201 1870 1717 1682 1546 1521 1363 1254 1073 792 536 337 236 308 246
0 0 0 0 0 0 0 0 0 0 0 0 0 0 0 0 0 251 399 306 1632 1878 1956 1688 1523 1369 1285 1141 1021 1213 1350 1283 1161 1111 1492 1356 1709 1618 1540 1468 1377 1223 1033 879 654 464 267 237 122
0 0 0 0 0 0 0 0 0 0 0 0 0 0 0 0 0 0 0 0 46 888 2011 2113 1851 1684 1493 1214 1002 896 1001 1093 1142 1252 1832 1289 1783 1676 1566 1435 1333 1181 1031 905 742 638 430 251 213
0 0 0 0 0 0 0 0 0 0 0 0 0 0 0 0 0 0 0 0 0 0 1355 2230 2176 2048 1880 1680 1489 1277 908 1055 1237 1521 1388 1548 1824 1698 1595 1413 1297 1064 980 897 806 683 641 563 446
0 0 0 0 0 0 0 0 0 0 0 0 0 0 0 0 0 0 0 0 0 0 5 1953 2369 2270 2222 2080 1926 1731 1456 925 1071 1272 1263 1388 1818 1649 1399 1247 1192 1102 948 908 829 767 707 681 457
0 0 0 0 0 0 0 0 0 0 0 0 0 0 0 0 0 0 0 0 0 0 0 188 2418 2475 2447 2356 2261 2023 1802 1309 945 997 1106 1278 1518 1602 1360 1233 990 955 917 896 884 822 800 818 663
0 0 0 0 0 0 0 0 0 0 0 0 0 0 0 0 0 0 0 0 0 0 0 0 1458 2464 2566 2494 2302 2228 2021 1593 1492 1285 1109 1161 1338 1628 1499 1185 993 930 981 969 919 934 707 764 952
0 0 0 0 0 0 0 0 0 0 0 0 0 0 0 0 0 0 0 0 0 0 0 0 283 2208 2336 2417 2213 2201 2140 1887 1753 1631 1287 1249 1301 1605 1653 1378 1176 1055 1085 1036 979 885 637 557 696
0 0 0 0 0 0 0 0 0 0 0 0 0 0 0 0 0 0 0 0 0 0 0 0 87 1633 2147 2221 2226 2005 1948 1933 1690 1570 1583 1490 1402 1462 1666 1590 1449 1298 1226 1128 874 672 411 358 341
0 0 0 0 0 0 0 0 0 0 0 0 0 0 0 0 0 0 0 0 0 0 0 0 9 794 1890 2149 2079 2047 1729 1615 1653 1589 1734 1685 1639 1543 1613 1668 1427 1244 1599 1012 638 408 271 191 161
0 0 0 0 0 0 0 0 0 0 0 0 0 7 35 17 1 0 0 19 16 4 0 0 0 663 1611 2064 1923 1713 1545 1387 1570 1533 1680 1784 1717 1757 1542 1538 1392 1280 1247 1300 637 434 232 174 128
0 0 0 0 0 0 0 0 0 0 0 0 12 192 65 12 23 26 44 87 171 255 172 43 0 244 1348 1987 1898 1644 1498 1315 1314 1356 1493 1647 1628 1553 1389 1629 1365 1267 921 1065 807 531 296 172 144
0 0 0 0 0 0 0 0 0 0 0 9 79 29 106 128 86 66 161 295 393 335 204 156 574 743 1646 2049 1914 1605 1532 1418 1394 1258 1114 1267 1303 1303 1203 1169 1066 1000 1100 1037 596 501 576 214 197
0 0 0 0 0 0 0 0 0 53 99 57 16 7 28 119 238 223 253 372 362 426 306 276 1716 1996 1927 2098 1895 1656 1501 1379 1365 1256 1219 1061 979 949 916 738 1036 833 774 824 755 618 781 497 149
0 0 0 0 0 0 3 0 20 11 51 34 34 6 0 36 26 112 115 214 267 513 471 302 985 2024 2080 1976 1961 1671 1534 1417 1467 1237 1146 878 994 1310 928 524 782 885 793 587 699 414 363 252 115
0 0 0 0 0 0 0 0 72 3 2 11 10 0 0 0 0 36 76 87 243 364 385 361 528 1318 1644 1880 2150 2020 1529 1484 1522 1132 915 728 848 851 766 364 374 596 902 621 674 307 252 131 70
0 0 0 0 0 0 0 0 0 0 0 0 0 0 1 1 0 2 44 64 147 137 335 414 339 893 1231 1617 1905 1817 1412 1260 966 918 810 853 534 464 533 634 454 369 279 311 188 151 104 63 50
2 34 4 2 0 0 0 0 0 0 0 0 0 0 0 1 6 0 30 107 219 263 312 268 347 284 506 1181 1618 1286 908 814 837 802 834 675 701 775 1053 807 310 269 124 165 148 135 98 77 48
0 0 3 0 0 0 0 0 0 0 0 0 0 0 0 0 0 0 9 48 246 178 211 298 256 319 217 311 387 697 684 743 742 626 756 942 751 638 413 430 243 345 204 171 93 76 54 101 38

GFSSGP_con_mucape_108.txt.gz
CAPE
0 0 0 0 0 0 0 0 0 0 0 0 0 0 0 0 0 0 401 661 714 973 1204 1411 1628 1703 1639 1578 1526 1567 1722 1829 1905 1908 1949 1994 2055 2071 2076 2089 2119 2146 2076 1901 1771 1773 1628 1708 1756
0 0 0 0 0 0 0 0 0 0 0 0 0 0 0 0 2 463 828 813 969 1193 1281 1447 1516 1772 1829 1683 1664 1687 1881 1894 1841 1927 1990 2066 2139 2168 2162 2095 1983 2107 2155 2117 1805 1811 1754 1676 1629
0 0 0 0 0 0 0 0 0 0 0 0 0 0 0 0 22 581 783 916 1196 1245 1289 1504 1630 1740 1843 1805 1803 1769 1738 1701 1767 1865 2058 2176 2224 2259 2208 1980 2002 2211 2315 2186 1973 1897 1791 1533 1396
0 0 0 0 0 0 0 0 0 0 0 0 0 0 0 0 206 695 954 1104 1344 1331 1388 1607 1722 1770 1834 1893 1938 1876 1648 1528 1661 1847 2064 2270 2343 2344 2148 1964 2119 2310 2294 1678 1525 1833 1638 1217 1184
0 0 0 0 0 0 0 0 0 0 0 0 0 0 0 0 570 1050 1146 1255 1373 1442 1485 1629 1804 1821 1869 2019 2049 1913 1609 1507 1667 1889 2019 2223 2363 2316 2035 1990 2105 2170 2113 1807 1384 1750 1316 1115 1055
0 0 0 0 0 0 0 0 0 0 0 0 0 0 0 0 723 1019 1255 1256 1325 1458 1518 1576 1821 1830 1876 1977 1969 1826 1602 1560 1662 1879 1993 2189 2247 2098 1980 1849 2022 1948 1977 1707 1621 1334 1178 1060 944
0 0 0 0 0 0 0 0 0 0 0 0 0 0 0 0 394 1027 1275 1168 1311 1437 1539 1576 1769 1838 1877 1918 1876 1787 1648 1631 1671 1809 2005 2073 2060 1959 1903 1901 1833 1829 1722 1551 1331 1121 1021 1012 741
0 0 0 0 0 0 0 0 0 0 0 0 0 0 0 0 254 1005 1208 1101 1250 1388 1473 1706 1817 1818 1819 1813 1839 1800 1716 1667 1686 1724 1940 1985 1857 1856 1872 1797 1703 1539 1532 1407 1181 963 916 868 616
0 0 0 0 0 0 0 0 0 0 0 0 0 0 0 0 982 1067 1026 942 1038 1252 1446 1652 1994 1909 1795 1779 1814 1816 1776 1758 1735 1724 1805 1911 1807 1747 1828 1749 1643 1502 1489 1245 1038 876 838 727 566
0 0 0 0 0 0 0 0 0 0 0 0 0 0 0 0 537 1134 1167 890 918 1005 1290 1470 1854 1697 1537 1643 1761 1732 1770 1807 1763 1732 1752 1737 1751 1767 1745 1731 1670 1381 1278 1194 959 858 795 677 528
0 0 0 0 0 0 0 0 0 0 0 0 0 0 0 0 0 525 1150 1367 1300 1107 964 1289 1624 1632 1653 1506 1660 1894 1856 1970 1782 1738 1761 1662 1609 1694 1700 1695 1676 1339 1185 1084 968 819 729 683 512
0 0 0 0 0 0 0 0 0 0 0 0 0 0 0 0 0 0 681 722 1366 1777 1551 1018 1213 1376 1371 1312 1732 2291 2634 2118 1777 1772 1782 1896 1792 1575 1652 1592 1617 1360 1187 923 924 756 656 661 536
0 0 0 0 0 0 0 0 0 0 0 0 0 0 0 0 0 6 198 427 300 1298 1957 1821 1128 1371 1411 1379 1316 1536 2100 2106 1633 1630 1679 1737 1634 1464 1553 1553 1536 1438 1180 892 789 734 520 592 572
0 0 0 0 0 0 0 0 0 0 0 0 0 0 0 0 0 0 129 227 171 190 1216 2071 1984 1262 1237 1249 1234 1146 1376 1588 1737 1655 1620 1409 1407 1555 1800 1501 1522 1403 1218 1023 752 652 426 460 430
0 0 0 0 0 0 0 0 0 0 0 0 0 0 0 0 0 0 0 14 0 0 2 1561 2132 2170 1681 1195 1130 1148 1227 1420 1470 1097 1210 1158 1703 1791 1976 1487 1482 1386 1289 1081 881 658 536 482 291
0 0 0 0 0 0 0 0 0 0 0 0 0 0 0 0 0 0 0 0 0 0 0 0 1769 1855 2171 1873 1563 1158 1050 1067 881 754 913 1138 1362 1972 2127 1717 1435 1405 1290 1177 998 854 723 505 348
0 0 0 0 0 0 0 0 0 0 0 0 0 0 0 0 0 0 0 0 0 0 0 0 827 1913 1869 2150 2071 1538 1325 1139 1168 1051 1130 1118 1931 1815 1890 1725 1488 1332 1285 1153 1043 900 773 652 473
0 0 0 0 0 0 0 0 0 0 0 0 0 0 0 0 0 0 0 0 0 0 0 0 12 1576 1838 1920 2066 1923 1599 1458 1420 1287 1140 1193 1528 2032 2193 1506 1495 1363 1502 1078 1006 935 848 653 602
0 0 0 0 0 0 0 0 0 0 0 0 0 0 0 0 0 0 0 0 0 0 0 0 0 34 1798 1931 1773 1780 1749 1834 1652 1430 1052 1079 1241 1743 1825 1703 1341 1289 1222 1263 860 911 841 754 563
0 0 0 0 0 0 0 0 0 0 0 0 0 0 0 0 0 0 0 0 0 0 0 0 0 0 1172 1459 1867 1774 1763 1770 1485 1401 1334 976 1003 1184 1522 1588 1165 1204 1051 929 822 679 629 934 443
0 0 0 0 0 0 0 0 0 0 0 0 0 0 0 0 0 0 0 0 0 0 0 0 0 0 434 1397 1992 1913 1973 1673 1574 1491 1580 1466 1173 1058 1184 990 1082 1145 1030 986 863 725 593 873 317
0 0 0 0 0 0 0 0 0 0 0 0 0 0 0 0 0 0 0 0 0 0 0 0 2 0 459 1680 1923 1715 1621 1561 1260 1605 1702 1555 1430 1163 1044 1051 1087 1035 1117 1222 924 703 1101 590 301
0 0 0 0 0 0 0 0 0 0 0 0 0 0 9 21 18 19 0 0 0 4 63 40 17 79 0 1510 1757 1866 1722 1512 1288 1372 1592 1627 1618 1495 1480 1421 1347 1272 1303 1047 1113 901 1075 361 204
0 0 0 0 0 0 0 0 0 0 0 0 4 5 4 14 39 86 79 1 41 124 250 179 151 402 1 1394 1868 1889 1662 1493 1351 1335 1208 1932 1593 1487 1566 1625 1557 1437 1203 1165 1047 789 511 564 329
0 0 0 0 0 0 0 0 0 0 2 0 0 4 0 10 30 154 120 43 297 389 455 377 613 1045 603 1429 1911 1913 1631 1465 1311 1262 1254 1760 1863 1622 1205 1588 1640 1250 1123 1162 1060 610 757 602 475
0 0 0 0 0 0 0 0 0 0 1 2 1 2 0 4 2 23 79 145 347 401 579 504 985 1454 1563 1865 1870 1922 1699 1553 1374 1203 1028 1402 1352 1354 1062 1190 1293 1237 1102 1049 686 715 943 564 468
0 0 0 0 0 0 0 0 0 0 0 0 0 1 0 9 0 13 4 87 237 175 199 337 592 964 1500 2187 1953 1921 1886 1518 1452 1328 1220 1107 1066 1061 897 810 1441 965 758 600 637 554 531 500 527
0 0 0 0 0 0 0 0 0 0 0 0 0 0 0 1 0 0 4 4 62 71 124 158 261 517 823 1374 1672 1731 1734 1488 1380 1354 1304 1305 937 713 625 647 1105 1032 945 726 615 565 506 429 390
0 0 0 0 0 0 0 0 0 0 0 0 0 0 0 0 0 2 2 0 11 95 79 144 233 427 543 871 1393 1563 1547 1481 1556 1281 1277 881 602 664 564 712 773 598 532 505 454 327 246 203 174
0 0 0 0 0 0 0 0 0 0 0 0 0 0 0 0 0 0 0 8 36 68 263 322 268 189 409 559 942 1177 1385 1608 1476 1084 779 669 693 580 514 473 545 535 548 205 218 122 159 123 92

GFSSGP_con_mucape_111.txt.gz
CAPE
0 0 0 0 0 0 0 0 0 0 0 0 0 0 0 0 0 0 557 661 1071 1441 1723 1770 1650 1702 1672 1642 1603 1697 2061 2225 2231 2067 1930 1877 1895 1942 1965 2031 2112 2215 2224 2108 1836 1770 1867 2047 1840
0 0 0 0 0 0 0 0 0 0 0 0 0 0 0 0 0 0 924 1050 1297 1644 1814 1927 1645 1716 1764 1738 1711 1806 2148 2215 2187 2171 2139 2098 2068 2079 2066 2029 2023 2100 2253 2269 1800 1737 1859 1780 1666
0 0 0 0 0 0 0 0 0 0 0 0 0 0 0 0 0 203 1045 1320 1483 1694 1809 1983 1697 1743 1829 1818 1839 1928 1984 2018 2065 2148 2274 2285 2280 2323 2219 1970 1991 2176 2381 2333 1911 1874 1759 1562 1430
0 0 0 0 0 0 0 0 0 0 0 0 0 0 0 0 1 625 1098 1426 1635 1742 1828 1693 1740 1796 1870 1917 1973 1985 1865 1801 1941 2104 2306 2404 2450 2459 2186 1952 2079 2354 2436 2506 2334 2085 1611 1290 1284
0 0 0 0 0 0 0 0 0 0 0 0 0 0 0 0 52 921 1417 1550 1729 1814 1961 1826 1807 1873 1945 2086 2084 1912 1708 1734 1849 2071 2210 2327 2459 2371 2071 2027 2167 2312 2276 1999 2182 1809 1359 1179 1162
0 0 0 0 0 0 0 0 0 0 0 0 0 0 0 0 4 970 1539 1606 1725 1944 2020 2080 1985 1947 1988 2087 2028 1739 1592 1702 1871 2022 2186 2351 2361 2170 2022 2060 2131 2098 1879 1557 1655 1423 1258 1129 1085
0 0 0 0 0 0 0 0 0 0 0 0 0 0 0 0 209 770 1233 1445 1697 1873 2072 2115 1953 2125 2019 2066 1979 1702 1558 1678 1881 1960 2129 2326 2276 2075 2027 2052 2021 1968 1713 1607 1520 1262 1130 1088 978
0 0 0 0 0 0 0 0 0 0 0 0 0 0 0 0 664 973 1171 1362 1448 1560 2046 2082 1883 2412 2314 2413 1996 1734 1596 1628 1799 1939 2070 2207 2170 2055 1986 2007 1969 1945 1669 1530 1330 1112 1040 928 845
0 0 0 0 0 0 0 0 0 0 0 0 0 0 0 0 140 983 1217 1374 1508 1466 1524 1734 1863 2233 2243 2441 2245 1888 1705 1623 1704 1865 1992 2144 2500 2463 2224 2120 1970 1891 1696 1374 1132 1012 978 833 705
0 0 0 0 0 0 0 0 0 0 0 0 0 0 0 0 0 0 985 1285 1356 1353 1544 1889 1928 2127 2095 2074 2174 2395 2226 2149 2120 2092 2229 2397 2403 2499 2277 2039 1831 1734 1616 1246 1009 932 947 888 1212
0 0 0 0 0 0 0 0 0 0 0 0 0 0 0 0 0 0 0 1515 1347 1348 1402 1390 1729 2158 2366 2058 2081 2080 2059 2177 2064 1956 2026 2160 2157 2367 2387 2397 2117 2167 1634 1765 1168 1172 1376 1392 1315
0 0 0 0 0 0 0 0 0 0 0 0 0 0 0 0 0 0 0 180 1559 1899 1541 1560 1462 1534 1884 2034 2081 1972 1972 1984 1965 2849 1922 1925 1846 1934 2087 2226 2309 2238 2049 2036 1726 1748 1552 1526 1262
0 0 0 0 0 0 0 0 0 0 0 0 0 0 0 0 0 0 0 0 340 1436 2108 1638 1632 1616 1333 1975 1978 1819 1620 1727 2457 2344 2361 2135 1893 1854 1788 1965 2104 2133 1915 1726 1724 1519 1488 1444 1213
0 0 0 0 0 0 0 0 0 0 0 0 0 0 0 0 0 0 0 0 156 112 643 2262 1668 1691 1552 1307 1450 1782 1577 1630 2337 1984 2088 2132 2155 1941 1979 1718 1846 1896 1666 1471 1497 1346 1282 1325 1240
0 0 0 0 0 0 0 0 0 0 0 0 0 0 0 0 0 0 0 0 0 233 93 406 2187 1785 1586 1673 1679 1461 1611 1542 1756 2033 2293 2130 2198 2003 1916 1553 1611 1566 1394 1236 1112 1150 1152 1273 1074
0 0 0 0 0 0 0 0 0 0 0 0 0 0 0 0 0 0 0 0 0 1 153 77 380 1946 1848 1894 1931 1905 1743 1878 1866 2032 2003 2238 2189 1944 1787 1609 1744 1485 1469 1357 1157 975 1009 1075 1023
0 0 0 0 0 0 0 0 0 0 0 0 0 0 0 0 0 0 0 0 0 0 0 0 0 1018 1965 2062 2016 1932 1813 1896 1990 1926 1965 1954 2042 1562 1572 1570 2200 1491 1413 1377 1277 1058 997 863 720
0 0 0 0 0 0 0 0 0 0 0 0 0 0 0 0 0 0 0 0 0 0 0 0 0 0 1469 2033 2281 2027 1922 1862 1826 1728 1477 1436 1477 1157 1803 1610 1807 1890 1327 1315 1262 1211 1058 915 866
0 0 0 0 0 0 0 0 0 0 0 0 0 0 0 0 0 0 0 0 0 0 0 0 0 0 123 1345 1759 1638 1378 1747 1761 1484 1510 1354 1243 1209 1662 1609 1506 2067 1342 1173 1139 1111 1136 1065 806
0 0 0 0 0 0 0 0 0 0 0 0 0 0 0 0 0 0 0 0 0 0 0 0 0 0 0 587 1523 1716 1613 1571 1760 1602 1333 1227 1198 1256 1236 1551 1099 1846 1494 1051 909 1066 957 990 804
0 0 0 0 0 0 0 0 0 0 0 0 0 0 0 0 0 0 0 0 0 0 0 0 0 0 0 0 890 2009 2103 2166 1504 1365 1420 1463 1461 1262 1178 1296 1330 1695 1568 1009 983 911 838 693 521
0 0 0 0 0 0 0 0 0 0 0 0 0 0 0 0 0 0 0 0 0 0 0 0 0 0 0 0 93 1733 1766 1554 1406 1604 1617 1435 1435 1489 1042 1117 1530 1482 1379 957 754 721 779 525 387
0 0 0 0 0 0 0 0 0 0 0 0 0 0 0 0 0 0 0 0 0 0 0 0 0 0 0 0 110 1844 2052 1983 1902 2153 2051 1551 1424 1765 1160 1128 1093 1400 1189 746 768 709 721 658 401
0 0 0 0 0 0 0 0 0 0 0 0 0 0 0 0 0 0 0 0 0 5 5 3 0 14 0 144 154 1715 2196 2060 2175 2203 1816 1829 1488 1446 1408 1203 1096 1291 1211 679 709 825 896 643 461
0 0 0 0 0 0 0 0 0 0 0 0 0 0 0 0 0 0 0 0 0 0 29 143 94 141 143 375 304 1677 2261 2422 2315 2107 1974 1547 1501 1208 1594 1304 1075 1187 1289 1078 1020 1045 867 707 528
0 0 0 0 0 0 0 0 0 0 0 0 0 0 0 0 0 0 0 0 5 45 155 237 229 257 359 558 494 1519 1641 1764 2161 2092 1949 1762 1471 1368 1362 1305 1321 1019 1078 1142 1097 1071 846 650 572
0 0 0 0 0 0 0 0 0 0 0 0 0 0 0 0 0 0 0 0 4 4 80 199 351 357 640 706 851 1295 1697 1684 1908 1917 1994 1942 1593 1124 1214 1435 915 1073 854 1080 1354 1047 841 672 741
0 0 0 0 0 0 0 0 0 0 0 0 0 0 0 0 0 0 0 0 0 0 122 123 153 238 425 688 1261 1464 1872 1497 1528 1683 1703 1655 1494 944 1506 1530 973 707 826 1525 1169 777 606 429 380
0 0 0 0 0 0 0 0 0 0 0 0 0 0 0 0 0 0 0 0 4 0 26 41 98 102 142 421 912 1628 1687 1673 1341 1353 1582 1452 1236 1035 1499 1099 881 686 910 1298 936 553 393 454 433
0 0 0 0 0 0 0 1 0 0 0 0 0 0 0 0 0 0 0 0 4 0 2 42 133 151 79 118 631 1165 1448 1365 1404 1239 1387 1986 1351 1362 1225 878 513 626 904 916 434 273 350 325 269

GFSSGP_con_mucape_114.txt.gz
CAPE
0 0 0 0 0 0 0 0 0 0 0 0 0 0 0 0 0 0 0 1332 1377 1591 2342 1976 1591 1717 1821 1863 1972 2154 2366 2468 2249 2087 2104 2070 2061 2166 2248 2253 2275 2400 2458 2099 1843 2184 2044 1923 2001
0 0 0 0 0 0 0 0 0 0 0 0 0 0 0 0 0 0 185 1065 1397 1803 2192 2046 1568 1696 1845 1870 2016 2284 2572 2562 2300 2221 2221 2192 2204 2312 2314 2281 2258 2451 2528 2309 1771 1919 2306 1953 1739
0 0 0 0 0 0 0 0 0 0 0 0 0 0 0 0 0 0 157 1252 1795 1956 2142 2251 1652 1685 1820 1873 2024 2300 2443 2367 2328 2264 2372 2378 2374 2422 2408 2220 2231 2491 2656 2466 1976 2091 2028 1715 1520
0 0 0 0 0 0 0 0 0 0 0 0 0 0 0 0 0 0 589 1809 1945 2098 2257 2177 1680 1711 1872 1928 2052 2225 2258 2267 2246 2286 2460 2506 2554 2557 2399 2142 2323 2617 2654 2627 2500 2115 1765 1432 1365
0 0 0 0 0 0 0 0 0 0 0 0 0 0 0 0 0 0 538 2044 1976 2173 2364 2547 1730 1777 1912 2045 2125 2076 2085 2219 2296 2374 2439 2523 2629 2560 2254 2126 2349 2557 2644 2615 2467 1936 1520 1366 1305
0 0 0 0 0 0 0 0 0 0 0 0 0 0 0 0 0 38 551 2000 2273 2403 2587 2687 1826 1860 1948 2048 2008 1827 1884 2116 2287 2387 2421 2562 2552 2333 2162 2168 2339 2419 2465 2273 2024 1593 1442 1321 1250
0 0 0 0 0 0 0 0 0 0 0 0 0 0 0 0 0 70 803 1898 2444 2632 2757 2788 2267 2213 1990 2022 1881 1719 1725 1884 2106 2258 2397 2498 2396 2190 2140 2229 2273 2240 1842 1724 1736 1461 1328 1312 1178
0 0 0 0 0 0 0 0 0 0 0 0 0 0 0 0 0 0 1 1903 2379 2619 2903 3027 2444 2557 2628 2525 1906 1701 1648 1763 1907 2103 2317 2416 2305 2138 2113 2190 2176 2075 1807 1747 1617 1339 1259 1221 1120
0 0 0 0 0 0 0 0 0 0 0 0 0 0 0 0 0 0 0 466 2085 2384 2504 2689 2451 2313 2742 2841 2441 1793 1640 1712 1849 1954 2150 2426 2546 2629 2546 2170 2097 2063 1855 1700 1491 1277 1226 1142 1035
0 0 0 0 0 0 0 0 0 0 0 0 0 0 0 0 0 0 0 0 479 2364 2501 2221 2246 2169 2469 2627 2842 2686 2444 2249 2224 2170 2419 2474 2464 2533 2385 2182 2117 2027 1870 1615 1306 1209 1162 1100 1437
0 0 0 0 0 0 0 0 0 0 0 0 0 0 0 0 0 0 0 0 1 1341 2352 2314 2120 2204 2366 2689 2513 2657 2598 2571 2578 2605 2597 2441 2465 2631 2666 2543 2462 2533 1921 2231 1341 1544 1643 1404 1303
0 0 0 0 0 0 0 0 0 0 0 0 0 0 0 0 0 0 0 0 0 339 1860 2258 2396 2291 2544 2591 2129 2262 2800 2531 2554 2658 2807 2628 2836 2751 2579 2641 2482 2423 2621 2277 1940 1740 1606 1564 1452
0 0 0 0 0 0 0 0 0 0 0 0 0 0 0 0 0 0 0 0 0 51 619 1990 2276 2323 2355 2440 2241 2096 2521 2493 2653 2554 2439 2728 2719 2543 2568 2481 2430 2495 2308 2415 2149 1904 1815 1691 1496
0 0 0 0 0 0 0 0 0 0 0 0 0 0 0 0 0 0 0 0 0 0 308 560 1534 2302 2305 2352 2428 2460 2590 2410 2443 2257 2296 2573 2575 2482 2285 2465 2528 2470 2296 2431 2352 2078 1988 1825 1679
0 0 0 0 0 0 0 0 0 0 0 0 0 0 0 0 0 0 0 0 0 0 21 287 703 1326 2469 2389 2354 2348 2290 2245 2202 2078 2594 2360 2354 2542 2189 2294 2433 2311 2689 2312 2429 2037 1820 1620 1714
0 0 0 0 0 0 0 0 0 0 0 0 0 0 0 0 0 0 0 0 0 0 0 26 105 413 1685 2430 2347 2187 2146 2187 2114 2148 2599 2879 2267 2537 2299 2187 2299 2537 2754 2474 2267 2019 1897 1804 1644
0 0 0 0 0 0 0 0 0 0 0 0 0 0 0 0 0 0 0 0 0 0 0 0 0 58 567 1766 2401 2609 2376 2259 2178 2195 2348 2577 2823 2988 2712 2370 2132 2353 2114 2322 2163 2075 2011 1745 1479
0 0 0 0 0 0 0 0 0 0 0 0 0 0 0 0 0 0 0 0 0 0 0 0 0 0 0 718 1872 1937 2327 2551 2321 2291 2373 2554 2903 2801 2965 2313 2348 2242 1924 2095 2204 2127 1866 1893 1596
0 0 0 0 0 0 0 0 0 0 0 0 0 0 0 0 0 0 0 0 0 0 0 0 0 0 0 2 418 1027 1966 2146 2408 2536 2476 2492 2808 2845 2713 2137 2142 1648 1507 1875 1798 1770 1897 2024 1818
0 0 0 0 0 0 0 0 0 0 0 0 0 0 0 0 0 0 0 0 0 0 0 0 0 0 0 0 0 717 1271 1652 1799 2369 2797 2635 2448 2498 2679 2377 2082 1607 1458 1664 1665 1345 1291 1231 1342
0 0 0 0 0 0 0 0 0 0 0 0 0 0 0 0 0 0 0 0 0 0 0 0 0 0 0 0 0 0 884 1395 1691 2279 2877 2917 2396 2394 2727 2262 1877 1488 1464 1079 1783 1417 1117 1175 953
0 0 0 0 0 0 0 0 0 0 0 0 0 0 0 0 0 0 0 0 0 0 0 0 0 0 0 0 0 0 22 954 1568 1771 2152 2554 2809 2464 2280 2097 1896 1498 1377 1110 1403 1427 1342 1165 875
0 0 0 0 0 0 0 0 0 0 0 0 0 0 0 0 0 0 0 0 0 0 0 0 0 0 0 0 6 5 5 1126 1322 2036 1943 2164 2276 1977 1910 1872 1934 1485 1509 1134 1202 1548 1305 1114 937
0 0 0 0 0 0 0 0 0 0 0 0 0 0 0 0 0 0 0 0 0 0 0 0 0 0 0 0 0 15 199 482 1442 1657 2146 2386 2306 1652 1576 1512 1685 1525 1371 1116 1024 1375 1176 1165 957
0 0 0 0 0 0 0 0 0 0 0 0 0 0 0 0 0 0 0 0 0 0 0 0 0 0 0 0 7 0 76 586 1943 1679 2364 2392 1972 1530 1481 1681 1811 1854 1319 1183 916 1119 1201 1136 778
0 0 0 0 0 0 0 0 0 0 0 0 0 0 0 0 0 0 0 0 0 0 0 0 1 0 43 82 54 69 95 922 1800 2039 2048 2305 2034 1627 1779 1804 1651 1752 1295 1180 1118 1115 1095 847 967
0 0 0 0 0 0 0 0 0 0 0 0 0 0 0 0 0 0 0 0 0 0 0 0 0 73 179 144 164 260 395 1343 2056 2254 2592 2484 2284 1584 1764 1817 1753 1430 1761 1101 979 923 746 747 945
0 0 0 0 0 0 0 0 0 0 0 0 0 0 0 0 0 0 0 0 0 0 0 0 1 148 238 254 364 471 630 1179 2176 2182 2217 2153 2423 2159 1931 1574 1581 1697 1599 1211 857 796 819 1058 1177
0 0 0 0 0 0 0 0 0 0 0 0 0 0 0 0 0 0 0 0 0 0 0 0 0 147 109 122 248 584 915 1647 2256 2077 2043 2266 2259 1864 1763 1873 1310 1343 1709 1475 1035 802 847 901 1190
0 0 0 0 0 0 0 0 0 0 0 0 0 0 0 0 0 0 0 0 0 0 0 0 22 25 108 94 161 711 1504 1532 1789 1807 1881 1962 1727 1695 1624 1459 924 1299 1744 1340 1284 741 1137 1011 558

GFSSGP_con_mucape_117.txt.gz
CAPE
0 0 0 0 0 0 0 0 0 0 0 0 0 0 0 0 0 0 0 522 900 1228 2848 1874 1583 1872 2002 2237 2285 2269 2301 2396 2321 2246 2276 2239 2263 2411 2474 2449 2491 2668 2757 2196 2142 2047 2038 2128 2423
0 0 0 0 0 0 0 0 0 0 0 0 0 0 0 0 0 0 0 357 1297 1661 2779 2165 1540 1822 1995 2193 2368 2448 2645 2549 2381 2351 2418 2368 2411 2514 2530 2479 2419 2483 2728 2183 2266 2170 2216 2116 1976
0 0 0 0 0 0 0 0 0 0 0 0 0 0 0 0 0 0 26 1309 1800 1944 2521 2527 1567 1736 1971 2160 2400 2566 2680 2466 2339 2381 2527 2528 2577 2661 2624 2416 2463 2736 2811 2309 2027 2552 2238 1848 1699
0 0 0 0 0 0 0 0 0 0 0 0 0 0 0 0 0 0 71 1489 2046 2145 2321 2264 1535 1671 1929 2160 2433 2573 2543 2391 2299 2342 2546 2628 2711 2737 2619 2353 2513 2849 2927 2670 2616 2448 1974 1558 1526
0 0 0 0 0 0 0 0 0 0 0 0 0 0 0 0 0 0 138 1611 2271 2208 2528 2616 1620 1664 1893 2178 2429 2441 2436 2380 2329 2408 2503 2599 2700 2741 2452 2296 2507 2799 2867 2833 2668 2148 1662 1477 1459
0 0 0 0 0 0 0 0 0 0 0 0 0 0 0 0 0 0 213 1211 2564 2412 2650 3169 1978 1720 1835 2022 2160 2180 2305 2360 2384 2445 2500 2657 2630 2502 2298 2280 2430 2624 2676 2582 2197 1701 1562 1463 1417
0 0 0 0 0 0 0 0 0 0 0 0 0 0 0 0 0 0 0 926 2476 2851 2812 3397 2546 2114 1825 1845 1876 1983 2141 2308 2410 2502 2500 2612 2507 2280 2197 2260 2389 2499 2480 2269 1875 1564 1443 1424 1309
0 0 0 0 0 0 0 0 0 0 0 0 0 0 0 0 0 0 0 0 2016 2854 3149 3491 2851 2595 2324 2047 1708 1742 1972 2194 2365 2409 2457 2495 2412 2202 2161 2216 2307 2390 2193 1903 1715 1435 1355 1318 1171
0 0 0 0 0 0 0 0 0 0 0 0 0 0 0 0 0 0 0 0 1014 2554 2921 3494 2957 2914 2769 2483 2092 1624 1652 1920 2157 2279 2391 2585 2811 2740 2597 2267 2173 2197 1908 1732 1625 1348 1273 1227 1119
0 0 0 0 0 0 0 0 0 0 0 0 0 0 0 0 0 0 0 0 0 861 2686 2974 3027 2885 3307 2707 2884 2251 2084 1969 2190 2337 2729 2805 2541 2793 2264 2113 2096 2067 1934 1763 1595 1337 1232 1189 1456
0 0 0 0 0 0 0 0 0 0 0 0 0 0 0 0 0 0 0 0 0 21 2363 2766 2758 2790 2772 3138 2997 2638 2563 2356 2370 2415 2530 2487 2666 2996 2477 2826 2498 2632 1956 2327 1639 1470 1543 1418 1349
0 0 0 0 0 0 0 0 0 0 0 0 0 0 0 0 0 0 0 0 0 0 1051 2731 2945 2821 2771 3270 2801 2675 2635 2885 2722 2789 3570 3238 3053 3217 3029 2622 2647 2885 2622 2420 2170 1827 1628 1891 1876
0 0 0 0 0 0 0 0 0 0 0 0 0 0 0 0 0 0 0 0 0 0 0 1451 2674 2978 3147 3142 2937 2974 3083 2618 2739 2788 3407 3052 2690 3409 3085 2640 2839 2659 2444 2615 2446 2015 2019 1847 1590
0 0 0 0 0 0 0 0 0 0 0 0 0 0 0 0 0 0 0 0 0 0 0 0 443 2597 2774 3033 3241 3346 3254 2991 3000 2835 2857 3681 3185 3085 2810 2952 2377 2743 2415 2259 2590 2256 1946 1987 1850
0 0 0 0 0 0 0 0 0 0 0 0 0 0 0 0 0 0 0 0 0 0 0 0 0 178 1603 2427 2751 3064 2695 2821 2853 2768 3450 2853 3489 3633 3192 2879 2748 2107 2431 2847 2951 2731 2314 2031 2123
0 0 0 0 0 0 0 0 0 0 0 0 0 0 0 0 0 0 0 0 0 0 0 0 0 0 248 1061 1990 2611 2745 2985 2775 2904 2637 3073 2752 3241 3215 2715 3007 2712 2712 2870 2756 2676 2499 1973 1879
0 0 0 0 0 0 0 0 0 0 0 0 0 0 0 0 0 0 0 0 0 0 0 0 0 0 0 179 1207 2219 2814 2946 2707 2604 2666 2996 2976 3326 3332 2688 2674 3336 2886 2981 2653 2417 2492 2456 2143
0 0 0 0 0 0 0 0 0 0 0 0 0 0 0 0 0 0 0 0 0 0 0 0 0 0 0 0 79 997 1932 2522 2923 2850 2550 2824 3463 3365 3232 2724 2889 2795 2962 3075 3059 2725 2457 2255 2153
0 0 0 0 0 0 0 0 0 0 0 0 0 0 0 0 0 0 0 0 0 0 0 0 0 0 0 0 0 28 1726 2151 2723 2842 3081 2670 3117 3639 3445 3256 3283 2958 2627 2542 2862 2854 2725 2311 2398
0 0 0 0 0 0 0 0 0 0 0 0 0 0 0 0 0 0 0 0 0 0 0 0 0 0 0 0 0 0 6 1150 2272 2677 2866 3300 3430 3579 3685 3612 3331 3288 2558 1960 2264 2293 2681 2851 2767
0 0 0 0 0 0 0 0 0 0 0 0 0 0 0 0 0 0 0 0 0 0 0 0 0 0 0 1 0 0 16 7 1520 2343 2586 2998 3395 3607 3733 3706 3466 3281 2871 2504 2089 1995 2117 1920 2488
0 0 0 0 0 0 0 0 0 0 0 0 0 0 0 0 0 0 0 0 0 0 0 0 0 0 0 2 1 0 0 0 443 2095 2392 2405 3257 3482 3752 3819 3675 3328 2804 2337 1849 1648 1634 1782 1564
0 0 0 0 0 0 0 12 0 0 0 23 0 0 0 0 0 0 0 0 0 0 0 0 0 0 0 0 0 6 3 2 93 263 2328 2482 2879 3082 3572 3621 3550 3257 2749 2431 2107 1624 1518 1542 1537
0 0 0 0 0 6 6 0 0 0 0 0 0 0 0 0 0 0 0 0 0 0 0 0 0 0 0 0 0 0 0 6 16 302 1102 1993 2406 2679 3433 3226 3151 2824 2431 2396 2347 1838 1414 1469 1215
0 0 0 0 0 0 0 0 0 0 0 0 0 0 0 0 0 0 0 0 0 0 0 0 0 0 0 0 0 0 0 0 8 13 601 1830 2224 2514 2812 2765 2595 2607 2382 2148 2187 1530 1348 1443 1154
0 0 0 0 0 0 0 0 47 0 0 0 0 0 0 0 0 0 0 0 0 0 0 0 0 0 0 0 0 0 0 0 6 27 625 785 2215 2726 2829 2626 2030 2364 2371 1964 1740 1589 1360 1362 1205
0 0 0 0 0 0 0 0 0 0 0 0 0 0 0 0 0 0 0 0 0 0 0 0 0 0 0 0 0 0 10 2 0 67 1032 1478 2052 2724 2676 2477 1711 1595 1803 1980 1615 1275 1370 1323 1320
0 0 0 0 0 0 0 0 0 0 0 0 0 0 0 0 0 0 0 0 0 0 0 0 0 0 0 0 13 28 60 52 35 344 1415 2051 2262 2538 2323 2258 1650 1661 1550 1633 1880 1571 1506 1412 1404
0 0 0 0 0 0 0 0 0 0 0 0 0 0 0 0 0 0 0 0 0 0 0 0 0 0 0 11 29 90 241 132 172 674 1798 2390 2277 1960 2094 2100 1612 1480 1472 1645 1727 1601 1359 1660 1570
0 0 0 0 0 0 0 0 0 0 0 0 0 0 0 0 0 0 0 0 0 0 0 0 0 0 0 2 25 135 157 293 479 1143 1475 2074 1712 1818 1999 1910 1811 1629 1464 1399 1639 1537 1669 990 1264

GFSSGP_con_mucape_120.txt.gz
CAPE
0 0 0 0 0 0 0 0 0 0 0 0 0 0 0 0 0 0 1 604 1477 1731 2046 1630 1703 1968 2215 2367 2385 2244 2240 2333 2296 2188 2221 2227 2316 2388 2424 2398 2488 2755 2936 2734 2430 2245 1988 2419 2246
0 0 0 0 0 0 0 1 0 0 0 0 0 0 0 0 0 0 1 633 1652 1952 2573 1893 1687 1912 2165 2322 2410 2387 2516 2494 2370 2322 2359 2357 2466 2533 2519 2458 2435 2623 2792 2393 2320 2234 2487 2547 1964
0 0 0 0 0 0 0 0 0 0 0 0 0 0 0 0 0 0 0 714 1806 1941 3054 2362 1698 1851 2099 2267 2399 2460 2537 2434 2350 2374 2503 2521 2607 2688 2634 2410 2324 2705 2709 2476 2509 2614 2515 1990 1723
0 0 0 0 0 0 0 0 0 0 0 0 0 0 0 0 0 0 26 915 2139 2164 2815 2483 1824 1780 2066 2342 2484 2558 2498 2320 2278 2384 2547 2621 2734 2785 2677 2381 2507 2944 2892 2633 2662 2722 2024 1608 1529
0 0 0 0 0 0 0 0 0 0 0 0 0 0 0 0 0 0 146 1114 2479 2882 2672 2452 2172 1703 1984 2402 2592 2562 2386 2243 2261 2411 2536 2631 2736 2778 2514 2343 2551 2854 2916 2867 2685 2270 1675 1500 1456
0 0 0 0 0 0 0 0 0 0 0 0 0 0 0 0 0 0 0 1068 2653 3302 3415 2321 1995 1690 1859 2213 2425 2413 2348 2257 2261 2364 2477 2658 2676 2620 2347 2292 2426 2651 2693 2615 2270 1802 1572 1470 1441
0 0 0 0 0 0 0 0 0 0 0 0 0 0 0 0 0 0 0 36 2474 3385 3787 3174 2558 2005 1715 1924 2118 2237 2311 2293 2256 2332 2448 2590 2525 2399 2237 2290 2377 2504 2536 2423 1958 1578 1467 1451 1386
0 0 0 0 0 0 0 0 0 0 0 0 0 0 0 0 0 0 0 0 2806 2934 3703 3728 2950 2310 2053 1917 1770 1959 2144 2273 2326 2296 2379 2506 2399 2289 2192 2222 2327 2388 2373 2246 1828 1449 1389 1381 1246
0 0 0 0 0 0 0 0 0 0 0 0 0 0 0 0 0 0 0 0 741 2947 3256 3979 3207 2794 2351 1964 1757 1639 1872 2108 2292 2351 2361 2395 2486 2329 2212 2282 2233 2348 2128 2062 1765 1372 1308 1257 1140
0 0 0 0 0 0 0 0 0 0 0 0 0 0 0 0 0 0 0 0 0 673 3213 3457 3317 2921 2966 2182 2085 1851 1890 2045 2318 2468 2371 2617 2716 2676 2480 2309 2142 2192 2005 1820 1658 1424 1271 1206 1157
0 0 0 0 0 0 0 0 0 0 0 0 0 0 0 0 0 0 0 0 0 0 2412 3200 3025 2548 3096 2860 2552 1963 1946 1814 2124 2392 2668 2704 2694 2697 2162 2216 1958 2042 2060 1839 1705 1461 1239 1297 1341
0 0 0 0 0 0 0 0 0 0 0 0 0 0 0 0 0 0 0 0 0 0 0 2959 2967 2496 2579 3066 2921 2466 2239 2116 2087 2155 2549 2424 2572 2583 2096 2362 2321 2338 2078 2250 1934 1613 1402 1369 1287
0 0 0 0 0 0 0 0 0 0 0 0 0 0 0 0 0 0 0 0 0 0 0 1451 2908 2586 2479 2598 2229 2502 2359 2287 2429 2425 2523 2614 2334 2538 2595 2178 2489 2283 2369 2172 2188 1877 1533 1493 1494
0 0 0 0 0 0 0 0 0 0 0 0 0 0 0 0 0 0 0 0 0 0 0 0 7 2507 2374 2409 2115 2588 2338 2575 2667 2647 2700 2752 2617 2551 2503 2409 2568 2408 2306 2353 2166 2164 1812 1648 1673
0 0 0 0 0 0 0 0 0 0 0 0 0 0 0 0 0 0 0 0 0 0 0 0 0 0 971 2199 2018 2179 2249 2242 2421 2438 3009 2835 2793 2814 2790 2588 2384 2434 2285 2435 2212 2308 2043 1847 1664
0 0 0 0 0 0 0 0 0 0 0 0 0 0 0 0 0 0 0 0 0 0 0 0 0 0 0 3 1752 1673 1879 2074 2276 2480 2416 2768 3002 3090 2618 2489 2723 2691 2469 2367 2213 2182 2268 1858 1798
0 0 0 0 0 0 0 0 0 0 0 0 0 0 0 0 0 0 0 0 0 0 0 0 0 0 0 0 0 307 1776 1742 2121 2259 2364 2801 2624 2586 2973 2590 2368 2584 2844 2454 2458 2310 2369 2156 1860
0 0 0 0 0 0 0 0 0 0 0 0 0 0 0 0 0 0 0 0 0 0 0 0 0 0 0 0 0 0 375 1977 2185 2224 2015 2381 2630 2313 2342 2809 2463 2208 2571 2754 2473 2430 2369 2297 1972
0 0 0 0 0 0 0 0 0 0 0 0 0 0 0 0 0 0 0 0 0 0 0 0 0 0 0 0 0 0 0 236 1985 2306 2323 2249 2359 2557 2345 2497 2728 2365 2041 2483 2676 2461 2286 2190 2062
0 0 0 0 0 0 0 0 0 0 0 0 0 0 0 0 0 0 0 0 0 0 0 0 0 0 0 0 0 0 0 0 136 1544 2304 2426 2327 2564 2674 2525 2441 2501 2060 2114 2814 2644 2301 2193 2128
0 0 0 0 0 0 0 0 0 0 0 0 0 0 0 0 0 0 0 0 0 0 0 0 0 0 0 0 0 0 0 0 0 570 1250 2359 2433 2293 2869 2693 2384 2474 2385 2105 2287 2516 2375 2001 2108
0 0 0 0 0 0 0 0 0 0 0 0 0 0 0 0 0 0 0 0 0 0 0 0 0 0 0 0 0 0 0 0 0 1 473 1501 2289 2432 2612 2826 2800 2613 2642 2357 2205 2046 1915 2111 2078
0 0 0 0 0 0 0 0 0 0 0 0 0 0 0 0 0 0 0 0 0 0 0 0 0 0 0 0 0 0 0 0 0 0 0 159 1284 2084 2292 2259 2539 2794 2444 2479 2045 1776 1670 1824 1690
0 0 0 0 0 0 0 0 0 0 0 0 0 0 0 0 0 0 0 0 0 0 0 0 0 0 0 0 0 0 0 0 0 0 0 4 363 1093 1928 1944 2239 2605 2566 1726 898 1736 1611 1617 1524
0 0 0 0 0 0 0 0 6 0 0 0 0 0 0 0 0 0 0 0 0 0 0 0 0 0 0 0 0 0 0 0 0 0 0 0 22 308 1185 1677 2019 2464 2624 2117 2006 1797 1582 1477 1371
0 0 3 0 0 0 0 0 0 0 0 0 0 0 0 0 0 0 0 0 0 0 0 0 0 0 0 0 0 0 0 0 0 0 0 0 0 12 676 1228 1412 1998 2188 2173 2045 1984 1660 1732 1873
0 0 0 0 0 0 0 0 2 0 0 0 0 0 0 0 0 0 0 0 0 0 0 0 0 0 0 0 0 0 0 0 0 0 0 0 0 1 232 1130 1239 1513 2049 2095 2119 1887 1959 1895 1687
0 0 0 0 0 0 0 0 0 0 0 0 0 0 0 0 0 0 0 0 0 0 0 0 0 0 0 0 0 0 0 0 0 0 0 0 0 3 442 935 1131 1007 1542 1825 1675 1580 1462 1633 1773
0 0 0 0 0 0 0 0 3 1 0 0 0 0 0 0 0 0 0 0 0 0 0 0 0 0 0 0 0 2 0 0 1 0 0 0 0 5 581 947 733 3 997 1305 1376 1485 1298 1471 1510
0 0 0 0 0 0 0 0 0 0 0 0 0 0 0 0 0 0 0 0 0 0 0 0 0 0 0 0 0 0 0 2 27 92 2 82 0 137 961 1093 798 205 988 1201 1341 1191 1198 1501 1520

GFSSGP_con_mucape_123.txt.gz
CAPE
0 0 0 0 0 0 0 0 0 0 0 0 0 0 0 0 0 0 108 1002 1330 1854 1611 1749 1861 2105 2262 2390 2119 2044 2174 2288 2232 2188 2088 2129 2188 2257 2265 2285 2429 2722 2833 2484 2284 2123 1832 2160 1888
0 0 0 0 0 0 0 0 0 0 0 0 0 0 0 0 0 0 61 1320 1497 2163 1965 1763 1779 2052 2221 2292 2266 2204 2417 2475 2309 2290 2240 2275 2336 2333 2296 2215 2304 2701 2878 2679 2458 2137 2318 2458 1722
0 0 0 0 0 0 0 0 0 0 0 0 0 0 0 0 0 2 414 1534 1829 2508 2680 2376 1871 1937 2163 2241 2302 2278 2419 2328 2282 2314 2424 2485 2536 2541 2452 2176 2283 2737 2764 2663 2440 2540 2443 1948 1602
0 0 0 0 0 0 0 0 0 0 0 0 0 0 0 0 0 37 895 1613 2300 2676 3010 2540 2084 1857 2135 2268 2354 2377 2368 2194 2175 2289 2471 2648 2722 2707 2437 2162 2406 2774 2740 2712 2909 2726 1928 1541 1503
0 0 0 0 0 0 0 0 0 0 0 0 0 0 0 0 0 32 889 1837 2507 2759 2861 2461 2069 1815 2114 2356 2451 2491 2360 2159 2161 2306 2403 2558 2723 2678 2274 2177 2462 2724 2651 2698 2657 2123 1548 1399 1409
0 0 0 0 0 0 0 0 0 0 0 0 0 0 0 0 0 0 388 1848 2487 2858 2737 2468 2219 1806 2035 2331 2453 2469 2303 2123 2141 2266 2348 2491 2548 2433 2190 2196 2395 2595 2537 2560 2188 1815 1436 1343 1367
0 0 0 0 0 0 0 0 0 0 0 0 0 0 0 0 0 0 0 1802 2000 3089 3236 2755 2663 2334 1852 2161 2342 2340 2254 2149 2116 2213 2316 2410 2403 2312 2181 2236 2322 2411 2432 2322 1972 1561 1405 1352 1370
0 0 0 0 0 0 0 0 0 0 0 0 0 0 0 0 0 0 0 0 2053 2653 3274 3054 2776 2625 2098 1871 2134 2244 2248 2208 2163 2190 2246 2335 2292 2191 2134 2186 2290 2324 2299 2154 1830 1421 1368 1337 1277
0 0 0 0 0 0 0 0 0 0 0 0 0 0 0 0 0 0 0 0 1889 2405 2984 3107 3070 2646 2156 1556 1752 1964 2122 2206 2183 2186 2232 2324 2179 2086 2041 2086 2209 2214 2193 2082 1770 1324 1308 1273 1201
0 0 0 0 0 0 0 0 0 0 0 0 0 0 0 0 0 0 0 0 0 1159 2682 3197 3018 2542 2189 1752 1548 1631 1817 2027 2130 2196 2161 2236 2102 2011 2001 1993 2116 2161 2060 1995 1775 1380 1247 1219 1100
0 0 0 0 0 0 0 0 0 0 0 0 0 0 0 0 0 0 0 0 0 0 2711 2892 2962 2734 2362 2007 1733 1359 1520 1725 1989 2223 2165 2156 2116 2041 2037 1908 1996 2026 1972 1811 1659 1449 1251 1218 1197
0 0 0 0 0 0 0 0 0 0 0 0 0 0 0 0 0 0 0 0 0 0 0 2854 2700 2596 2174 2520 2409 2061 1429 1491 1784 2176 2230 2185 2232 2470 2103 2100 1921 1981 1867 1756 1687 1574 1298 1242 1231
0 0 0 0 0 0 0 0 0 0 0 0 0 0 0 0 0 0 0 0 0 0 0 2189 2526 2305 2204 2003 1986 2205 2340 1868 1551 1826 2287 2213 2452 2435 2550 2150 2061 1856 1849 1783 1735 1633 1437 1288 1221
0 0 0 0 0 0 0 0 0 0 0 0 0 0 0 0 0 0 0 0 0 0 0 0 0 554 1656 1736 1339 1583 1840 2014 1741 1589 1799 2452 2074 2342 2233 1924 2065 1936 1832 1755 1852 1794 1556 1160 1203
0 0 0 0 0 0 0 0 0 0 0 0 0 0 0 0 0 0 0 0 0 0 0 0 0 0 6 16 169 930 1073 1335 1497 1776 1816 1991 2286 1855 2279 2262 1988 2034 1880 1869 1779 1864 1742 1362 1200
0 0 0 0 0 0 0 0 0 0 0 0 0 0 0 0 0 0 0 0 0 0 0 0 0 0 0 0 0 0 678 834 1060 1056 1734 2168 2158 2358 1952 2408 2026 2270 1890 1915 1871 1754 1892 1779 1474
0 0 0 0 0 0 0 0 0 0 0 0 0 0 0 0 0 0 0 0 0 0 0 0 0 0 0 0 0 0 0 173 791 1025 1289 1484 1675 1984 2343 2252 2285 1989 2294 2004 1980 1873 1859 1830 1614
0 0 0 0 0 0 0 0 0 0 0 0 0 0 0 0 0 0 0 0 0 0 0 0 0 0 0 0 0 0 0 0 122 698 1006 1201 1412 1743 1764 2408 2424 2366 2376 2308 2090 1968 1892 1839 1712
0 0 0 0 0 0 0 0 0 0 0 0 0 0 0 0 0 0 0 0 0 0 0 0 0 0 0 0 0 0 0 0 60 190 486 1073 1184 1452 1894 1762 2311 2266 1983 2290 2050 2002 1787 1860 1867
0 0 0 0 0 0 0 0 0 0 0 0 0 0 0 0 0 0 0 0 0 0 0 0 0 0 0 0 0 0 0 0 0 127 105 769 914 1445 1621 1355 1480 2235 2002 1751 2184 2038 1867 1785 1913
0 0 0 0 0 0 0 0 0 0 0 0 0 0 0 0 0 0 0 0 0 0 0 0 0 0 0 0 0 0 0 0 0 0 2 476 561 685 1475 1400 1330 1647 2093 2100 1561 2202 2149 1775 1803
0 0 0 0 0 0 0 0 0 0 0 0 0 0 0 0 0 0 0 0 0 0 0 0 0 0 0 0 0 0 0 0 0 0 0 27 319 562 570 1360 1545 1364 1640 2111 1790 1837 2244 1827 1499
0 0 0 0 0 0 0 0 0 0 0 0 0 0 0 0 0 0 0 0 0 0 0 0 0 0 0 0 0 0 0 0 0 0 0 0 54 294 671 782 1218 1670 1514 1928 1631 1544 1905 1967 1418
0 0 0 0 0 0 0 0 0 0 0 0 0 0 0 0 0 0 0 0 0 0 0 0 0 0 0 0 0 0 0 0 0 0 0 0 0 225 399 998 811 1154 1633 1658 1746 1614 1309 1354 1190
0 0 0 0 0 0 0 0 0 0 0 0 0 0 0 0 0 0 0 0 0 0 0 0 0 0 0 0 0 0 0 0 0 0 0 0 0 0 190 206 535 976 1128 1577 1752 1537 1006 524 765
0 0 0 0 0 0 0 0 0 0 0 0 0 0 0 0 0 0 0 0 0 0 0 0 0 0 0 0 0 0 0 0 0 0 0 0 0 0 0 56 270 609 879 1179 1402 1362 1024 539 97
0 0 0 0 0 0 0 0 0 0 0 0 0 0 0 0 0 0 0 0 0 0 0 0 0 0 0 0 0 0 0 0 0 0 0 0 0 0 0 0 0 150 696 864 999 1172 1026 706 362
0 0 0 0 0 0 0 0 0 0 0 0 0 0 0 0 0 0 0 0 0 0 0 0 0 0 0 0 0 0 0 0 0 0 0 0 0 0 0 0 0 0 42 622 877 816 777 783 843
0 0 0 0 0 0 0 0 0 0 0 0 2 0 0 0 0 0 0 0 0 0 0 0 0 0 0 0 0 0 0 0 0 0 0 0 0 0 0 0 0 0 23 768 954 795 647 667 958
0 0 0 0 0 0 0 0 0 0 7 0 0 0 0 0 0 0 0 0 0 0 0 0 0 0 0 0 0 0 0 0 0 0 2 0 0 2 1 0 0 9 45 390 417 327 42 1 576

GFSSGP_con_mucape_126.txt.gz
CAPE
0 0 0 0 0 0 0 0 0 0 0 0 0 0 0 0 0 0 1147 1343 1816 1530 1671 1808 2013 2189 2214 2060 1994 2038 2179 2235 2240 2104 2037 2182 2254 2181 2313 2405 2554 2873 2897 2379 2252 2092 1995 1784 1787
0 0 0 0 0 0 0 0 0 0 0 0 0 0 0 0 0 1 160 1620 1801 1809 1679 1805 1970 2120 2250 2105 2078 2145 2397 2365 2296 2214 2212 2266 2364 2372 2303 2271 2413 2784 3040 2565 2303 2197 2348 2066 1784
0 0 0 0 0 0 0 0 0 0 0 0 0 0 0 0 0 290 1102 2136 2129 2074 2037 2187 1918 2074 2188 2212 2103 2177 2336 2239 2241 2222 2371 2424 2467 2473 2347 2175 2424 2803 2985 2795 2522 2500 2495 1833 1550
0 0 0 0 0 0 0 0 0 0 0 0 0 0 0 0 6 459 1274 2340 2427 2531 2771 2472 2171 1973 2141 2232 2196 2189 2186 2066 2068 2155 2410 2558 2599 2577 2307 2115 2538 2747 2899 3055 2969 2760 2033 1570 1470
0 0 0 0 0 0 0 0 0 0 0 0 0 0 0 0 108 1053 1491 2452 2550 2724 2934 2535 2195 1913 2107 2305 2306 2244 2156 2010 2021 2138 2287 2504 2582 2479 2158 2076 2432 2547 2597 2771 2874 2039 1660 1460 1447
0 0 0 0 0 0 0 0 0 0 0 0 0 0 0 0 0 454 1391 2539 2620 2734 2712 2423 2273 1977 1999 2226 2310 2309 2206 2031 2002 2103 2193 2443 2407 2170 2025 2054 2323 2349 2327 2412 2307 1783 1495 1408 1396
0 0 0 0 0 0 0 0 0 0 0 0 0 0 0 0 0 0 1265 1862 2753 2656 2584 2519 2413 2459 1967 2094 2235 2328 2219 2059 2010 2043 2096 2293 2227 2028 1932 2039 2203 2297 2245 2248 1935 1656 1387 1362 1354
0 0 0 0 0 0 0 0 0 0 0 0 0 0 0 0 0 0 0 1415 2702 2747 2829 2607 2459 2487 2406 2168 2168 2230 2226 2063 1979 1998 2059 2167 2121 2006 1905 1978 2105 2201 2190 2149 1844 1464 1356 1324 1260
0 0 0 0 0 0 0 0 0 0 0 0 0 0 0 0 0 0 0 0 1411 2699 2993 2901 2665 2532 2415 2081 1900 2167 2168 2129 2033 1998 2059 2153 2050 1970 1848 1858 1977 2057 2096 2034 1735 1293 1270 1233 1144
0 0 0 0 0 0 0 0 0 0 0 0 0 0 0 0 0 0 0 0 0 26 2530 3042 2997 2751 2334 1952 1746 1852 2017 2102 2036 2050 2068 2020 1999 1934 1785 1782 1887 1960 1978 1929 1687 1225 1134 1123 1045
0 0 0 0 0 0 0 0 0 0 0 0 0 0 0 0 0 0 0 0 0 0 1377 2967 2884 2767 2439 2052 1799 1441 1654 1881 2402 2526 2101 2230 1962 1901 1803 1730 1795 1831 1859 1810 1674 1335 1094 1057 937
0 0 0 0 0 0 0 0 0 0 0 0 0 0 0 0 0 0 0 0 0 0 269 2045 1424 2104 2296 2319 2080 1914 1288 1467 1560 2001 2242 2338 1911 1826 1759 1692 1661 1694 1692 1619 1660 1427 1208 1085 972
0 0 0 0 0 0 0 0 0 0 0 0 0 0 0 0 0 0 0 0 0 0 28 309 299 1451 1640 1552 1375 1612 1895 1706 1328 1587 1865 1905 1949 1811 1713 1689 1543 1591 1590 1473 1489 1334 1261 1120 1030
0 0 0 0 0 0 0 0 0 0 0 0 0 0 0 0 0 0 0 0 0 0 0 0 0 3 416 619 553 628 1387 1376 1260 1316 1690 1865 1780 1868 2062 1834 1762 1610 1664 1530 1288 1256 1311 1240 1038
0 0 0 0 0 0 0 0 0 0 0 0 0 0 0 0 0 0 0 0 0 0 0 0 0 0 0 7 10 117 608 929 1180 1241 1346 1390 1377 1694 1777 2275 2177 1972 1743 1566 1437 1288 1288 1286 1094
0 0 0 0 0 0 0 0 0 0 0 0 0 0 0 0 0 0 0 0 0 0 0 0 0 0 0 0 0 0 0 24 431 925 999 901 853 931 1392 1716 2291 2076 1779 1669 1514 1346 1254 1304 1186
0 0 0 0 0 0 0 0 0 0 0 0 0 0 0 0 0 0 0 0 0 0 0 0 0 0 0 0 0 0 0 0 0 4 121 612 466 924 580 1276 1662 1796 1617 1783 1747 1417 1300 1226 1286
0 0 0 0 0 0 0 0 0 0 0 0 0 0 0 0 0 0 0 0 0 0 0 0 0 0 0 0 0 0 0 0 0 0 0 114 616 569 222 656 1109 1417 1653 1571 1672 1490 1413 1244 1262
0 0 0 0 0 0 0 0 0 0 0 0 0 0 0 0 0 0 0 0 0 0 0 0 0 0 0 0 0 0 0 0 0 0 0 0 44 396 372 466 76 310 1203 1302 1607 1683 1638 1496 1473
0 0 0 0 0 0 0 0 0 0 0 0 0 0 0 0 0 0 0 0 0 0 0 0 0 0 0 0 0 0 0 0 0 0 0 0 0 27 300 354 530 110 954 1127 1294 1389 1425 1427 1306
0 0 0 0 0 0 0 0 0 0 0 0 0 0 0 0 0 0 0 0 0 0 0 0 0 0 0 0 0 0 0 0 0 0 0 0 0 0 52 213 430 400 9 71 851 1219 1164 880 1081
0 0 0 0 0 0 0 0 0 0 0 0 0 0 0 0 0 0 0 0 0 0 0 0 0 0 0 0 0 0 0 0 0 0 0 0 0 0 0 60 170 415 455 581 757 1078 1112 952 849
0 0 0 0 0 0 0 0 0 0 0 0 0 0 0 0 0 0 0 0 0 0 0 0 0 0 0 0 0 0 0 0 0 0 0 0 0 0 0 1 173 180 402 502 666 949 934 959 906
0 0 0 0 0 0 0 0 0 0 0 0 0 0 0 0 0 0 0 0 0 0 0 0 0 0 0 0 0 0 0 0 0 0 0 0 0 0 0 0 2 1 93 219 418 616 928 844 829
0 0 0 0 0 0 0 0 0 0 0 0 0 0 0 0 0 0 0 0 0 0 0 0 0 0 0 0 0 0 0 0 0 0 0 0 0 0 0 0 0 2 27 39 318 465 597 721 628
0 0 0 0 0 0 0 0 0 0 0 0 0 0 0 0 0 0 0 0 0 0 0 0 0 0 0 0 0 0 0 0 0 0 0 0 0 0 0 0 0 0 6 48 217 431 531 501 541
0 0 0 0 0 0 0 0 0 0 0 0 0 2 0 0 0 0 0 0 0 0 0 0 0 0 0 0 0 0 0 0 0 0 0 0 0 0 0 0 0 0 0 18 21 111 481 641 498
0 0 0 0 0 0 0 0 0 0 1 8 6 0 0 0 0 0 0 0 0 0 0 0 0 0 0 0 0 0 0 0 0 0 0 0 0 0 0 0 0 0 0 0 5 13 132 510 468
0 0 0 0 0 0 0 0 0 0 0 0 0 0 0 0 0 0 0 0 0 0 0 0 0 0 0 0 0 0 0 0 0 0 0 0 0 0 0 0 0 0 0 0 0 0 111 433 506
0 0 0 0 0 0 0 0 0 0 0 0 0 0 0 0 0 0 0 0 0 0 0 0 0 0 0 0 0 0 3 0 0 0 1 1 3 0 0 0 0 0 0 0 1 3 76 571 693